     2.11           OBSERVATION DATA    G (GPS)             RINEX VERSION / TYPE
teqc 2010Oct21 OPUS Account 20111025 17:33:27UTC            PGM / RUN BY / DATE
N2277258                                                    MARKER NAME
1114                                                        MARKER NUMBER
CSMIDDLETON NGS                                             OBSERVER / AGENCY
4619K01307 TRIMBLE NETR5 4.41                               REC # / TYPE / VERS
12668873 TRM41249.00 NONE                                   ANT # / TYPE
  -741503.7067 -5462707.8500  3197295.8662                  APPROX POSITION XYZ
        1.9990        0.0000        0.0000                  ANTENNA: DELTA H/E/N
     1     1                                                WAVELENGTH FACT L1/2
     5    L1    L2    C1    P1    P2                        # / TYPES OF OBSERV
    15                                                      LEAP SECONDS
  2011     7    25     0     0    0.0000000     GPS         TIME OF FIRST OBS
                                                            END OF HEADER
 11  7 25  0  0  0.0000000  0  8G10G28G17G09G04G20G27G02
 126340077.76546  98446898.84343  24041718.1174                   24041731.5984
 113529339.89747  88464497.29745  21603911.9144                   21603920.2974
 111536925.120 7                  21224759.641
 117398225.23047  91479210.28144  22340142.9924                   22340152.9694
 105259849.79848  82020761.03046  20030271.7114                   20030280.6484
 126459318.48846  98539633.30943  24064366.7114                   24064376.9264
 118194650.64747  92099807.78245  22491696.0164                   22491705.8554
 119544826.34047  93151897.07845  22748617.8054                   22748626.1644
 11  7 25  0  0 30.0000000  0  8G10G28G17G09G04G20G27G02
 126245945.15346  98373548.95143  24023805.5474                   24023819.4024
 113571084.99648  88497025.91645  21611855.6804                   21611864.1724
 111565616.643 7                  21230219.547
 117355096.08847  91445603.19245  22331936.3134                   22331946.3874
 105229943.09048  81997457.12146  20024580.6414                   20024590.1524
 126480647.57046  98556253.40343  24068426.3364                   24068436.1134
 118172053.88147  92082199.91145  22487395.7424                   22487406.3524
 119457853.54147  93084126.15645  22732067.4304                   22732076.2114
 11  7 25  0  1  0.0000000  0  8G10G28G17G09G04G20G27G02
 126151776.69746  98300171.10343  24005886.6884                   24005899.1484
 113613195.69948  88529839.41745  21619869.0084                   21619877.9224
 111594417.190 8                  21235699.938
 117312577.26747  91412471.67445  22323845.1724                   22323854.9574
 105200608.32148  81974598.86846  20018998.3674                   20019007.6684
 126502481.43946  98573266.82643  24072580.9304                   24072590.9574
 118149944.51847  92064971.82445  22483189.0634                   22483198.8554
 119371132.29447  93016551.23945  22715564.8284                   22715573.6134
 11  7 25  0  1 30.0000000  0  8G10G28G17G09G04G20G27G02
 126057574.94746  98226767.34643  23987959.9924                   23987972.7504
 113655672.21248  88562937.98245  21627952.1564                   21627960.6914
 111623326.001 8                  21241201.539
 117270670.07747  91379816.71445  22315870.1564                   22315879.4064
 105171845.49448  81952186.28846  20013524.7664                   20013534.4964
 126524820.06246  98590673.47443  24076832.7504                   24076842.0124
 118128322.68147  92048123.62845  22479074.6804                   22479084.2504
 119284664.04447  92949173.45845  22699110.0864                   22699118.7234
 11  7 25  0  2  0.0000000  0  8G10G28G17G09G04G20G27G02
 125963343.33046  98153340.26643  23970028.5944                   23970040.4384
 113698515.29248  88596322.17945  21636104.7194                   21636113.4144
 111652342.764 8                  21246722.828
 117229375.63447  91347639.25045  22308012.1174                   22308022.4694
 105143655.22848  81930219.86546  20008160.8984                   20008169.8524
 126547663.07346  98608473.31743  24081178.1414                   24081188.3484
 118107189.14047  92031655.92945  22475052.5234                   22475062.7384
 119198450.71547  92881994.32445  22682704.0004                   22682712.7424
 11  7 25  0  2 30.0000000  0  8G10G28G17G09G04G20G27G02
 125869084.43146  98079891.91943  23952091.2814                   23952103.2504
 113741724.94148  88629991.99945  21644327.5004                   21644336.0274
 111681466.621 8                  21252264.836
 117188695.53347  91315940.48145  22300270.9924                   22300280.8874
 105116037.71448  81908699.73046  20002905.2584                   20002914.4344
 126571010.44546  98626666.13643  24085621.2194                   24085632.0784
 118086544.16947  92015568.95945  22471123.9694                   22471134.0434
 119112493.77247  92815014.98145  22666347.5704                   22666356.1764
 11  7 25  0  3  0.0000000  0  8G10G28G17G09G04G20G27G02
 125774801.15646  98006424.59243  23934149.7034                   23934161.1564
 113785301.74648  88663947.91945  21652619.6334                   21652628.2234
 111710696.739 8                  21257827.313
 117148630.77047  91284721.21645  22292646.6024                   22292656.7854
 105088993.06448  81887626.00646  19997758.7664                   19997767.8094
 126594862.23046  98645251.95643  24090160.4144                   24090169.3634
 118066388.01747  91999862.87645  22467288.5004                   22467298.3164
 119026794.38847  92748236.31345  22650038.9304                   22650047.7074
 11  7 25  0  3 30.0000000  0  8G10G28G17G09G04G20G27G02
 125680496.76146  97932940.81743  23916203.8054                   23916215.8754
 113829245.77448  88698189.99145  21660982.7344                   21660991.2034
 111740033.233 8                  21263409.430
 117109182.83047  91253982.59745  22285139.8834                   22285150.2194
 105062522.05648  81866999.25846  19992721.5784                   19992730.7114
 126619218.30246  98664230.73643  24094795.6414                   24094804.0744
 118046721.41347  91984538.26545  22463546.2664                   22463556.0554
 118941354.65647  92681659.97745  22633780.6804                   22633788.9304
 11  7 25  0  4  0.0000000  0  8G10G28G17G09G04G20G27G02
 125586174.03846  97859442.76343  23898254.9614                   23898266.9924
 113873557.36648  88732718.47945  21669414.6334                   21669422.9614
 111769475.352 8                  21269012.469
 117070352.64147  91223725.35245  22277751.0474                   22277761.0554
 105036624.38148  81846819.27546  19987793.0864                   19987802.3634
 126644078.27946  98683602.10143  24099525.1024                   24099535.5234
 118027544.72047  91969595.40945  22459896.6414                   22459906.5944
 118856175.83947  92615286.96045  22617571.3054                   22617579.8834
 11  7 25  0  4 30.0000000  0  8G10G28G17G09G04G20G27G02
 125491835.94846  97785932.75343  23880302.7424                   23880315.1254
 113918236.66748  88767533.50845  21677916.4614                   21677925.2734
 111799022.450 8                  21274634.945
 117032141.31447  91193950.32545  22270479.5554                   22270489.5434
 105011300.25148  81827086.21146  19982974.3134                   19982983.2894
 126669442.08246  98703366.12643  24104352.3594                   24104362.2974
 118008858.18447  91955034.50345  22456340.7734                   22456351.0354
 118771259.48047  92549118.43745  22601412.0634                   22601420.8324
 11  7 25  0  5  0.0000000  0  8G10G28G17G09G04G20G27G02
 125397485.73246  97712413.30143  23862347.6094                   23862360.8014
 113963284.48248  88802635.68845  21686489.0164                   21686497.2344
 111828674.319 8                  21280277.477
 116994550.43447  91164658.76545  22263326.5784                   22263336.3754
 104986550.31848  81807800.57346  19978264.3364                   19978273.3634
 126695309.56146  98723522.70043  24109275.3444                   24109284.8794
 117990662.18247  91940855.82345  22452878.6094                   22452887.6804
 118686607.28648  92483155.75545  22585303.5704                   22585312.0634
 11  7 25  0  5 30.0000000  0  8G10G28G17G09G04G20G27G02
 125303126.19046  97638886.56043  23844391.5864                   23844405.0904
 114008700.45948  88838024.74645  21695131.3444                   21695139.4924
 111858430.236 8                  21285939.547
 116957580.87947  91135851.35545  22256291.5864                   22256301.0434
 104962374.37148  81788962.20746  19973663.8914                   19973672.6914
 126721680.46546  98744071.46643  24114292.7584                   24114302.6054
 117972956.90747  91927059.52745  22449508.9844                   22449519.0394
 118602220.64947  92417400.01245  22569244.7664                   22569253.2814
 11  7 25  0  6  0.0000000  0  8G10G28G17G09G04G20G27G02
 125208760.57146  97565355.09543  23826434.8984                   23826447.6684
 114054485.76748  88873701.58145  21703844.0634                   21703852.5984
 111888290.231 8                  21291622.234
 116921234.33747  91107529.42045  22249374.7274                   22249384.7664
 104938773.16248  81770571.67746  19969172.8674                   19969181.5944
 126748554.56646  98765012.33843  24119406.6484                   24119416.2234
 117955742.90547  91913646.05145  22446233.3364                   22446243.0234
 118518101.54147  92351852.71445  22553237.8754                   22553246.6094
 11  7 25  0  6 30.0000000  0  8G10G28G17G09G04G20G27G02
 125114391.72246  97491821.12743  23808476.4844                   23808488.8164
 114100640.09848  88909665.94645  21712626.7274                   21712635.3134
 111918253.481 8                  21297324.141
 116885511.29647  91079693.31645  22242576.8444                   22242586.7584
 104915746.42948  81752628.79646  19964790.6724                   19964799.7504
 126775931.67946  98786345.06843  24124617.0634                   24124626.5594
 117939020.27647  91900615.45145  22443051.2344                   22443060.9964
 118434250.99947  92286514.71145  22537281.1174                   22537289.8874
 11  7 25  0  7  0.0000000  0  8G10G28G17G09G04G20G27G02
 125020022.68146  97418286.94143  23790519.4614                   23790530.9264
 114147163.75747  88945918.13945  21721479.9454                   21721488.4804
 111948319.326 8                  21303045.195
 116850412.65447  91052343.75745  22235897.7734                   22235907.8054
 104893294.01648  81735133.43346  19960518.3594                   19960527.3244
 126803811.34046  98808069.48043  24129922.1174                   24129931.2854
 117922789.18247  91887967.86745  22439962.7504                   22439972.4344
 118350670.56947  92221387.16145  22521376.5554                   22521384.5634
 11  7 25  0  7 30.0000000  0  8G10G28G17G09G04G20G27G02
 124925656.47047  97344754.99144  23772562.1254                   23772573.5664
 114194056.87847  88982458.19045  21730403.9454                   21730412.1174
 111978487.288 8                  21308785.969
 116815939.65447  91025481.69644  22229337.7974                   22229347.8794
 104871416.19848  81718085.80246  19956355.1954                   19956364.1374
 126832193.14346  98830185.23443  24135322.9144                   24135332.4184
 117907049.87047  91875703.48045  22436967.5554                   22436977.2424
 118267361.72447  92156471.26745  22505523.7504                   22505532.1174
 11  7 25  0  8  0.0000000  0  8G10G28G17G09G04G20G27G02
 124831296.02847  97271227.52544  23754605.0474                   23754616.3794
 114241319.58948  89019286.26245  21739397.2894                   21739406.1134
 112008756.796 7                  21314545.813
 116782093.05147  90999107.72344  22222897.1804                   22222907.0394
 104850112.62048  81701485.63446  19952301.2504                   19952309.9694
 126861076.73746  98852691.90643  24140819.2664                   24140828.9884
 117891802.40447  91863822.36145  22434065.7344                   22434075.8134
 118184325.72247  92091767.95145  22489722.3914                   22489730.2464
 11  7 25  0  8 30.0000000  0  8G10G28G17G09G04G20G27G02
 124736944.54547  97197707.02044  23736650.5394                   23736662.9184
 114288952.14147  89056402.49745  21748461.1644                   21748469.9734
 112039127.702 8                  21320325.609
 116748873.97547  90973222.74244  22216575.2194                   22216585.3794
 104829383.75348  81685333.28846  19948356.5164                   19948365.8054
 126890462.06946  98875589.61343  24146410.3284                   24146419.3164
 117877047.18747  91852324.79545  22431258.1884                   22431268.1374
 118101564.21747  92027278.54145  22473973.3834                   22473981.5474
 11  7 25  0  9  0.0000000  0  8G10G28G17G09G04G20G27G02
 124642604.97946  97124195.83943  23718698.1724                   23718709.6804
 114336954.92747  89093807.22145  21757596.2894                   21757604.4774
 112069599.443 8                  21326124.352
 116716283.50947  90947827.58544  22210373.8984                   22210383.6564
 104809229.62648  81669628.78546  19944521.3984                   19944530.3714
 126920348.52146  98898877.79543  24152098.0704                   24152107.9224
 117862784.49447  91841210.99545  22428544.1174                   22428553.9654
 118019078.96647  91963004.39445  22458276.7894                   22458284.8984
 11  7 25  0  9 30.0000000  0  8G10G28G17G09G04G20G27G02
 124548280.28047  97050696.22144  23700750.0704                   23700760.2464
 114385328.06247  89131500.54345  21766801.2894                   21766809.3054
 112100171.935 8                  21331941.883
 116684322.63547  90922923.01344  22204292.2034                   22204301.3874
 104789650.19248  81654372.09946  19940795.3444                   19940804.4924
 126950735.81846  98922556.23543  24157880.8134                   24157890.8984
 117849014.46047  91830481.10345  22425923.5864                   22425933.3404
 117936871.35247  91898946.58845  22442632.6174                   22442641.4304
 11  7 25  0 10  0.0000000  0  8G10G28G17G09G04G20G27G02
 124453973.65646  96977210.66643  23682802.3594                   23682814.5514
 114434071.17647  89169482.16845  21776076.8984                   21776085.5004
 112130844.480 8                  21337778.711
 116652992.29847  90898509.74944  22198329.5634                   22198339.6094
 104770645.14748  81639562.98746  19937179.0394                   19937187.9494
 126981623.11746  98946624.24243  24163759.0164                   24163768.2974
 117835737.12747  91820135.11345  22423396.7584                   22423407.0434
 117854942.65847  91835106.11845  22427043.0314                   22427050.8594
 11  7 25  0 10 30.0000000  0  8G10G28G17G09G04G20G27G02
 124359688.40247  96903741.81543  23664860.9064                   23664872.9804
 114483184.84447  89207752.52445  21785422.5474                   21785431.8204
 112161616.163 8                  21343634.328
 116622292.93447  90874588.17244  22192488.4614                   22192497.6604
 104752214.48048  81625201.43946  19933671.5004                   19933680.7344
 127013010.23646  98971081.71243  24169731.4304                   24169740.7424
 117822952.41747  91810172.98945  22420964.0944                   22420973.8134
 117773294.14047  91771483.98145  22411505.1564                   22411512.6914
 11  7 25  0 11  0.0000000  0  8G10G28G17G09G04G20G27G02
 124265427.39446  96830291.77343  23646923.4534                   23646935.2384
 114532668.99848  89246311.56445  21794839.4304                   21794847.8834
 112192487.138 8                  21349509.438
 116592225.46647  90851158.97544  22186766.2894                   22186776.1294
 104734358.13248  81611287.41246  19930273.7424                   19930282.8634
 127044896.83546  98995928.39143  24175799.3134                   24175808.1994
 117810660.45947  91800594.82145  22418625.0784                   22418635.0044
 117691927.43247  91708081.41945  22396021.7734                   22396029.9414
 11  7 25  0 11 30.0000000  0  8G10G28G17G09G04G20G27G02
 124171194.11746  96756863.37943  23628991.1334                   23629002.5554
 114582524.08447  89285159.64345  21804326.4774                   21804334.9104
 112223457.226 8                  21355402.258
 116562790.84047  90828222.91244  22181164.8524                   22181174.5904
 104717076.28948  81597821.05346  19926985.0704                   19926994.0784
 127077282.45646  99021163.93943  24181960.3134                   24181971.7274
 117798861.70847  91791400.97545  22416379.7344                   22416389.7624
 117610844.16047  91644899.73545  22380591.7194                   22380599.9844
 11  7 25  0 12  0.0000000  0  8G10G28G17G09G04G20G27G02
 124076991.15146  96683458.59243  23611064.5004                   23611076.3134
 114632749.88947  89324296.60745  21813884.5944                   21813892.8984
 112254525.782 8                  21361314.375
 116533989.82747  90805780.56744  22175684.5314                   22175693.7304
 104700368.48648  81584802.00046  19923805.7344                   19923815.0084
 127110166.54446  99046787.85543  24188220.5004                   24188229.6844
 117787555.92347  91782591.24845  22414228.7034                   22414238.2814
 117530045.38348  91581939.72145  22365216.2504                   22365224.2194
 11  7 25  0 12 30.0000000  0  8G10G28G17G09G04G20G27G02
 123982821.65546  96610079.91543  23593144.7894                   23593156.0824
 114683346.82347  89363722.76645  21823512.5164                   21823521.0314
 112285692.435 8                  21367245.477
 116505823.23147  90783832.60144  22170324.4384                   22170334.1254
 104684234.52148  81572230.09246  19920735.4694                   19920744.5434
 127143548.30246  99072799.64543  24194571.6024                   24194580.5394
 117776743.25047  91774165.77545  22412171.1414                   22412180.5084
 117449532.76348  91519202.70845  22349894.7814                   22349902.8054
 11  7 25  0 13  0.0000000  0  8G10G28G17G09G04G20G27G02
 123888689.00446  96536729.93143  23575231.8444                   23575243.8204
 114734314.67447  89403437.94245  21833211.7664                   21833219.9144
 112316956.517 8                  21373194.633
 116478291.35047  90762379.19744  22165085.1644                   22165094.8834
 104668674.27548  81560105.23346  19917774.5084                   19917783.4804
 127177427.61546  99099199.04542  24201019.0704                   24201028.3954
 117766423.41947  91766124.33545  22410207.1564                   22410217.1644
 117369307.32548  91456689.46245  22334629.0314                   22334636.8404
 11  7 25  0 13 30.0000000  0  8G10G28G17G09G04G20G27G02
 123794596.07046  96463410.91344  23557327.3204                   23557338.6214
 114785653.36547  89443442.09345  21842980.8054                   21842990.2114
 112348317.785 8                  21379162.438
 116451394.92347  90741420.96944  22159966.4694                   22159976.3244
 104653687.33348  81548427.11046  19914922.7504                   19914931.3954
 127211803.44446  99125985.33143  24207561.3204                   24207569.7854
 117756596.48747  91758466.97145  22408337.2584                   22408346.8094
 117289370.71448  91394401.26445  22319417.3284                   22319425.2664
 11  7 25  0 14  0.0000000  0  8G10G28G17G09G04G20G27G02
 123700546.21747  96390125.43943  23539429.5634                   23539440.7424
 114837362.89947  89483735.20845  21852821.1024                   21852830.1954
 112379776.007 8                  21385148.930
 116425134.82147  90720958.57344  22154970.1954                   22154979.0394
 104639273.55448  81537195.59646  19912179.4614                   19912188.7584
 127246675.27446  99153158.21243  24214195.5164                   24214205.7894
 117747262.33847  91751193.58745  22406561.0554                   22406570.7384
 117209724.08148  91332339.03345  22304261.0314                   22304269.4304
 11  7 25  0 14 30.0000000  0  8G10G28G17G09G04G20G27G02
 123606542.45747  96316875.87244  23521541.9924                   23521552.1294
 114889443.55047  89524317.51445  21862731.7034                   21862740.7624
 112411330.749 8                  21391153.469
 116399511.73647  90700992.55445  22150094.0004                   22150103.7234
 104625432.68748  81526410.50846  19909545.6254                   19909555.0354
 127282042.40946  99180717.03443  24220925.6484                   24220936.6214
 117738420.92447  91744304.15945  22404878.1414                   22404888.2704
 117130369.01648  91270503.98945  22289160.3834                   22289168.0864
 11  7 25  0 15  0.0000000  0  8G10G28G17G09G04G20G27G02
 123512587.74546  96243664.51444  23503662.3674                   23503673.1214
 114941895.04147  89565188.78045  21872712.5474                   21872721.3094
 112442981.590 8                  21397176.281
 116374526.09647  90681523.25045  22145339.4144                   22145349.1804
 104612164.18048  81516071.42546  19907020.8834                   19907030.1954
 127317904.24346  99208661.26442  24227749.8134                   24227760.9694
 117730071.92747  91737798.42045  22403289.7894                   22403299.3484
 117051306.73748  91208897.07145  22274115.1884                   22274123.2464
 11  7 25  0 15 30.0000000  0  8G10G28G17G09G04G20G27G02
 123418685.56747  96170494.10044  23485793.8674                   23485803.8134
 114994717.80447  89606349.34645  21882764.5944                   21882773.2074
 112474728.502 8                  21403217.547
 116350178.63247  90662551.21645  22140706.1484                   22140715.9264
 104599468.21048  81506178.47946  19904605.1644                   19904614.4414
 127354260.35246  99236990.69443  24234668.1174                   24234679.1644
 117722215.75447  91731676.69445  22401795.0474                   22401804.5204
 116972538.62948  91147519.39945  22259125.7584                   22259134.0234
 11  7 25  0 16  0.0000000  0  8G10G28G17G09G04G20G27G02
 123324838.93946  96097366.95844  23467934.9144                   23467945.7624
 115047911.26347  89647798.77645  21892886.7734                   21892895.9964
 112506570.552 7                  21409276.836
 116326469.54647  90644076.62545  22136194.5004                   22136203.5664
 104587344.10948  81496731.13146  19902297.8914                   19902307.0904
 127391109.75646  99265704.42343  24241680.7274                   24241691.0784
 117714852.16147  91725938.81045  22400393.6954                   22400403.5594
 116894065.97348  91086371.93745  22244193.2274                   22244200.9264
 11  7 25  0 16 30.0000000  0  8G10G28G17G09G04G20G27G02
 123231050.98946  96024285.54244  23450087.3754                   23450098.8244
 115101475.73447  89689537.29045  21903079.9694                   21903089.4414
 112538508.088 8                  21415354.516
 116303399.46447  90626099.94245  22131804.2034                   22131813.8244
 104575791.66448  81487729.23646  19900099.5704                   19900108.8204
 127428451.93146  99294802.25243  24248786.4774                   24248797.6524
 117707981.09947  91720584.71445  22399085.8914                   22399095.8524
 116815890.30548  91025455.90945  22229316.6644                   22229325.1484
 11  7 25  0 17  0.0000000  0  8G10G28G17G09G04G20G27G02
 123137324.65646  95951252.12444  23432251.5394                   23432262.2774
 115155411.21547  89731564.90045  21913343.4924                   21913352.6524
 112570540.724 8                  21421450.008
 116280968.88047  90608621.57345  22127535.7344                   22127545.4774
 104564810.36148  81479172.38746  19898009.8364                   19898019.1454
 127466286.20746  99324283.37743  24255987.3284                   24255996.8244
 117701602.12747  91715614.06745  22397872.2114                   22397882.1644
 116738012.87348  90964772.25745  22214497.2894                   22214504.9344
 11  7 25  0 17 30.0000000  0  8G10G28G17G09G04G20G27G02
 123043663.49746  95878269.54843  23414427.8524                   23414440.1914
 115209717.45547  89773881.42845  21923677.6334                   21923686.4804
 112602667.519 8                  21427563.648
 116259178.24847  90591641.87845  22123389.5394                   22123399.1094
 104554399.79448  81471060.26246  19896028.8834                   19896037.7894
 127504611.35846  99354147.16643  24263280.0084                   24263290.2424
 117695715.12047  91711026.77045  22396752.2504                   22396761.7114
 116660434.83848  90904321.91545  22199734.2734                   22199741.9224
 11  7 25  0 18  0.0000000  0  8G10G28G17G09G04G20G27G02
 122950070.58746  95805340.08844  23396617.7734                   23396630.4844
 115264394.21147  89816486.66445  21934082.4064                   21934091.0474
 112634888.511 8                  21433695.289
 116238027.85047  90575161.04645  22119364.9304                   22119374.0704
 104544559.37648  81463392.41146  19894155.9454                   19894165.4694
 127543427.06046  99384393.20043  24270665.6564                   24270676.1054
 117690319.82847  91706822.62945  22395725.4064                   22395735.5234
 116583157.32848  90844105.73845  22185029.2894                   22185036.8634
 11  7 25  0 18 30.0000000  0  8G10G28G17G09G04G20G27G02
 122856549.32046  95732466.48343  23378820.8204                   23378832.4104
 115319441.51947  89859380.63745  21944557.2194                   21944566.4304
 112667203.805 8                  21439844.453
 116217518.08447  90559179.40945  22115461.7814                   22115471.1644
 104535289.01448  81456168.74846  19892391.8594                   19892401.2154
 127582732.41746  99415020.74343  24278145.2504                   24278156.2304
 117685416.20647  91703001.62445  22394792.0164                   22394801.9964
 116506181.97148  90784125.01745  22170380.7114                   22170388.6644
 11  7 25  0 19  0.0000000  0  8G10G28G17G09G04G20G27G02
 122763102.57246  95659650.97943  23361039.5784                   23361050.5394
 115374859.47547  89902563.41545  21955103.4384                   21955111.9534
 112699612.652 8                  21446011.914
 116197649.37747  90543697.29845  22111681.1174                   22111690.6564
 104526587.79948  81449388.58146  19890736.2664                   19890745.2974
 127622526.57046  99446029.12543  24285718.3444                   24285728.5664
 117681003.64747  91699563.25145  22393952.4614                   22393962.2464
 116429509.75948  90724380.50045  22155790.5944                   22155798.4264
 11  7 25  0 19 30.0000000  0  8G10G28G17G09G04G20G27G02
 122669733.84546  95586896.22344  23343271.9064                   23343283.4224
 115430647.85447  89946034.83545  21965719.4694                   21965728.5944
 112732115.314 8                  21452196.734
 116178422.28247  90528715.13545  22108022.0314                   22108031.7074
 104518455.67948  81443051.86346  19889188.8524                   19889197.9964
 127662808.71646  99477417.79543  24293383.9844                   24293393.8244
 117677082.28547  91696507.63745  22393205.9384                   22393215.8364
 116353141.93548  90664873.18545  22141258.1564                   22141266.1524
 11  7 25  0 20  0.0000000  0  8G10G28G17G09G04G20G27G02
 122576446.32947  95514204.71744  23325519.9454                   23325530.5824
 115486806.53147  89989794.82145  21976406.5474                   21976415.1334
 112764711.172 7                  21458399.953
 116159836.83247  90514232.96245  22104485.5234                   22104495.2894
 104510892.06448  81437158.14046  19887749.4144                   19887758.5704
 127703578.00946  99509186.01743  24301142.0944                   24301152.4734
 117673651.55447  91693834.31845  22392553.3444                   22392563.0864
 116277080.09248  90605604.28445  22126784.1484                   22126791.7194
 11  7 25  0 20 30.0000000  0  8G10G28G17G09G04G20G27G02
 122483242.90747  95441578.79244  23307783.3364                   23307794.5824
 115543335.13047  90033843.05245  21987163.5164                   21987171.8404
 112797399.636 8                  21464619.719
 116141893.14247  90500250.85645  22101070.5004                   22101080.3674
 104503896.09248  81431706.73746  19886418.1174                   19886427.0004
 127744833.40846  99541333.11543  24308992.8594                   24309002.3014
 117670710.86347  91691542.85945  22391993.9454                   22392003.8444
 116201325.45348  90546574.76745  22112368.8444                   22112376.3134
 11  7 25  0 21  0.0000000  0  8G10G28G17G09G04G20G27G02
 122390127.05146  95369021.11544  23290063.8444                   23290076.1564
 115600233.33447  90078179.29245  21997990.6804                   21997999.3674
 112830180.742 8                  21470857.922
 116124591.34947  90486768.92345  22097778.7504                   22097788.1844
 104497467.08248  81426697.12846  19885194.5164                   19885203.5274
 127786574.01946  99573858.22943  24316934.6724                   24316946.2664
 117668260.04547  91689633.11745  22391527.4064                   22391537.3954
 116125878.94048  90487785.36045  22098011.4224                   22098019.1844
 11  7 25  0 21 30.0000000  0  8G10G28G17G09G04G20G27G02
 122297101.81146  95296533.99644  23272361.1804                   23272373.2034
 115657501.04147  90122803.43445  22008888.4614                   22008897.1174
 112863053.763 7                  21477113.602
 116107931.72947  90473787.38545  22094608.1724                   22094617.5864
 104491604.46848  81422128.86146  19884079.1414                   19884088.1724
 127828799.07446  99606760.88143  24324971.5474                   24324980.7734
 117666298.76547  91688104.82845  22391154.1644                   22391163.9264
 116050741.29748  90429236.60545  22083712.9774                   22083720.9574
 11  7 25  0 22  0.0000000  0  8G10G28G17G09G04G20G27G02
 122204170.52346  95224120.09843  23254677.4384                   23254688.1134
 115715138.33047  90167715.57345  22019856.3984                   22019865.1094
 112896019.032 7                  21483386.805
 116091914.52447  90461306.42145  22091560.0314                   22091570.1804
 104486307.89548  81418001.67046  19883071.1804                   19883080.1294
 127871507.81346  99640040.43843  24333098.0234                   24333107.9104
 117664826.75247  91686957.78845  22390873.9304                   22390884.1684
 115975914.41148  90370930.01045  22069473.5004                   22069481.8594
 11  7 25  0 22 30.0000000  0  8G10G28G17G09G04G20G27G02
 122111336.39946  95151781.93143  23237010.9924                   23237022.6564
 115773144.85447  90212915.43045  22030894.5164                   22030903.5434
 112929076.393 7                  21489677.141
 116076539.99947  90449326.25945  22088634.5474                   22088644.4414
 104481576.61648  81414314.96646  19882170.8444                   19882179.8164
 127914698.85446  99673695.79443  24341316.6024                   24341328.0744
 117663843.70947  91686191.76345  22390687.4224                   22390697.1994
 115901399.47048  90312866.47845  22055294.2424                   22055301.7384
 11  7 25  0 23  0.0000000  0  8G10G28G17G09G04G20G27G02
 122018602.91946  95079522.16544  23219365.1174                   23219376.7544
 115831520.53447  90258402.93645  22042003.2424                   22042011.8754
 112962225.899 7                  21495985.203
 116061808.27847  90437846.99145  22085831.4304                   22085840.9924
 104477410.23748  81411068.44846  19881378.1094                   19881387.6454
 127958371.55646  99707726.42243  24349628.0004                   24349637.4614
 117663349.08247  91685806.31145  22390593.1024                   22390602.7774
 115827197.78648  90255047.04845  22041173.7814                   22041181.5124
 11  7 25  0 23 30.0000000  0  8G10G28G17G09G04G20G27G02
 121925973.15446  95007343.17344  23201737.7664                   23201749.9654
 115890264.85847  90304177.70245  22053181.9774                   22053190.9494
 112995466.977 7                  21502310.867
 116047719.30547  90426868.56045  22083150.2194                   22083160.1804
 104473807.70748  81408261.28646  19880692.7424                   19880701.7894
 128002524.80747  99742131.53843  24358030.5394                   24358039.5204
 117663342.32747  91685801.01745  22390591.9844                   22390601.4614
 115753310.08248  90197472.26245  22027113.5784                   22027121.4264
 11  7 25  0 24  0.0000000  0  8G10G28G17G09G04G20G27G02
 121833450.16046  94935247.42444  23184131.4924                   23184142.0744
 115949377.52647  90350239.49945  22064430.9614                   22064439.5124
 113028799.025 7                  21508653.930
 116034272.99047  90416390.89545  22080591.7424                   22080601.0744
 104470768.38448  81405892.99246  19880114.2274                   19880123.2464
 128047157.71846  99776910.46243  24366523.1564                   24366532.9454
 117663822.96547  91686175.50845  22390683.5864                   22390693.4654
 115679737.78148  90140143.25545  22013113.0704                   22013120.7274
 11  7 25  0 24 30.0000000  0  9G10G28G12G17G09G04G20G27G02
 121741037.87046  94863238.01844  23166544.8914                   23166556.8364
 116008859.06647  90396588.70645  22075749.7034                   22075758.8284
 129537123.02917                  24650099.492
 113062222.691 7                  21515014.086
 116021469.92247  90406414.45345  22078155.2274                   22078165.2074
 104468292.06448  81403963.39946  19879643.2034                   19879652.3634
 128092269.51946  99812062.46243  24375108.4694                   24375118.1994
 117664791.14847  91686929.91145  22390867.5944                   22390877.6094
 115606482.60048  90083061.34945  21999172.9384                   21999180.8324
 11  7 25  0 25  0.0000000  0  9G10G28G12G17G09G04G20G27G02
 121648739.71246  94791317.49644  23148981.3364                   23148993.1804
 116068709.41547  90443225.30145  22087138.3834                   22087148.4384
 129440263.211 6                  24631667.844
 113095737.934 7                  21521391.742
 116009310.30347  90396939.40745  22075841.2504                   22075850.6994
 104466378.23848  81402472.11046  19879278.9454                   19879288.3754
 128137859.32846  99847587.02043  24383783.5164                   24383792.9414
 117666246.59047  91688063.98245  22391144.3364                   22391154.5004
 115533545.71448  90026227.47145  21985293.7424                   21985301.2344
 11  7 25  0 25 30.0000000  0  9G10G28G12G17G09G04G20G27G02
 121556558.29946  94719487.91744  23131440.2974                   23131451.8014
 116128927.21347  90490148.22045  22098597.6254                   22098607.2974
 129343381.965 7                  24613232.031
 113129344.081 7                  21527787.344
 115997793.55247  90387965.29445  22073649.9454                   22073659.2464
 104465025.54248  81401418.06946  19879021.3914                   19879030.6764
 128183925.55646  99883482.83442  24392548.3674                   24392558.5634
 117668188.03247  91689576.75645  22391513.4844                   22391523.8014
 115460927.68447  89969642.03945  21971474.8134                   21971482.6294
 11  7 25  0 26  0.0000000  0  9G10G28G12G17G09G04G20G27G02
 121464496.39546  94647751.44044  23113921.3204                   23113932.3794
 116189511.94247  90537357.06645  22110126.4304                   22110135.9144
 129246480.623 7                  24594792.258
 113163040.256 8                  21534199.352
 115986919.11347  90379491.67645  22071580.1414                   22071590.1884
 104464232.40548  81400800.05246  19878870.4614                   19878879.5394
 128230466.97746  99919748.86343  24401405.7584                   24401415.5234
 117670614.59947  91691467.55645  22391975.4774                   22391985.9844
 115388628.88748  89913305.36345  21957717.1094                   21957724.6094
 11  7 25  0 26 30.0000000  0  9G10G28G12G17G09G04G20G27G02
 121372557.55146  94576110.88244  23096426.5234                   23096435.7774
 116250463.44147  90584851.68745  22121725.6254                   22121734.9224
 129149560.798 7                  24576348.781
 113196826.534 7                  21540628.617
 115976687.05547  90371518.61645  22069633.3594                   22069643.2304
 104463998.28348  81400617.62846  19878826.0234                   19878834.8244
 128277482.19746  99956384.10242  24410352.3754                   24410362.3054
 117673525.87247  91693736.03945  22392529.9774                   22392540.1994
 115316651.01048  89857218.75845  21944020.0474                   21944027.7774
 11  7 25  0 27  0.0000000  0  9G10G28G12G17G09G04G20G27G02
 121280745.23646  94504568.93143  23078954.5164                   23078965.2384
 116311781.36747  90632631.85445  22133394.0784                   22133402.6214
 129052624.264 7                  24557902.453
 113230703.574 7                  21547075.406
 115967097.28947  90364046.06145  22067808.2894                   22067818.3324
 104464322.63448  81400870.37646  19878887.4064                   19878896.6954
 128324970.53446  99993387.99842  24419389.0864                   24419398.6174
 117676921.34147  91696381.81845  22393176.1174                   22393186.1094
 115244995.33948  89801383.22645  21930384.1884                   21930391.8674
 11  7 25  0 27 30.0000000  0  9G10G28G12G17G09G04G20G27G02
 121189062.86246  94433128.19844  23061507.4304                   23061519.0944
 116373465.31847  90680697.21545  22145132.3984                   22145141.1484
 128955672.830 6                  24539453.688
 113264670.333 7                  21553538.938
 115958149.40147  90357073.65245  22066106.1564                   22066115.8284
 104465204.40648  81401557.47946  19879055.3834                   19879064.3094
 128372930.39046 100030759.30842  24428514.9694                   24428526.3984
 117680800.24147  91699404.30645  22393914.2034                   22393923.9804
 115173662.83148  89745799.50846  21916810.2584                   21916818.0354
 11  7 25  0 28  0.0000000  0  9G10G28G12G17G09G04G20G27G02
 121097513.34346  94361790.98244  23044087.1254                   23044097.9454
 116435514.91247  90729047.50145  22156939.6414                   22156948.3674
 128858708.123 7                  24521002.023
 113298726.668 7                  21560019.734
 115949843.31347  90350601.34845  22064525.4064                   22064535.2934
 104466642.55248  81402678.12046  19879329.2114                   19879338.3594
 128421360.62246 100068497.11942  24437731.2114                   24437741.9024
 117685161.95847  91702803.01745  22394744.1174                   22394754.0004
 115102654.12848  89690468.10945  21903297.3984                   21903305.2074
 11  7 25  0 28 30.0000000  0  9G10G28G12G17G09G04G20G27G02
 121006099.99447  94290559.87444  23026691.1564                   23026701.9224
 116497929.87047  90777682.48745  22168817.0864                   22168825.8054
 128761731.995 7                  24502547.891
 113332872.702 7                  21566517.148
 115942178.92247  90344629.06245  22063066.3674                   22063076.4104
 104468636.45548  81404231.82946  19879708.6024                   19879717.4844
 128470260.562 5                  24447036.242
 117690005.82647  91706577.43245  22395665.6564                   22395675.7894
 115031970.68248  89635390.16145  21889847.0554                   21889854.3284
 11  7 25  0 29  0.0000000  0  9G10G28G12G17G09G04G20G27G02
 120914826.21647  94219437.52344  23009322.4924                   23009332.9264
 116560709.64047  90826601.75645  22180763.7664                   22180771.8834
 128664746.012 6                  24484091.891
 113367108.316 7                  21573032.234
 115935155.90847  90339156.56345  22061730.3594                   22061739.8634
 104471185.01148  81406217.72146  19880193.2194                   19880202.1644
 128519628.462 5                  24456430.945
 117695331.16147  91710727.01945  22396679.2344                   22396689.2584
 114961613.46148  89580566.39845  21876458.3524                   21876465.8324
 11  7 25  0 29 30.0000000  0  9G10G28G12G17G09G04G20G27G02
 120823695.20947  94148426.41644  22991980.4924                   22991991.1254
 116623854.03747  90875805.14045  22192779.8674                   22192788.6174
 128567752.002 6                  24465634.547
 113401433.335 7                  21579564.148
 115928773.88147  90334183.53045  22060515.8754                   22060525.7624
 104474287.49748  81408635.25946  19880783.6884                   19880792.6994
 128569463.63455 100183862.91152  24465912.8674                   24465923.8714
 117701137.47547  91715251.41045  22397784.2034                   22397794.0944
 114891583.36048  89525997.55245  21863131.9534                   21863139.4494
 11  7 25  0 30  0.0000000  0  9G10G28G12G17G09G04G20G27G02
 120732710.69747  94077529.46544  22974666.8364                   22974677.8554
 116687362.55747  90925292.26545  22204865.3754                   22204874.3874
 128470751.461 6                  24447175.352
 113435848.158 7                  21586113.031
 115923032.70447  90329709.87445  22059423.4454                   22059433.2894
 104477942.86748  81411483.60846  19881479.4224                   19881488.2544
 128619764.36546 100223058.34052  24475486.3444                   24475497.0984
 117707424.07047  91720150.04945  22398980.0314                   22398990.2934
 114821882.14048  89471684.95246  21849868.0784                   21849875.3714
 11  7 25  0 30 30.0000000  0  9G10G28G12G17G09G04G20G27G02
 120641875.51347  94006748.86244  22957381.4924                   22957392.4304
 116751234.65647  90975062.69545  22217019.8754                   22217028.4614
 128373745.894 6                  24428715.641
 113470351.818 7                  21592678.836
 115917931.76347  90325735.12045  22058453.1884                   22058462.6644
 104482149.77448  81414761.73346  19882280.1094                   19882289.1024
 128670529.40645 100262615.47642  24485146.9694                   24485157.4804
 117714189.83547  91725422.06745  22400267.4064                   22400277.8594
 114752510.03348  89417628.82446  21836667.2974                   21836674.8324
 11  7 25  0 31  0.0000000  0  9G10G28G12G17G09G04G20G27G02
 120551193.09247  93936087.30744  22940125.0314                   22940136.2854
 116815469.61547  91025115.87545  22229243.2274                   22229252.3134
 128276737.379 6                  24410256.391
 113504944.566 7                  21599261.852
 115913470.67747  90322258.94445  22057603.7194                   22057613.2854
 104486907.31848  81418468.92446  19883185.5084                   19883194.1214
 128721757.58146 100302533.53842  24494896.3594                   24494904.4964
 117721434.25947  91731067.07745  22401646.1334                   22401656.7854
 114683468.10648  89363829.97346  21823529.0944                   21823536.1564
 11  7 25  0 31 30.0000000  0  9G10G28G12G17G09G04G20G27G02
 120460666.97547  93865547.52544  22922898.2894                   22922910.2384
 116880067.34447  91075451.74145  22241535.6564                   22241544.3524
 128179727.587 6                  24391795.266
 113539626.508 7                  21605861.508
 115909649.22247  90319281.18445  22056876.3134                   22056886.3054
 104492214.75548  81422604.60046  19884195.3834                   19884204.0274
 128773447.71346 100342811.55643  24504731.8914                   24504741.0004
 117729156.62147  91737084.50445  22403115.9384                   22403125.9844
 114614757.27048  89310289.10846  21810453.7584                   21810460.7464
 11  7 25  0 32  0.0000000  0  9G10G28G12G17G09G04G20G27G02
 120370300.31147  93795132.06844  22905702.0394                   22905713.2234
 116945027.34047  91126069.90445  22253897.2584                   22253905.3164
 128082718.135 6                  24373334.578
 113574397.457 7                  21612478.086
 115906466.77747  90316801.36245  22056271.0784                   22056280.6914
 104498070.97348  81427167.90646  19885309.6564                   19885318.3094
 128825598.39846 100383448.42243  24514656.3984                   24514666.5314
 117737355.93047  91743473.59745  22404676.4614                   22404686.3594
 114546378.90248  89257007.31946  21797441.6564                   21797448.8794
 11  7 25  0 32 30.0000000  0  9G10G28G12G17G09G04G20G27G02
 120280096.23847  93724843.26244  22888536.6334                   22888548.1994
 117010348.68047  91176969.61545  22266327.4844                   22266335.8674
 127985710.840 6                  24354874.859
 113609257.199 7                  21619111.547
 115903922.98347  90314819.19345  22055787.0554                   22055796.7154
 104504474.61148  81432157.76546  19886528.0704                   19886537.0234
 128878208.31446 100424443.19543  24524667.5634                   24524676.4844
 117746031.42347  91750233.73545  22406327.2274                   22406337.1454
 114478334.04348  89203985.40746  21784493.0634                   21784500.4414
 11  7 25  0 33  0.0000000  0  9G10G28G12G17G09G04G20G27G02
 120190058.14347  93654683.81044  22871402.8674                   22871414.1644
 117076030.89347  91228150.51945  22278826.2504                   22278834.8714
 127888707.624 6                  24336415.609
 113644205.838 7                  21625762.422
 115902017.49547  90313334.40445  22055424.0394                   22055433.6094
 104511424.58648  81437573.34046  19887850.7114                   19887859.6724
 128931276.00647 100465794.63943  24534765.9144                   24534775.1024
 117755182.28447  91757364.29445  22408068.5864                   22408078.7344
 114410623.31848  89151223.84946  21771607.7584                   21771615.2424
 11  7 25  0 33 30.0000000  0  9G10G28G12G17G09G04G20G27G02
 120100189.48147  93584656.34344  22854301.4224                   22854312.4774
 117142073.86947  91279612.53745  22291393.8524                   22291403.0594
 127791710.136 7                  24317957.086
 113679243.243 8                  21632429.391
 115900749.63747  90312346.46645  22055183.0864                   22055192.8244
 104518920.03248  81443413.96046  19889276.9304                   19889285.6334
 128984800.29347 100507501.89243  24544951.0784                   24544960.9064
 117764807.77847  91764864.69445  22409900.3524                   22409909.9264
 114343247.76748  89098723.46246  21758786.7274                   21758794.3014
 11  7 25  0 34  0.0000000  0  9G10G28G12G17G09G04G20G27G02
 120010493.36947  93514763.33344  22837232.5634                   22837243.8014
 117208476.59847  91331354.88445  22304030.0944                   22304039.3794
 127694720.274 7                  24299500.313
 113714368.977 8                  21639113.922
 115900118.57347  90311854.74345  22055062.6804                   22055072.8284
 104526959.49348  81449678.48846  19890806.7274                   19890815.7194
 129038779.54646 100549563.61743  24555222.9924                   24555232.8754
 117774906.80347  91772734.07745  22411821.9534                   22411831.9454
 114276208.30048  89046484.97946  21746029.5634                   21746037.2234
 11  7 25  0 34 30.0000000  0  9G10G28G12G17G09G04G20G27G02
 119920973.47747  93445007.66044  22820197.8674                   22820208.6334
 117275238.94347  91383377.47745  22316734.6254                   22316744.2814
 127597739.639 7                  24281045.992
 113749583.557 8                  21645815.172
 115900124.08847  90311859.04645  22055063.8594                   22055073.3164
 104535542.09448  81456366.23646  19892440.3054                   19892449.0984
 129093212.55746 100591978.92943  24565581.1954                   24565591.4264
 117785478.53047  91780971.78645  22413833.6484                   22413843.1644
 114209505.98448  88994509.19646  21733336.6174                   21733343.9064
 11  7 25  0 35  0.0000000  0  9G10G28G12G17G09G04G20G27G02
 119831633.17747  93375391.90644  22803196.2974                   22803207.7114
 117342360.13547  91435679.67345  22329507.5634                   22329516.8634
 127500770.185 6                  24262593.430
 113784887.264 8                  21652533.141
 115900765.36247  90312358.72645  22055186.1954                   22055195.7504
 104544666.67548  81463476.30946  19894176.3134                   19894184.9884
 129148097.94746 100634746.82043  24576025.9304                   24576034.8404
 117796522.34547  91789577.35945  22415934.9694                   22415945.1684
 114143141.77748  88942796.87846  21720707.7974                   21720715.6604
 11  7 25  0 35 30.0000000  0  8G10G28G12G17G09G04G27G02
 119742477.08147  93305919.69744  22786231.2814                   22786241.8094
 117409840.88747  91488262.05445  22342348.3054                   22342358.1564
 127403815.134 6                  24244143.719
 113820280.940 8                  21659268.203
 115902043.11547  90313354.36645  22055429.2194                   22055438.9734
 104554333.32548  81471008.77246  19896016.1414                   19896024.5554
 117808038.33747  91798550.86845  22418127.0944                   22418136.5204
 114077117.88248  88891349.75246  21708143.6414                   21708151.2624
 11  7 25  0 36  0.0000000  0  8G10G28G12G17G09G04G27G02
 119653506.70747  93236592.21244  22769300.8674                   22769311.1994
 117477678.89647  91541122.80745  22355257.5634                   22355267.4224
 127306874.758 6                  24225696.164
 113855762.803 8                  21666020.313
 115903955.07747  90314844.21345  22055792.7194                   22055802.8244
 104564539.17748  81478961.38746  19897957.8524                   19897966.6294
 117820024.14547  91807890.45345  22420407.6174                   22420416.8794
 114011433.60648  88840167.24546  21695644.2504                   21695652.0274
 11  7 25  0 36 30.0000000  0  8G10G28G12G17G09G04G27G02
 119564725.53847  93167412.11644  22752406.1644                   22752415.9734
 117545873.54547  91594261.43245  22368234.8834                   22368243.9024
 127209950.973 7                  24207252.383
 113891332.988 8                  21672789.000
 115906500.27847  90316827.47745  22056277.3284                   22056287.5044
 104575283.02348  81487333.21946  19900002.6414                   19900011.5514
 117832478.58647  91817595.20445  22422777.6644                   22422787.5904
 113946089.54048  88789249.85546  21683209.8134                   21683217.3524
 11  7 25  0 37  0.0000000  0  8G10G28G12G17G09G04G27G02
 119476136.71247  93098381.89944  22735548.0944                   22735557.9734
 117614424.30247  91647677.56445  22381279.4064                   22381287.5634
 127113045.251 6                  24188811.516
 113926991.308 8                  21679574.789
 115909678.30047  90319303.84945  22056881.6724                   22056891.6884
 104586563.38348  81496123.11246  19902149.0554                   19902157.9104
 117845400.69147  91827664.37245  22425237.0234                   22425246.4224
 113881086.64148  88738598.30646  21670840.0314                   21670847.7154
 11  7 25  0 37 30.0000000  0  8G10G28G12G17G09G04G27G02
 119387743.89947  93029504.43544  22718727.2814                   22718736.8954
 117683330.59947  91701370.74144  22394391.7194                   22394400.2274
 127016159.824 6                  24170374.398
 113962738.165 8                  21686377.031
 115913488.02847  90322272.46645  22057607.1094                   22057616.8954
 104598379.32648  81505330.34246  19904397.3754                   19904406.2934
 117858789.32047  91838097.04345  22427783.7974                   22427794.4964
 113816426.06948  88688213.50346  21658535.4454                   21658543.1604
 11  7 25  0 38  0.0000000  0  8G10G28G12G17G09G04G27G02
 119299550.25747  92960782.17444  22701944.4304                   22701955.0514
 117752591.73847  91755340.41944  22407571.5164                   22407579.7934
 126919296.755 6                  24151941.922
 113998573.583 8                  21693196.023
 115917929.08347  90325733.00945  22058451.9144                   22058461.7774
 104610729.54248  81514953.89946  19906747.5944                   19906756.5784
 117872643.65347  91848892.62045  22430420.7504                   22430430.9184
 113752108.71248  88638096.14446  21646296.2894                   21646304.0594
 11  7 25  0 38 30.0000000  0  8G10G28G12G17G09G04G27G02
 119211558.99347  92892217.61744  22685200.3594                   22685210.6884
 117822207.05747  91809586.07444  22420819.3754                   22420828.3444
 126822457.601 6                  24133514.102
 114034497.520 8                  21700032.313
 115923000.30247  90329684.60345  22059417.2194                   22059426.8164
 104623612.45848  81524992.53046  19909199.3284                   19909208.2704
 117886962.47547  91860050.12345  22433145.6094                   22433155.3134
 113688135.16748  88588246.68646  21634122.7194                   21634129.9494
 11  7 25  0 39  0.0000000  0  8G10G28G12G17G09G04G27G02
 119123773.58147  92823813.44644  22668495.2034                   22668505.7584
 117892175.54547  91864106.91644  22434133.7194                   22434142.9884
 126725644.233 6                  24115090.977
 114070509.913 8                  21706884.828
 115928700.95047  90334126.65945  22060502.1024                   22060511.6564
 104637026.70748  81535445.19246  19911751.7664                   19911760.4804
 117901744.62947  91871568.66745  22435958.4614                   22435968.6374
 113624506.16848  88538665.70746  21622014.4534                   21622021.3204
 11  7 25  0 39 30.0000000  0  8G10G28G12G17G09G04G27G02
 119036197.60047  92755572.48644  22651830.2734                   22651840.7154
 117962496.65347  91918902.53344  22447515.6724                   22447524.6484
 126628858.693 6                  24096674.227
 114106610.554 8                  21713754.813
 115935030.14147  90339058.49945  22061706.0704                   22061716.0514
 104650971.18048  81546311.02146  19914405.5864                   19914414.2544
 117916989.13747  91883447.47945  22438859.7424                   22438869.5354
 113561222.45048  88489353.77246  21609972.0084                   21609979.1604
 11  7 25  0 40  0.0000000  0  8G10G28G12G17G09G04G27G02
 118948834.19647  92687497.14344  22635205.7504                   22635215.6334
 118033169.60547  91973972.33044  22460964.2114                   22460973.7504
 126532103.044 6                  24078262.258
 114142799.753 8                  21720641.781
 115941987.03947  90344479.45445  22063030.0864                   22063040.2384
 104665444.57148  81557588.98746  19917159.3594                   19917168.7624
 117932695.04247  91895685.82545  22441848.2504                   22441857.7074
 113498285.24248  88440311.85246  21597995.5394                   21598002.5824
 11  7 25  0 40 30.0000000  0  8G10G28G12G17G09G04G27G02
 118861686.79947  92619590.14245  22618621.5004                   22618632.4104
 118104193.81347  92029315.83844  22474479.8594                   22474488.9654
 126435378.777 6                  24059855.688
 114179077.458 7                  21727545.258
 115949570.31147  90350388.50245  22064473.4064                   22064483.2624
 104680445.27548  81569277.85546  19920014.0864                   19920023.1174
 117948860.86847  91908282.55145  22444924.5474                   22444934.2774
 113435694.90548  88391540.20746  21586084.5394                   21586091.6214
 11  7 25  0 41  0.0000000  0  8G10G28G12G17G09G04G27G02
 118774758.89747  92551854.16645  22602079.3134                   22602090.2704
 118175568.38247  92084932.34944  22488061.6414                   22488070.9694
 126338688.307 7                  24041456.055
 114215443.679 8                  21734465.195
 115957779.03147  90356784.92345  22066035.4384                   22066045.2194
 104695972.01648  81581376.61846  19922968.8914                   19922977.6484
 117965485.59247  91921236.84745  22448088.1484                   22448098.3094
 113373452.31448  88343039.53246  21574240.2734                   21574247.5084
 11  7 25  0 41 30.0000000  0  8G10G28G12G17G09G04G27G02
 118688053.60947  92484291.67345  22585580.2814                   22585591.1414
 118247292.49647  92140821.21644  22501710.6174                   22501719.0634
 126242033.429 7                  24023063.023
 114251898.604 7                  21741402.477
 115966612.67547  90363668.28945  22067716.5394                   22067725.8984
 104712023.38548  81593884.17846  19926023.2584                   19926032.0394
 117982568.23147  91934547.96745  22451338.9384                   22451349.0784
 113311558.49548  88294810.63346  21562462.0474                   21562469.3364
 11  7 25  0 42  0.0000000  0  8G10G28G12G17G09G04G27G02
 118601574.20447  92416905.20345  22569123.8594                   22569134.4144
 118319365.29747  92196981.78645  22515425.6564                   22515434.2774
 126145415.757 7                  24004677.664
 114288442.204 8                  21748356.547
 115976069.87047  90371037.55245  22069515.5234                   22069525.5354
 104728597.47748  81606799.06146  19929176.9454                   19929185.8164
 118000107.41947  91948214.84545  22454676.5634                   22454686.3594
 113250014.01148  88246853.92746  21550750.5784                   21550758.2234
 11  7 25  0 42 30.0000000  0  8G10G28G12G17G09G04G27G02
 118515324.31647  92349697.57344  22552710.4694                   22552721.2194
 118391786.21247  92253413.60744  22529206.9304                   22529215.9774
 126048837.593 7                  23986299.078
 114325074.808 7                  21755327.477
 115986149.52747  90378891.84045  22071433.6884                   22071443.4064
 104745693.43348  81620120.59046  19932430.2814                   19932439.4614
 118018101.94647  91962236.52245  22458100.5784                   22458110.5664
 113188819.46648  88199169.90546  21539105.6884                   21539113.1214
 11  7 25  0 43  0.0000000  0  8G10G28G12G17G09G04G27G02
 118429306.83147  92282671.02844  22536341.9384                   22536352.1604
 118464554.42847  92310116.04745  22543055.0944                   22543064.0084
 125952300.723 7                  23967928.539
 114361796.267 8                  21762315.578
 115996850.29847  90387230.10045  22073470.2664                   22073479.5084
 104763309.23248  81633847.19346  19935782.5784                   19935791.3834
 118036550.36647  91976611.88945  22461611.3984                   22461621.0744
 113127975.76848  88151759.26046  21527527.7274                   21527534.8284
 11  7 25  0 43 30.0000000  0  8G10G28G12G17G09G04G27G02
 118343525.50347  92215828.49644  22520018.2894                   22520028.2424
 118537669.03947  92367088.42544  22556968.1724                   22556977.3714
 125855807.431 7                  23949566.891
 114398606.964 8                  21769320.148
 116008171.61447  90396051.91645  22075624.7894                   22075634.4144
 104781444.08448  81647978.24346  19939233.1724                   19939242.3524
 118055451.97547  91991340.38245  22465207.9614                   22465218.3284
 113067483.80348  88104622.70046  21516016.4454                   21516023.5634
 11  7 25  0 44  0.0000000  0  8G10G28G12G17G09G04G27G02
 118257983.47247  92149172.43844  22503740.5704                   22503750.9694
 118611129.08747  92424329.99044  22570946.3284                   22570955.8054
 125759359.365 7                  23931213.563
 114435506.366 8                  21776341.750
 116020111.77647  90405355.94645  22077896.6174                   22077906.2304
 104800095.80048  81662512.04646  19942782.7664                   19942791.9384
 118074804.89847  92006420.54045  22468890.9844                   22468900.6174
 113007343.50448  88057760.16746  21504571.9384                   21504579.1644
 11  7 25  0 44 30.0000000  0  8G10G28G12G17G09G04G27G02
 118172684.00447  92082705.39444  22487508.5784                   22487519.2664
 118684933.53547  92481839.91244  22584991.3284                   22585001.0274
 125662958.781 7                  23912869.125
 114472494.729 8                  21783380.539
 116032669.58247  90415141.25545  22080286.8054                   22080296.0744
 104819262.95248  81677447.49146  19946430.1484                   19946439.1094
 118094607.87247  92021851.38545  22472659.3054                   22472669.2344
 112947555.93948  88011172.48646  21493194.3984                   21493201.9104
 11  7 25  0 45  0.0000000  0  8G10G28G12G17G09G04G27G02
 118087630.71047  92016430.16944  22471322.9144                   22471333.8594
 118759082.01247  92539617.90644  22599101.0084                   22599110.6094
 125566607.551 7                  23894533.820
 114509572.426 8                  21790436.320
 116045844.10948  90425407.12545  22082793.6024                   22082803.2854
 104838944.33948  81692783.63846  19950175.5004                   19950184.8754
 118114860.06747  92037632.27745  22476513.3914                   22476523.1644
 112888122.12748  87964860.45046  21481884.8054                   21481891.9964
 11  7 25  0 45 30.0000000  0  8G10G28G12G17G09G04G27G02
 118002826.89247  91950349.35544  22455185.6094                   22455195.7304
 118833573.12647  92597662.85144  22613276.5474                   22613285.3134
 125470307.685 7                  23876208.094
 114546739.393 8                  21797508.859
 116059633.50748  90436152.10945  22085417.7114                   22085427.3444
 104859138.00948  81708518.96646  19954018.4384                   19954027.1914
 118135559.67547  92053761.77945  22480451.9064                   22480462.7194
 112829042.24348  87918824.20646  21470642.2194                   21470649.2854
 11  7 25  0 46  0.0000000  0  8G10G28G12G17G09G04G27G02
 117918275.92947  91884465.54744  22439096.1884                   22439106.0554
 118908406.49947  92655974.48544  22627516.2194                   22627526.1644
 125374061.173 6                  23857892.750
 114583996.208 8                  21804598.836
 116074037.12847  90447375.70945  22088158.1484                   22088168.0984
 104879842.80448  81724652.57546  19957958.1884                   19957967.6094
 118156705.77347  92070239.19545  22484476.3054                   22484486.6954
 112770317.48748  87873064.68246  21459467.2664                   21459474.3594
 11  7 25  0 46 30.0000000  0  8G10G28G12G17G09G04G27G02
 117833981.22447  91818781.39644  22423055.4384                   22423064.7814
 118983580.79047  92714551.75944  22641821.9614                   22641831.8054
 125277870.029 6                  23839588.258
 114621342.373 8                  21811705.359
 116089053.56447  90459076.81845  22091016.0864                   22091026.1134
 104901056.74748  81741182.92146  19961995.1564                   19962004.3054
 118178296.62947  92087063.19445  22488585.2974                   22488595.2894
 112711948.14148  87827582.11046  21448359.6414                   21448367.2074
 11  7 25  0 47  0.0000000  0  8G10G28G12G17G09G04G27G02
 117749945.78547  91753299.29644  22407063.7424                   22407073.4454
 119059095.10047  92773394.01644  22656192.7194                   22656201.4494
 125181736.259 6                  23821294.258
 114658778.066 8                  21818829.078
 116104681.32347  90471254.29245  22093989.7424                   22093999.5634
 104922778.13048  81758108.67646  19966128.4224                   19966137.2304
 118200330.80447  92104232.60745  22492778.3754                   22492788.2384
 112653934.67848  87782376.83646  21437320.2424                   21437327.4614
 11  7 25  0 47 30.0000000  0  8G10G28G12G17G09G04G27G02
 117666173.09147  91688021.94544  22391122.2034                   22391132.2114
 119134948.53847  92832500.55044  22670626.7974                   22670636.1764
 125085662.288 6                  23803012.211
 114696303.825 8                  21825970.133
 116120918.98047  90483907.00645  22097080.1564                   22097089.7734
 104945005.79548  81775428.94146  19970358.2664                   19970367.3014
 118222807.34247  92121746.72845  22497055.3364                   22497065.3284
 112596278.07748  87737449.64146  21426348.4694                   21426356.1954
 11  7 25  0 48  0.0000000  0  8G10G28G12G17G09G04G27G02
 117582666.44347  91622951.89845  22375231.5704                   22375241.8834
 119211139.87547  92891870.36344  22685125.7344                   22685134.9494
 124989649.855 6                  23784742.219
 114733919.504 8                  21833128.594
 116137765.17547  90497033.89545  22100285.4614                   22100295.1994
 104967737.65248  81793142.08346  19974683.9614                   19974693.0784
 118245724.51447  92139604.19945  22501416.1644                   22501426.5634
 112538978.51948  87692800.66546  21415444.7424                   21415452.2304
 11  7 25  0 48 30.0000000  0  8G10G28G12G17G09G04G27G02
 117499429.08647  91558091.68245  22359392.4694                   22359402.0204
 119287668.30847  92951502.85844  22699688.5704                   22699697.3404
 124893700.902 7                  23766483.508
 114771625.104 8                  21840303.383
 116155218.27947  90510633.70245  22103606.7814                   22103616.3594
 104990971.99048  81811246.76246  19979105.3834                   19979114.3204
 118269080.75647  92157803.81145  22505860.9924                   22505870.6454
 112482036.47048  87648430.25746  21404609.0084                   21404616.4414
 11  7 25  0 49  0.0000000  0  8G10G28G12G17G09G04G27G02
 117416464.26547  91493443.82845  22343604.6724                   22343613.5944
 119364532.62347  93011397.05344  22714316.0314                   22714323.7234
 124797817.725 7                  23748237.164
 114809420.790 8                  21847495.648
 116173277.05347  90524705.47345  22107043.0634                   22107053.0204
 105014707.12748  81829741.68046  19983621.9144                   19983630.9024
 118292874.62347  92176344.41345  22510388.6804                   22510399.0634
 112425452.61648  87604338.97746  21393841.4534                   21393848.5824
 11  7 25  0 49 30.0000000  0  8G10G28G12G17G09G04G27G02
 117333775.56047  91429011.13445  22327869.1024                   22327878.5664
 119441732.16347  93071552.45744  22729006.2194                   22729014.5784
 124702001.936 7                  23730004.039
 114847306.913 8                  21854704.805
 116191939.90447  90539247.93945  22110594.2664                   22110604.1684
 105038941.37448  81848625.51546  19988233.5784                   19988242.2544
 118317104.44347  92195224.72445  22514999.4694                   22515009.8914
 112369227.57948  87560527.28646  21383142.3444                   21383149.2304
 11  7 25  0 50  0.0000000  0  8G10G28G12G17G09G04G27G02
 117251366.18147  91364796.09045  22312186.8754                   22312197.2384
 119519265.61047  93131968.06244  22743759.7814                   22743769.6994
 124606256.197 7                  23711784.250
 114885283.432 8                  21861931.461
 116211205.52747  90554260.09445  22114260.4224                   22114270.7304
 105063673.14748  81867897.03446  19992940.1414                   19992949.0124
 118341769.06347  92214443.84245  22519693.0554                   22519703.2934
 112313362.03848  87516995.72746  21372511.4304                   21372519.0044
 11  7 25  0 50 30.0000000  0  8G10G28G12G17G09G04G27G02
 117169239.47347  91300801.31645  22296558.7114                   22296568.7194
 119597132.46647  93192643.49644  22758577.8134                   22758587.9344
 124510582.479 7                  23693578.445
 114923350.848 8                  21869175.453
 116231072.27247  90569740.64945  22118041.3284                   22118051.1804
 105088901.01848  81887555.11846  19997740.4534                   19997749.7384
 118366867.04547  92234000.65445  22524469.1804                   22524479.3674
 112257856.72848  87473744.86346  21361949.3754                   21361956.3594
 11  7 25  0 51  0.0000000  0  8G10G28G12G17G09G04G27G02
 117087398.46847  91237029.14345  22280985.3204                   22280995.1094
 119675331.24747  93253577.58144  22773457.9614                   22773468.1724
 124414982.747 7                  23675386.203
 114961508.949 7                  21876436.906
 116251538.46247  90585688.30545  22121936.1094                   22121945.4454
 105114622.69148  81907597.98546  20002635.3524                   20002644.4694
 118392396.45947  92253893.64745  22529327.3674                   22529337.9224
 112202711.56548  87430774.63846  21351455.4844                   21351462.5634
 11  7 25  0 51 30.0000000  0  8G10G28G12G17G09G04G27G02
 117005846.36047  91173482.12544  22265466.1024                   22265476.5664
 119753860.65847  93314769.29044  22788402.0634                   22788410.8484
 124319459.000 6                  23657208.633
 114999758.154 8                  21883715.109
 116272602.46247  90602101.79545  22125944.0944                   22125954.1564
 105140836.33248  81928024.20846  20007623.3444                   20007632.7114
 118418355.82747  92274121.67945  22534266.9534                   22534277.5084
 112147927.08448  87388085.46046  21341029.8444                   21341037.3054
 11  7 25  0 52  0.0000000  0  8G10G28G12G17G09G04G27G02
 116924587.04947  91110163.23644  22250002.6884                   22250012.8754
 119832719.87947  93376217.92444  22803407.8984                   22803418.1414
 124224013.769 6                  23639046.281
 115038098.530 7                  21891011.609
 116294262.56247  90618979.76445  22130065.7814                   22130075.9964
 105167540.53248  81948832.67946  20012705.0554                   20012714.4774
 118444743.43047  92294683.41345  22539288.8524                   22539299.0004
 112093503.93548  87345677.85046  21330673.9064                   21330681.0904
 11  7 25  0 52 30.0000000  0  8G10G28G12G17G09G04G27G02
 116843623.54447  91047074.84544  22234595.7974                   22234605.5044
 119911907.76947  93437922.69844  22818477.3524                   22818488.2234
 124128649.002 6                  23620898.789
 115076530.298 7                  21898324.883
 116316517.24647  90636321.03045  22134300.9144                   22134310.9844
 105194733.34248  81970021.88046  20017879.9924                   20017889.3284
 118471558.00047  92315577.85244  22544391.3364                   22544401.4104
 112039442.83248  87303552.34746  21320385.9144                   21320393.3554
 11  7 25  0 53  0.0000000  0  8G10G28G12G17G09G04G27G02
 116762959.17847  90984219.53745  22219246.0784                   22219255.9574
 119991423.64747  93499883.07444  22833608.3204                   22833619.3324
 124033366.616 6                  23602766.609
 115115053.877 7                  21905655.391
 116339364.96047  90654124.41945  22138649.2424                   22138658.4534
 105222413.25448  81991590.64146  20023147.1724                   20023155.9844
 118498797.88747  92336803.71045  22549574.9224                   22549585.5084
 111985743.93648  87261709.09246  21310167.3594                   21310174.6374
 11  7 25  0 53 30.0000000  0  8G10G28G12G17G09G04G27G02
 116682597.13047  90921599.81345  22203953.1644                   22203963.3554
 120071265.73847  93562097.66744  22848802.0084                   22848811.5124
 123938169.075 6                  23584651.594
 115153669.058 7                  21913004.086
 116362803.98847  90672388.55245  22143109.0864                   22143119.1294
 105250578.05848  82013537.23346  20028506.6564                   20028515.7504
 118526461.29347  92358359.59545  22554838.4844                   22554849.2704
 111932407.62148  87220148.37046  21300017.8054                   21300024.7974
 11  7 25  0 54  0.0000000  0  8G10G28G12G17G09G04G27G02
 116602540.87847  90859218.37145  22188719.3054                   22188729.0394
 120151433.19147  93624565.78844  22864057.2114                   22864066.1024
 123843058.475 6                  23566552.648
 115192376.618 7                  21920369.922
 116386832.65647  90691112.14645  22147681.3984                   22147691.7344
 105279226.15348  82035860.42546  20033958.3054                   20033967.2704
 118554546.72747  92380244.33745  22560183.9304                   22560193.9734
 111879434.82548  87178870.90546  21289937.3914                   21289944.4774
 11  7 25  0 54 30.0000000  0  8G10G28G12G17G09G04G27G02
 116522793.54447  90797077.64245  22173544.0634                   22173553.6484
 120231924.83447  93687286.50044  22879374.6644                   22879383.4884
 123748037.008 6                  23548470.570
 115231176.201 7                  21927752.836
 116411448.87747  90710293.57345  22152366.0084                   22152376.0984
 105308355.48448  82058558.59746  20039501.1484                   20039510.0474
 118583052.29847  92402456.46345  22565607.9844                   22565618.3984
 111826825.58848  87137876.73946  21279926.3594                   21279933.1804
 11  7 25  0 55  0.0000000  0  8G10G28G12G17G09G04G27G02
 116443358.37747  90735180.16045  22158428.2894                   22158437.4574
 120312739.58147  93750258.95044  22894752.5234                   22894763.5514
 123653106.867 7                  23530405.633
 115270067.907 7                  21935154.133
 116436650.83947  90729931.41545  22157161.9304                   22157171.7304
 105337964.21648  82081630.33246  20045135.6484                   20045144.5944
 118611976.24847  92424994.61645  22571112.0004                   22571122.3134
 111774580.15648  87097166.06346  21269984.1334                   21269991.0784
 11  7 25  0 55 30.0000000  0  8G10G28G12G17G09G04G27G02
 116364238.55047  90673528.37045  22143371.7504                   22143381.2234
 120393876.07547  93813482.18444  22910192.0084                   22910203.5354
 123558269.877 7                  23512359.484
 115309052.529 7                  21942572.602
 116462436.88247  90750024.37445  22162068.6644                   22162079.0234
 105368050.36748  82105074.08446  20050860.9224                   20050869.7274
 118641317.00547  92447857.54145  22576695.5314                   22576705.6334
 111722699.01448  87056739.24346  21260111.5704                   21260118.8014
 11  7 25  0 56  0.0000000  0  8G10G28G12G17G09G04G27G02
 116285437.63547  90612125.11245  22128376.6334                   22128385.9654
 120475333.40247  93876955.41744  22925693.4924                   22925703.6684
 123463528.663 7                  23494330.328
 115348130.186 7                  21950008.883
 116488805.61947  90770571.39145  22167086.4064                   22167096.4224
 105398612.57148  82128888.77446  20056676.6724                   20056685.6804
 118671072.93347  92471043.96945  22582357.8054                   22582368.1174
 111671183.05148  87016596.98546  21250308.5004                   21250315.3244
 11  7 25  0 56 30.0000000  0  8G10G28G12G17G09G04G27G02
 116206958.61747  90550972.67145  22113442.5084                   22113452.3014
 120557110.02647  93940677.42444  22941255.4694                   22941263.6294
 123368885.310 7                  23476320.555
 115387300.731 7                  21957462.688
 116515754.71847  90791570.62945  22172214.7664                   22172224.9964
 105429648.47148  82153072.58346  20062582.9144                   20062591.2974
 118701241.98047  92494552.32045  22588099.0554                   22588109.1334
 111620031.86348  86976738.97246  21240574.6884                   21240581.6644
 11  7 25  0 57  0.0000000  0  8G10G28G12G17G09G04G27G02
 116128804.84647  90490073.67545  22098569.9384                   22098580.3554
 120639204.62047  94004647.18344  22956877.7734                   22956887.1994
 123274341.726 7                  23458329.898
 115426564.518 7                  21964934.445
 116543282.12947  90813020.51945  22177453.2424                   22177463.5044
 105461155.82848  82177623.76546  20068578.3134                   20068587.2734
 118731822.52847  92518381.29245  22593918.5474                   22593928.3634
 111569245.88648  86937165.52746  21230910.5234                   21230917.3524
 11  7 25  0 57 30.0000000  0  8G10G28G12G17G09G04G27G02
 116050979.73347  90429430.78245  22083760.4774                   22083770.4024
 120721616.37747  94068864.12444  22972560.0004                   22972569.6884
 123179900.331 7                  23440357.930
 115465922.031 7                  21972423.297
 116571386.18147  90834919.71745  22182801.3054                   22182811.6214
 105493133.32148  82202541.28646  20074663.5704                   20074672.2774
 118762813.12647  92542529.80845  22599815.3054                   22599825.8284
 111518825.88548  86897877.25646  21221315.6254                   21221322.4264
 11  7 25  0 58  0.0000000  0  8G10G28G12G17G09G04G27G02
 115973486.51747  90369046.49745  22069014.1484                   22069023.9774
 120804343.89847  94133327.09244  22988302.8914                   22988312.4924
 123085563.564 7                  23422406.000
 115505373.597 8                  21979931.172
 116600064.96847  90857266.77045  22188258.5474                   22188268.8954
 105525578.95348  82227823.59546  20080837.5944                   20080846.6524
 118794211.92147  92566996.38845  22605790.5944                   22605801.0394
 111468772.20548  86858874.43946  21211791.1094                   21211797.4384
 11  7 25  0 58 30.0000000  0  8G10G28G12G17G09G04G27G02
 115896328.05547  90308923.06345  22054331.5474                   22054340.4694
 120887385.72547  94198034.91344  23004104.7114                   23004114.4264
 122991333.506 7                  23404474.898
 115544918.964 8                  21987456.531
 116629316.20547  90880059.89045  22193825.3364                   22193835.1334
 105558490.25348  82253468.75846  20087100.5704                   20087109.2114
 118826016.73147  92591779.34045  22611842.4064                   22611853.1334
 111419084.61648  86820156.87846  21202335.8594                   21202342.3954
 11  7 25  0 59  0.0000000  0  8G10G28G12G17G09G04G27G02
 115819507.45447  90249062.90845  22039712.5784                   22039722.9384
 120970740.57847  94262986.66644  23019966.8914                   23019977.0554
 122897212.552 7                  23386564.328
 115584558.828 8                  21994999.469
 116659138.20547  90903297.74845  22199500.2424                   22199510.2274
 105591865.67848  82279475.58646  20093451.7504                   20093460.3484
 118858225.95947  92616877.42945  22617971.8054                   22617982.2424
 111369763.58948  86781724.94446  21192949.8444                   21192956.8554
 11  7 25  0 59 30.0000000  0  8G10G28G12G17G09G04G27G02
 115743028.66147  90189469.10045  22025158.9844                   22025169.3524
 121054407.66747  94328181.76344  23035887.9224                   23035898.4144
 122803202.863 7                  23368674.867
 115624293.364 7                  22002560.703
 116689529.07547  90926978.88945  22205283.5704                   22205293.7894
 105625703.48348  82305842.70646  20099890.7894                   20099899.8284
 118890837.99847  92642289.37145  22624177.6804                   22624187.8594
 111320809.83048  86743579.20446  21183634.4454                   21183641.1334
 11  7 25  1  0  0.0000000  0  8G10G28G12G17G09G04G27G02
 115666894.82047  90130144.08645  22010671.6484                   22010681.8134
 121138385.41947  94393618.92044  23051868.7194                   23051878.6174
 122709306.710 7                  23350806.383
 115664123.050 8                  22010140.648
 116720486.54847  90951101.55345  22211174.3444                   22211184.8484
 105660001.52948  82332568.45046  20106417.2734                   20106426.6804
 118923850.66447  92668013.50945  22630459.6024                   22630469.9104
 111272223.41148  86705719.68646  21174388.5234                   21174395.5784
 11  7 25  1  0 30.0000000  0  8G10G28G12G17G09G04G27G02
 115591108.58947  90071089.94045  21996249.5234                   21996259.8714
 121222672.31047  94459296.95844  23067907.9304                   23067918.6564
 122615526.440 7                  23332960.258
 115704047.741 7                  22017737.484
 116752008.43347  90975664.02345  22217173.4224                   22217183.3754
 105694757.41748  82359650.95846  20113031.0944                   20113040.1564
 118957262.16447  92694048.39745  22636817.7584                   22636828.4064
 111224004.47148  86668146.51746  21165212.6804                   21165219.7194
 11  7 25  1  1  0.0000000  0  8G10G28G12G17G09G04G27G02
 115515673.60447  90012309.47745  21981894.9224                   21981904.7194
 121307267.38947  94525215.12544  23084005.8364                   23084016.1024
 122521863.884 7                  23315136.711
 115744067.846 7                  22025353.258
 116784092.88747  91000664.85545  22223278.1484                   22223288.3754
 105729969.27348  82387088.77146  20119731.8984                   20119741.0204
 118991070.61747  92720392.62144  22643251.7424                   22643262.0944
 111176153.32748  86630859.95146  21156107.4224                   21156114.2854
 11  7 25  1  1 30.0000000  0  9G10G28G12G17G05G09G04G27G02
 115440592.96947  89953805.13645  21967607.5394                   21967617.2034
 121392169.10647  94591372.22844  23100162.1564                   23100171.6724
 122428321.593 7                  23297337.234
 115784183.820 7                  22032987.148
 129581328.77115                  24658513.234
 116816737.74947  91026102.38245  22229490.8444                   22229501.0314
 105765635.32448  82414880.49646  20126518.9534                   20126527.7854
 119025274.31747  92747044.82444  22649760.3284                   22649770.2274
 111128670.16048  86593860.11146  21147071.2114                   21147078.5514
 11  7 25  1  2  0.0000000  0  9G10G28G12G17G05G09G04G27G02
 115365870.08447  89895579.55845  21953388.6174                   21953397.4024
 121477376.46347  94657767.49544  23116376.9144                   23116386.8484
 122334902.075 7                  23279558.992
 115824396.077 7                  22040638.961
 129476281.425 6                  24638522.484
 116849941.05147  91051975.06645  22235808.5704                   22235818.8134
 105801753.84248  82443024.79646  20133392.2814                   20133400.5314
 119059871.41647  92774003.55045  22656343.7734                   22656353.9344
 111081555.70048  86557147.57846  21138105.8524                   21138112.7384
 11  7 25  1  2 30.0000000  0  9G10G28G12G17G05G09G04G27G02
 115291507.45647  89837634.69245  21939237.3524                   21939247.3754
 121562887.62347  94724399.52644  23132648.7664                   23132658.9104
 122241607.404 7                  23261806.219
 115864704.704 7                  22048309.680
 129371151.387 6                  24618517.500
 116883700.49847  91078281.09745  22242233.0784                   22242243.4384
 105838322.13948  82471519.57546  20140350.5944                   20140359.5594
 119094859.68647  92801267.11445  22663001.6024                   22663012.3834
 111034809.66048  86520722.12846  21129210.0944                   21129217.7074
 11  7 25  1  3  0.0000000  0  9G10G28G12G17G05G09G04G27G02
 115217508.79547  89779973.45945  21925155.9454                   21925165.6334
 121648701.41747  94791267.39443  23148978.8444                   23148988.7774
 122148439.675 7                  23244076.523
 115905110.087 7                  22055999.094
 129265941.142 6                  24598496.781
 116918013.91047  91105018.79245  22248762.9064                   22248773.2194
 105875338.27148  82500363.31346  20147394.7814                   20147403.5204
 119130237.31347  92828834.05244  22669734.5864                   22669744.5004
 110988432.16648  86484583.85746  21120384.7344                   21120391.6994
 11  7 25  1  3 30.0000000  0  9G10G28G12G17G05G09G04G27G02
 115143877.11047  89722598.16545  21911144.4694                   21911154.2154
 121734816.30446  94858369.85243  23165365.5634                   23165375.1844
 122055401.396 7                  23226371.719
 115945612.459 7                  22063705.422
 129160653.633 7                  24578461.180
 116952879.08947  91132186.45545  22255397.1804                   22255407.4574
 105912800.36948  82529554.55546  20154523.2734                   20154532.4414
 119166002.20447  92856702.75645  22676539.9924                   22676550.2464
 110942423.38648  86448732.89846  21111629.5004                   21111636.9304
 11  7 25  1  4  0.0000000  0  9G10G28G12G17G05G09G04G27G02
 115070615.56747  89665511.28645  21897203.3134                   21897212.0204
 121821231.08247  94925705.98443  23181810.4454                   23181819.3754
 121962495.004 7                  23208692.531
 115986211.911 7                  22071431.898
 129055291.298 7                  24558411.516
 116988293.60447  91159782.15145  22262136.5784                   22262146.6024
 105950706.26548  82559091.61746  20161737.1804                   20161746.0744
 119202152.53447  92884871.81244  22683418.9844                   22683429.6644
 110896783.60748  86413169.46646  21102944.8444                   21102951.5864
 11  7 25  1  4 30.0000000  0  9G10G28G12G17G05G09G04G27G02
 114997727.03947  89608715.07645  21883332.8444                   21883341.8874
 121907944.56047  94993274.86643  23198311.7584                   23198320.5594
 121869722.759 7                  23191037.945
 116026909.190 7                  22079176.180
 128949856.367 7                  24538347.453
 117024255.13147  91187804.08945  22268979.9064                   22268990.2034
 105989053.81248  82588972.82246  20169033.9694                   20169042.5234
 119238686.10647  92913339.49045  22690370.8984                   22690381.5434
 110851513.08348  86377893.76246  21094330.1254                   21094337.0394
 11  7 25  1  5  0.0000000  0  9G10G28G12G17G05G09G04G27G02
 114925214.88047  89552212.13545  21869534.2504                   21869543.7034
 121994954.74047  95061074.96944  23214868.8284                   23214878.8284
 121777086.924 7                  23173410.375
 116067704.187 7                  22086938.727
 128844351.984 7                  24518270.484
 117060761.61347  91216250.66845  22275926.8444                   22275937.2624
 106027840.82548  82619196.47446  20176415.2584                   20176423.8014
 119275600.94147  92942104.26745  22697395.9924                   22697406.0744
 110806611.59548  86342905.62446  21085785.4144                   21085792.2384
 11  7 25  1  5 30.0000000  0  9G10G28G12G17G05G09G04G27G02
 114853082.67347  89496005.27745  21855807.7664                   21855817.7194
 122082260.48446  95129105.38443  23231482.4614                   23231492.4774
 121684590.051 7                  23155808.406
 116108597.517 7                  22094721.133
 128738780.410 6                  24498180.445
 117097810.85147  91245120.19045  22282977.5474                   22282987.3164
 106067065.38248  82649761.06146  20183879.1414                   20183888.0314
 119312895.32647  92971164.79145  22704493.0234                   22704503.7304
 110762079.87448  86308205.61446  21077311.4774                   21077318.3404
 11  7 25  1  6  0.0000000  0  9G10G28G12G17G05G09G04G27G02
 114781333.53347  89440096.90645  21842154.2344                   21842164.0864
 122169860.84647  95197365.37344  23248151.6804                   23248162.6214
 121592234.411 7                  23138233.430
 116149589.804 7                  22102521.617
 128633144.446 6                  24478078.297
 117135400.73447  91274410.98645  22290130.3754                   22290139.9024
 106106725.97148  82680665.41346  20191426.3674                   20191435.5514
 119350567.38147  93000519.61344  22711662.1484                   22711671.8244
 110717918.04748  86273793.83046  21068907.5864                   21068914.4884
 11  7 25  1  6 30.0000000  0  9G10G28G12G17G05G09G04G27G02
 114709970.41447  89384489.32545  21828574.1804                   21828584.1024
 122257753.99647  95265853.48444  23264876.7814                   23264887.9494
 121500022.280 7                  23120686.023
 116190681.329 7                  22110341.023
 128527446.780 6                  24457964.867
 117173528.81947  91304121.14745  22297385.8984                   22297396.1844
 106146819.95248  82711907.47846  20199056.0474                   20199065.1724
 119388614.88247  93030166.99745  22718901.7664                   22718912.1174
 110674126.09148  86239670.24746  21060573.9144                   21060580.9804
 11  7 25  1  7  0.0000000  0  9G10G28G12G17G05G09G04G27G02
 114638996.05847  89329184.68045  21815068.2034                   21815077.7544
 122345938.29347  95334568.46544  23281659.2974                   23281668.2384
 121407955.847 7                  23103166.625
 116231872.156 7                  22118179.414
 128421690.151 6                  24437839.352
 117212192.49447  91334248.67045  22304743.0864                   22304753.6214
 106187345.02948  82743485.46146  20206767.3754                   20206776.3054
 119427035.56347  93060105.15245  22726213.5634                   22726223.5944
 110630703.74748  86205834.68346  21052310.9924                   21052317.9694
 11  7 25  1  7 30.0000000  0  9G10G28G12G17G05G09G04G27G02
 114568413.80547  89274185.56845  21801636.6174                   21801646.7974
 122434412.28147  95403509.22844  23298495.6094                   23298506.0514
 121316037.665 7                  23085675.484
 116273162.604 7                  22126036.750
 128315877.017 5                  24417703.625
 117251389.33847  91364791.63545  22312202.3364                   22312212.3594
 106228299.00648  82775397.64846  20214561.1174                   20214569.5004
 119465827.36947  93090332.50544  22733594.9384                   22733605.2934
 110587651.29848  86172287.34546  21044118.5314                   21044125.7814
 11  7 25  1  8  0.0000000  0  9G10G28G12G17G05G09G04G27G02
 114498226.46747  89219494.17845  21788280.4774                   21788290.5004
 122523174.62647  95472674.71944  23315385.9224                   23315396.2304
 121224270.180 7                  23068212.422
 116314553.029 7                  22133912.961
 128210009.500 5                  24397557.336
 117291117.01447  91395748.23445  22319762.3204                   22319772.4104
 106269679.92948  82807642.50746  20222435.7274                   20222444.5784
 119504988.33247  93120847.53045  22741047.4224                   22741057.4774
 110544968.71548  86139028.20746  21035995.9844                   21036003.2774
 11  7 25  1  8 30.0000000  0  9G10G28G12G17G05G09G04G27G02
 114428437.02647  89165112.84945  21774999.8984                   21775009.7114
 122612223.88347  95542063.69243  23332331.0864                   23332341.9614
 121132655.614 7                  23050779.023
 116356043.849 7                  22141808.359
 128104090.651 6                  24377401.195
 117331373.21347  91427116.69245  22327422.4454                   22327432.8834
 106311485.70448  82840218.43146  20230390.9304                   20230400.0474
 119544516.40047  93151648.60844  22748569.2504                   22748579.8634
 110502656.23148  86106057.45746  21027944.5634                   21027951.2624
 11  7 25  1  9  0.0000000  0  9G10G28G12G17G05G09G04G27G02
 114359048.78847  89111044.15245  21761795.8674                   21761805.9024
 122701558.23146  95611674.85143  23349330.9064                   23349341.4964
 121041195.959 7                  23033375.047
 116397635.301 7                  22149722.797
 127998123.024 6                  24357236.383
 117372155.32147  91458894.93345  22335183.2504                   22335192.9304
 106353713.69848  82873123.35646  20238426.6724                   20238435.8054
 119584409.11147  93182733.81844  22756160.4224                   22756170.6844
 110460713.42548  86073374.76946  21019962.8594                   21019969.9734
 11  7 25  1  9 30.0000000  0  9G10G28G12G17G05G09G04G27G02
 114290065.11447  89057290.68345  21748668.6804                   21748678.5084
 122791176.52546  95681507.24843  23366385.0474                   23366394.8094
 120949894.189 7                  23016000.563
 116439327.782 7                  22157656.227
 127892109.294 6                  24337062.484
 117413460.85047  91491081.03745  22343043.6254                   22343053.1684
 106396362.14648  82906355.90346  20246541.9064                   20246550.8834
 119624664.60047  93214101.71745  22763821.4844                   22763831.7154
 110419140.79248  86040980.52146  21012051.9144                   21012059.0474
 11  7 25  1 10  0.0000000  0  9G10G28G12G17G05G09G04G27G02
 114221488.75947  89003854.61845  21735618.7274                   21735628.6564
 122881076.83946  95751559.34543  23383493.3984                   23383502.9964
 120858752.623 7                  22998657.484
 116481121.947 7                  22165610.109
 127786052.493 6                  24316880.820
 117455287.49147  91523673.21645  22351002.9144                   22351013.5164
 106439429.01148  82939914.49946  20254737.4534                   20254746.6024
 119665280.79647  93245750.68944  22771549.6564                   22771560.4574
 110377938.48248  86008874.84646  21004211.6334                   21004218.3054
 11  7 25  1 10 30.0000000  0  9G10G28G12G17G05G09G04G27G02
 114153322.54347  88950738.12445  21722647.4614                   21722657.0744
 122971257.63846  95821830.09743  23400653.2974                   23400663.0354
 120767773.629 7                  22981344.391
 116523017.666 7                  22173582.523
 127679954.974 6                  24296691.258
 117497632.55847  91556669.35045  22359061.0004                   22359070.8794
 106482911.66548  82973797.08246  20263011.6954                   20263020.9104
 119706255.15747  93277678.74944  22779346.8674                   22779357.5234
 110337106.04348  85977057.38846  20996441.3054                   20996448.3134
 11  7 25  1 11  0.0000000  0  9G10G28G12G17G05G09G04G27G02
 114085569.66447  88897943.71545  21709754.6724                   21709764.1484
 123061717.49646  95892318.33143  23417867.2814                   23417876.9384
 120676959.459 7                  22964062.891
 116565015.411 7                  22181574.156
 127573819.448 6                  24276494.414
 117540493.66447  91590067.59645  22367216.8834                   22367226.9844
 106526807.90248  83008001.92946  20271364.8834                   20271373.9614
 119747585.51447  93309884.19044  22787211.8134                   22787222.5234
 110296643.67148  85945528.28146  20988741.3674                   20988748.4144
 11  7 25  1 11 30.0000000  0  9G10G28G12G17G05G09G04G27G02
 114018233.47547  88845474.01445  21696940.8364                   21696950.6414
 123152455.09747  95963022.96043  23435134.0164                   23435144.4454
 120586312.665 7                  22946813.133
 116607116.032 7                  22189586.148
 127467648.739 6                  24256290.641
 117583868.29647  91623865.99445  22375471.1644                   22375481.5044
 106571116.10648  83042527.79546  20279796.9454                   20279805.8284
 119789270.02347  93342365.62344  22795144.2664                   22795154.5354
 110256551.41548  85914287.58146  20981112.2274                   20981119.0594
 11  7 25  1 12  0.0000000  0  9G10G28G12G17G05G09G04G27G02
 113951316.42747  88793330.90645  21684207.0864                   21684216.5394
 123243468.53347  96033942.50043  23452453.7274                   23452463.0124
 120495835.664 7                  22929596.039
 116649319.598 7                  22197616.688
 127361445.003 6                  24236079.641
 117627753.74247  91658062.43445  22383821.3524                   22383832.5084
 106615833.59148  83077372.57246  20288306.2664                   20288315.1844
 119831306.42047  93375121.23144  22803143.4694                   22803153.9344
 110216829.10248  85883335.14846  20973552.9844                   20973560.2384
 11  7 25  1 12 30.0000000  0  9G10G28G12G17G05G09G04G27G02
 113884822.19447  88741517.26845  21671553.5474                   21671562.8164
 123334756.59146  96105076.00043  23469824.9534                   23469835.0744
 120405530.835 7                  22912411.094
 116691626.585 7                  22205667.734
 127255212.155 5                  24215864.438
 117672147.61947  91692655.06045  22392269.9064                   22392279.8714
 106660958.42548  83112534.77446  20296893.3364                   20296902.3324
 119873692.71047  93408149.49644  22811209.1174                   22811219.5084
 110177477.04548  85852671.22646  20966064.9384                   20966071.4804
 11  7 25  1 13  0.0000000  0  9G10G28G12G17G05G09G04G27G02
 113818753.15947  88690034.95245  21658980.8444                   21658990.3874
 123426317.51647  96176422.16644  23487248.8284                   23487258.7934
 120315400.677 7                  22895260.188
 116734037.457 7                  22213738.305
 127148951.970 6                  24195642.977
 117717047.05947  91727641.63345  22400814.3984                   22400824.5084
 106706488.16748  83148012.48446  20305557.3674                   20305566.4574
 119916426.48346  93441448.51545  22819341.3054                   22819351.8554
 110138494.98048  85822295.61146  20958646.6484                   20958653.4774
 11  7 25  1 13 30.0000000  0  9G10G28G12G17G05G09G04G27G02
 113753112.21347  88638886.20545  21646489.5704                   21646499.4454
 123518149.25847  96247979.30344  23504724.1334                   23504734.0944
 120225447.775 7                  22878142.523
 116776552.392 7                  22221828.859
 127042666.958 6                  24175416.852
 117762449.67147  91763020.28745  22409454.5784                   22409464.3134
 106752420.61948  83183803.98846  20314298.1884                   20314306.9534
 119959505.40547  93475016.50144  22827539.4384                   22827549.9344
 110099882.51848  85792208.00346  20951298.8284                   20951306.5004
 11  7 25  1 14  0.0000000  0  9G10G28G12G17G05G09G04G27G02
 113687902.67747  88588073.62945  21634080.4844                   21634090.4734
 123610250.56346  96319746.55243  23522250.2664                   23522260.2934
 120135674.270 7                  22861059.148
 116819172.055 7                  22229938.883
 126936360.247 6                  24155188.406
 117808352.94347  91798789.07345  22418188.6884                   22418198.9844
 106798753.75048  83219907.71646  20323114.7424                   20323123.7774
 120002927.42247  93508851.79644  22835801.9694                   22835811.7814
 110061639.91148  85762408.57846  20944021.7584                   20944028.3834
 11  7 25  1 14 30.0000000  0  9G10G28G12G17G05G09G04G27G02
 113623126.97047  88537599.10745  21621754.0864                   21621764.0514
 123702619.82446  96391722.60044  23539826.7814                   23539837.5314
 120046082.503 7                  22844010.406
 116861896.578 7                  22238069.242
 126830034.372 6                  24134955.258
 117854753.79747  91834945.57745  22427018.8284                   22427029.2154
 106845484.89448  83256321.58946  20332007.5394                   20332016.3134
 120046690.05747  93542952.51244  22844130.2194                   22844140.0784
 110023766.78348  85732897.07246  20936814.6334                   20936821.5704
 11  7 25  1 15  0.0000000  0  9G10G28G12G17G05G09G04G27G02
 113558788.02347  88487464.92045  21609510.6334                   21609520.8914
 123795255.36546  96463906.10343  23557454.4694                   23557465.6334
 119956675.040 7                  22826996.898
 116904726.265 7                  22246219.383
 126723692.094 6                  24114719.148
 117901649.70147  91871487.84345  22435942.5164                   22435952.8404
 106892611.92148  83293043.93646  20340975.5554                   20340984.9414
 120090791.00346  93577316.86544  22852521.7034                   22852532.7584
 109986263.07448  85703673.41146  20929677.9924                   20929684.9534
 11  7 25  1 15 30.0000000  0  9G10G28G12G17G05G09G04G27G02
 113494889.32647  88437673.78345  21597351.2664                   21597360.8524
 123888155.71046  96536295.94843  23575133.4924                   23575144.3204
 119867454.641 7                  22810018.711
 116947661.970 7                  22254390.141
 126617336.549 7                  24094480.484
 117949038.19447  91908413.94945  22444960.9694                   22444970.7304
 106940133.07948  83330073.40046  20350018.5634                   20350028.0164
 120135228.32847  93611943.30544  22860978.1334                   22860988.3754
 109949129.29048  85674738.01846  20922611.6724                   20922618.2704
 11  7 25  1 16  0.0000000  0  9G10G28G12G17G05G09G04G27G02
 113431433.61047  88388227.82145  21585275.5944                   21585285.3714
 123981318.91246  96608890.61043  23592861.8674                   23592872.1644
 119778423.670 7                  22793076.859
 116990703.803 7                  22262580.297
 126510970.229 6                  24074238.695
 117996916.40447  91945721.62945  22454071.2734                   22454081.8054
 106988045.76348  83367407.94646  20359135.8444                   20359145.0474
 120179999.50146  93646829.89244  22869497.4924                   22869508.0164
 109912364.84448  85646090.42146  20915615.6644                   20915622.2034
 11  7 25  1 16 30.0000000  0  9G10G28G12G17G05G09G04G27G02
 113368423.93147  88339129.42045  21573285.5164                   21573295.1884
 124074743.50046  96681689.00343  23610639.7734                   23610650.3404
 119689584.414 7                  22776170.906
 117033852.293 7                  22270791.242
 126404595.911 6                  24053996.313
 118045281.43947  91983408.67345  22463275.1884                   22463285.3714
 107036347.67448  83405045.79846  20368327.6484                   20368336.5164
 120225102.29047  93681974.87244  22878081.2894                   22878091.6724
 109875969.49048  85617730.42646  20908689.6564                   20908696.7074
 11  7 25  1 17  0.0000000  0  9G10G28G12G17G05G09G04G27G02
 113305862.70147  88290380.45845  21561380.7194                   21561390.3204
 124168427.63046  96754689.57843  23628467.0554                   23628478.2704
 119600939.503 7                  22759302.492
 117077107.890 7                  22279022.422
 126298216.280 7                  24033753.047
 118094130.45847  92021472.85444  22472570.6724                   22472580.7304
 107085036.48348  83442985.12046  20377592.7114                   20377601.7934
 120270534.47046  93717376.52444  22886725.9454                   22886736.6214
 109839943.16548  85589657.99046  20901834.0314                   20901840.9184
 11  7 25  1 17 30.0000000  0  9G10G28G12G17G05G09G04G27G02
 113243753.09147  88241983.42045  21549561.2114                   21549570.9884
 124262369.46846  96827891.06943  23646343.9304                   23646353.2194
 119512491.248 7                  22742470.844
 117120471.133 7                  22287274.133
 126191834.413 7                  24013508.625
 118143460.70247  92059911.99144  22481957.5474                   22481967.9414
 107134109.87748  83481224.12746  20386931.0394                   20386940.2504
 120316293.51046  93753032.86544  22895433.4924                   22895444.1094
 109804285.68548  85561872.97046  20895048.8594                   20895055.5514
 11  7 25  1 18  0.0000000  0  9G10G28G12G17G05G09G04G27G02
 113182097.67647  88193940.28045  21537829.0164                   21537838.4454
 124356567.72846  96901292.30443  23664268.9224                   23664278.9264
 119424242.370 7                  22725677.742
 117163942.280 8                  22295547.000
 126085452.771 6                  23993265.578
 118193269.76347  92098724.24845  22491435.8054                   22491446.5864
 107183565.82348  83519761.22246  20396342.2034                   20396351.6644
 120362377.17147  93788942.15144  22904203.2114                   22904213.7034
 109768997.13748  85534375.42946  20888333.3914                   20888340.8554
 11  7 25  1 18 30.0000000  0  9G10G28G12G17G05G09G04G27G02
 113120899.76047  88146253.63245  21526183.4924                   21526192.5234
 124451020.54046  96974891.89243  23682243.4534                   23682252.4454
 119336195.247 7                  22708922.844
 117207522.193 7                  22303839.734
 125979074.250 6                  23973021.617
 118243554.93947  92137907.50244  22501004.8134                   22501015.5704
 107233402.30848  83558594.85246  20405825.8754                   20405835.0944
 120408783.24047  93825102.66844  22913034.2034                   22913044.5234
 109734077.23748  85507165.13946  20881688.3524                   20881695.7344
 11  7 25  1 19  0.0000000  0  9G10G28G12G17G05G09G04G27G02
 113060162.15247  88098925.66745  21514625.4064                   21514634.6684
 124545726.50346  97048688.77743  23700265.5634                   23700274.2154
 119248352.519 7                  22692207.391
 117251210.912 7                  22312153.500
 125872701.548 6                  23952779.203
 118294313.31647  92177459.46844  22510664.1254                   22510674.1254
 107283616.92248  83597723.12046  20415381.3054                   20415390.0944
 120455509.41247  93861512.62444  22921925.4304                   22921936.5234
 109699525.86348  85480242.01646  20875113.6334                   20875120.1024
 11  7 25  1 19 30.0000000  0  9G10G28G12G17G05G09G04G27G02
 112999886.95947  88051958.02145  21503155.1564                   21503164.6884
 124640683.48246  97122681.23043  23718335.3444                   23718344.3484
 119160716.170 7                  22675530.367
 117295008.620 7                  22320487.836
 125766337.411 7                  23932539.422
 118345541.80547  92217377.77044  22520412.7114                   22520422.9734
 107334206.72648  83637143.75146  20425008.0944                   20425017.4654
 120502552.91347  93898169.81844  22930878.0474                   22930888.4144
 109665342.26748  85453605.47346  20868608.6254                   20868615.6174
 11  7 25  1 20  0.0000000  0  9G10G28G12G17G05G09G04G27G02
 112940077.45647  88005353.24845  21491773.7274                   21491783.0784
 124735889.67946  97196867.88743  23736452.2814                   23736461.1414
 119073289.332 7                  22658893.281
 117338916.069 7                  22328843.414
 125659984.792 7                  23912300.422
 118397237.88547  92257660.40944  22530250.1254                   22530260.3714
 107385170.02648  83676855.42246  20434706.3754                   20434715.7934
 120549911.64647  93935072.67744  22939890.0704                   22939900.3954
 109631526.71548  85427255.71846  20862173.4844                   20862180.9844
 11  7 25  1 20 30.0000000  0  9G10G28G12G17G05G09G04G27G02
 112880736.00148  87959113.19945  21480481.7974                   21480491.3794
 124831343.12646  97271247.13743  23754616.1094                   23754626.1684
 118986074.105 7                  22642297.453
 117382933.533 7                  22337219.148
 125553646.378 7                  23892065.188
 118449398.22647  92298304.81544  22540175.9534                   22540185.4804
 107436504.15648  83716856.02846  20444474.8914                   20444484.4264
 120597582.96547  93972219.08244  22948961.3134                   22948972.0434
 109598078.49848  85401192.20146  20855808.4694                   20855815.2734
 11  7 25  1 21  0.0000000  0  9G10G28G12G17G05G09G04G27G02
 112821865.73047  87913240.30846  21469278.6804                   21469288.1954
 124927042.25946  97345817.85843  23772827.1414                   23772836.4534
 118899072.933 7                  22625741.461
 117427061.746 7                  22345616.711
 125447324.712 7                  23871832.750
 118502020.16247  92339308.89845  22550189.4844                   22550199.7274
 107488206.90848  83757143.89346  20454313.5234                   20454322.9534
 120645564.80847  94009607.47644  22958092.0554                   22958102.9064
 109564997.54148  85375414.86446  20849513.8444                   20849520.6374
 11  7 25  1 21 30.0000000  0  9G10G28G12G17G05G09G04G27G02
 112763469.45748  87867736.75345  21458166.6094                   21458175.6994
 125022985.60246  97420578.80343  23791084.6254                   23791094.6214
 118812288.512 7                  22609226.609
 117471300.843 7                  22354035.375
 125341022.937 7                  23851604.289
 118555100.84747  92380670.47444  22560290.3204                   22560301.0944
 107540275.86748  83797717.10946  20464222.0704                   20464231.7704
 120693854.72947  94047235.92744  22967282.0084                   22967292.2974
 109532283.83448  85349923.68246  20843288.2424                   20843295.1884
 11  7 25  1 22  0.0000000  0  9G10G28G12G17G05G09G04G27G02
 112705549.72547  87822604.54645  21447144.2114                   21447153.7034
 125119171.28146  97495528.62343  23809387.6094                   23809397.9224
 118725723.633 7                  22592754.336
 117515651.602 7                  22362474.828
 125234744.078 7                  23831379.414
 118608637.16347  92422387.04644  22570477.7584                   22570487.5164
 107592709.07348  83838574.16146  20474199.4384                   20474208.8324
 120742450.20846  94085102.46544  22976528.6174                   22976539.8364
 109499937.31148  85324718.62446  20837132.8284                   20837139.6914
 11  7 25  1 22 30.0000000  0  9G10G28G12G17G05G09G04G27G02
 112648109.00147  87777845.58445  21436214.1724                   21436223.3134
 125215597.78246  97570666.05543  23827737.0784                   23827747.6174
 118639380.304 7                  22576323.438
 117560114.224 7                  22370935.711
 125128490.650 7                  23811160.164
 118662626.16947  92464456.35844  22580751.5394                   22580761.6684
 107645504.01348  83879713.07446  20484246.0554                   20484255.4614
 120791348.80747  94123205.20044  22985834.4614                   22985844.9224
 109467957.23148  85299799.11646  20831047.5004                   20831054.4884
 11  7 25  1 23  0.0000000  0  9G10G28G12G17G05G09G04G27G02
 112591150.73347  87733462.55945  21425374.9144                   21425384.4774
 125312262.75846  97645989.35143  23846132.0234                   23846142.9804
 118553261.312 7                  22559935.930
 117604689.338 7                  22379418.086
 125022265.582 7                  23790946.531
 118717065.30947  92506876.45544  22591111.3364                   22591121.8714
 107698658.37748  83921132.05546  20494361.1414                   20494370.4734
 120840548.16747  94161542.31644  22995197.0554                   22995207.1094
 109436343.34148  85275164.94446  20825031.4144                   20825038.6454
 11  7 25  1 23 30.0000000  0  9G10G28G12G17G05G09G04G27G02
 112534677.00347  87689457.09945  21414628.4144                   21414638.0784
 125409164.44346  97721497.04243  23864572.8284                   23864582.5704
 118467369.138 7                  22543590.750
 117649377.276 7                  22387922.336
 124916071.696 7                  23770738.023
 118771951.48747  92549644.85944  22601556.5704                   22601566.0124
 107752169.98448  83962829.41446  20504544.0784                   20504553.2934
 120890045.72547  94200111.75644  23004615.8754                   23004625.8134
 109405095.29348  85250815.83446  20819085.0784                   20819092.2114
 11  7 25  1 24  0.0000000  0  9G10G28G12G17G05G09G04G27G02
 112478690.45047  87645831.26345  21403974.3134                   21403984.1994
 125506301.05247  97797187.86643  23883056.8284                   23883066.4224
 118381706.432 7                  22527290.047
 117694178.626 7                  22396447.625
 124809911.776 6                  23750535.797
 118827281.91147  92592759.41744  22612085.4384                   22612094.9264
 107806036.41148  84004803.25046  20514794.2894                   20514804.0664
 120939838.94647  94238911.61644  23014091.1484                   23014101.6294
 109374212.94448  85226751.68846  20813208.2504                   20813215.4734
 11  7 25  1 24 30.0000000  0  9G10G28G12G17G05G09G04G27G02
 112423193.89348  87602587.24945  21393413.8284                   21393423.4414
 125603670.98146  97873060.46543  23901585.5084                   23901595.1954
 118296275.685 7                  22511032.531
 117739093.840 7                  22404995.055
 124703788.715 6                  23730341.211
 118883053.41447  92636217.70644  22622697.6564                   22622708.2584
 107860255.30048  84047051.72946  20525112.1724                   20525121.2934
 120989925.52847  94277940.05144  23023622.7034                   23023633.3284
 109343696.08048  85202972.34146  20807401.0004                   20807407.8954
 11  7 25  1 25  0.0000000  0  9G10G28G12G17G05G09G04G27G02
 112368189.42347  87559726.66645  21382946.8914                   21382956.3444
 125701272.35446  97949113.51543  23920159.4064                   23920167.6484
 118211079.256 7                  22494820.453
 117784123.364 7                  22413563.281
 124597705.202 7                  23710154.781
 118939262.60447  92680017.02945  22633394.5084                   22633404.2464
 107914824.18648  84089572.93946  20535496.1094                   20535505.4064
 121040302.79647  94317195.01544  23033208.8524                   23033219.3984
 109313544.09348  85179477.30946  20801663.6644                   20801670.5204
 11  7 25  1 25 30.0000000  0  9G10G28G12G17G05G09G04G27G02
 112313679.98048  87517251.81745  21372574.0004                   21372583.6844
 125799103.41946  98025345.48543  23938775.4534                   23938784.2194
 118126119.671 7                  22478653.227
 117829267.663 7                  22422154.500
 124491664.249 7                  23689975.125
 118995906.97947  92724155.46444  22644173.5474                   22644183.3914
 107969740.95648  84132365.21646  20545946.5164                   20545956.0864
 121090968.39747  94356674.64044  23042849.7344                   23042861.4384
 109283756.73948  85156266.40746  20795994.8594                   20796002.1524
 11  7 25  1 26  0.0000000  0  9G10G28G12G17G05G09G04G27G02
 112259668.12448  87475164.69845  21362295.8364                   21362305.4414
 125897162.25646  98101754.91743  23957435.4454                   23957445.8674
 118041399.510 7                  22462531.203
 117874527.076 7                  22430767.109
 124385668.760 7                  23669805.367
 119052983.47747  92768630.60744  22655034.8914                   22655045.1564
 108025003.32248  84175426.79946  20556462.8054                   20556472.0514
 121141919.95847  94396377.11144  23052546.4384                   23052556.9774
 109254333.63848  85133339.32446  20790395.9304                   20790402.9844
 11  7 25  1 26 30.0000000  0  9G10G28G12G17G05G09G04G27G02
 112206156.00248  87433466.98445  21352112.7734                   21352122.4454
 125995446.59146  98178340.09243  23976138.0474                   23976148.9774
 117956921.233 7                  22446455.727
 117919902.035 8                  22439401.469
 124279721.161 7                  23649644.422
 119110488.59647  92813439.75544  22665977.1564                   22665988.0204
 108080608.38448  84218755.41746  20567043.7584                   20567053.1684
 121193154.59747  94436300.14044  23062295.2344                   23062306.7424
 109225273.91848  85110695.40846  20784866.1954                   20784873.0434
 11  7 25  1 27  0.0000000  0  9G10G28G12G17G05G09G04G27G02
 112153146.99548  87392161.31446  21342025.4924                   21342034.8674
 126093954.98146  98255099.81942  23994883.1414                   23994893.8634
 117872687.857 7                  22430426.352
 117965393.306 7                  22448058.203
 124173824.987 7                  23629493.086
 119168419.64547  92858580.77545  22677001.2894                   22677011.0554
 108136554.45348  84262349.75346  20577690.2034                   20577699.4024
 121244670.10247  94476442.01644  23072099.3834                   23072109.4104
 109196577.99648  85088334.97346  20779405.5634                   20779412.3984
 11  7 25  1 27 30.0000000  0  9G10G28G12G17G05G09G04G27G02
 112100643.40048  87351249.46946  21332034.3204                   21332043.6134
 126192685.75546  98332032.78643  24013671.3134                   24013681.7424
 117788701.769 7                  22414444.594
 118011001.465 7                  22456736.602
 124067982.977 7                  23609351.297
 119226773.65047  92904051.37644  22688106.5314                   22688116.1054
 108192839.20048  84306208.00546  20588400.6484                   20588410.0394
 121296464.06147  94516800.88744  23081954.6484                   23081965.7464
 109168245.46648  85066257.70046  20774013.6564                   20774020.6804
 11  7 25  1 28  0.0000000  0  9G10G28G12G17G05G09G04G27G02
 112048647.53948  87310733.25145  21322139.9924                   21322149.3984
 126291636.44446  98409137.17143  24032501.0394                   24032511.3634
 117704965.406 7                  22398510.219
 118056726.739 8                  22465438.539
 123962197.703 7                  23589221.000
 119285547.45747  92949849.11144  22699289.9144                   22699300.6564
 108249460.09048  84350328.17646  20599175.1644                   20599184.4494
 121348533.86647  94557374.69044  23091863.5234                   23091874.7974
 109140275.51548  85044462.94646  20768691.3594                   20768698.1414
 11  7 25  1 28 30.0000000  0  9G10G28G12G17G05G09G04G27G02
 111997161.76248  87270614.51645  21312342.3524                   21312351.3874
 126390805.66146  98486411.82843  24051372.6414                   24051382.7194
 117621481.277 7                  22382623.477
 118102569.522 7                  22474162.008
 123856472.187 7                  23569101.930
 119344737.67547  92995971.30944  22710553.7734                   22710563.5904
 108306414.72148  84394708.40446  20610013.3984                   20610022.4494
 121400876.87847  94598161.38744  23101824.1954                   23101835.2384
 109112667.70748  85022950.39246  20763438.1334                   20763444.3524
 11  7 25  1 29  0.0000000  0  9G10G28G12G17G05G09G04G27G02
 111946188.68247  87230895.26845  21302642.4064                   21302651.6374
 126490191.19746  98563855.07443  24070285.1414                   24070295.4024
 117538251.725 7                  22366785.414
 118148530.718 7                  22482907.625
 123750809.256 7                  23548994.805
 119404341.53647  93042415.83145  22721895.8364                   22721906.6564
 108363700.78448  84439346.90046  20620914.6334                   20620923.5164
 121453490.30947  94639158.81444  23111836.2194                   23111847.0784
 109085421.54348  85001719.63046  20758252.9384                   20758259.4574
 11  7 25  1 29 30.0000000  0  9G10G28G12G17G05G09G04G27G02
 111895730.86048  87191577.53746  21293041.0164                   21293049.7774
 126589791.45746  98641465.66243  24089239.2274                   24089248.6174
 117455279.680 7                  22350996.539
 118194610.306 7                  22491676.914
 123645212.031 7                  23528900.117
 119464356.06747  93089180.35544  22733316.6724                   22733326.9924
 108421316.06348  84484241.93146  20631878.3444                   20631887.3324
 121506372.05347  94680365.30144  23121899.5394                   23121910.6604
 109058536.90148  84980770.57746  20753137.0234                   20753143.9384
 11  7 25  1 30  0.0000000  0  9G10G28G12G17G05G09G04G27G02
 111845790.62948  87152663.11745  21283537.5004                   21283546.8244
 126689604.26246  98719241.89443  24108232.2974                   24108242.6994
 117372567.713 7                  22335256.867
 118240808.960 7                  22500467.719
 123539683.108 7                  23508818.539
 119524777.83747  93136262.21545  22744814.5784                   22744824.6564
 108479257.99848  84529391.49246  20642904.3674                   20642913.6174
 121559519.32947  94721778.70944  23132013.3594                   23132024.2274
 109032013.08548  84960102.68546  20748089.8524                   20748096.1884
 11  7 25  1 30 30.0000000  0  9G10G28G12G17G05G09G04G27G02
 111796370.36248  87114153.86445  21274132.7344                   21274141.9454
 126789627.68146  98797182.24143  24127266.3284                   24127275.5634
 117290118.102 7                  22319567.133
 118287127.420 7                  22509281.664
 123434225.642 7                  23488750.563
 119585604.10547  93183659.25244  22756389.3594                   22756399.7424
 108537524.41248  84574793.90846  20653992.1564                   20654000.8054
 121612929.48247  94763396.95544  23142176.6564                   23142187.5904
 109005849.74348  84939715.69046  20743110.8984                   20743117.3594
 11  7 25  1 31  0.0000000  0  9G10G28G12G17G05G09G04G27G02
 111747472.30448  87076051.52245  21264827.9924                   21264837.3524
 126889859.86046  98875285.23342  24146339.2424                   24146349.8164
 117207933.417 7                  22303927.727
 118333565.872 7                  22518118.664
 123328842.205 7                  23468696.289
 119646831.30147  93231368.71045  22768040.5554                   22768050.7934
 108596112.77348  84620447.18946  20665141.2344                   20665149.9224
 121666599.94647  94805218.03544  23152389.9144                   23152400.5634
 108980046.16748  84919609.02946  20738200.7504                   20738207.1334
 11  7 25  1 31 30.0000000  0  9G10G28G12G17G05G09G04G27G02
 111699099.44348  87038358.41845  21255622.9774                   21255632.3204
 126990299.15946  98953549.71042  24165452.3284                   24165462.1954
 117126016.632 7                  22288339.570
 118380125.222 7                  22526978.477
 123223536.079 7                  23448657.039
 119708456.48747  93279388.29145  22779767.1024                   22779777.2854
 108655021.06548  84666349.75846  20676351.0634                   20676360.2624
 121720528.68447  94847240.38144  23162652.4384                   23162662.9104
 108954602.58348  84899782.88946  20733358.9384                   20733365.6414
 11  7 25  1 32  0.0000000  0  9G10G28G12G17G05G09G04G27G02
 111651253.85247  87001076.18045  21246518.1024                   21246527.1914
 127090943.38145  99031973.73542  24184603.6094                   24184615.1134
 117044370.066 7                  22272802.711
 118426805.896 7                  22535862.000
 123118310.152 7                  23428633.516
 119770476.43947  93327715.47944  22791568.8834                   22791579.8484
 108714246.92548  84712499.78746  20687621.4454                   20687630.2584
 121774712.60147  94889461.55544  23172963.3914                   23172974.1844
 108929518.04648  84880236.51546  20728585.6094                   20728592.2034
 11  7 25  1 32 30.0000000  0  9G10G28G12G17G05G09G04G27G02
 111603938.07848  86964206.78445  21237514.1024                   21237523.5474
 127191791.01845  99110556.24142  24203794.2114                   24203805.6374
 116962996.435 7                  22257317.727
 118473608.288 7                  22544767.805
 123013167.626 7                  23408626.055
 119832888.25247  93376348.00944  22803446.1024                   22803456.8134
 108773788.16448  84758895.57646  20698951.1094                   20698960.2814
 121829149.58147  94931879.94444  23183322.6804                   23183333.1994
 108904792.25248  84860969.68346  20723880.1484                   20723886.9144
 11  7 25  1 33  0.0000000  0  9G10G28G12G17G05G09G04G27G02
 111557153.42848  86927751.25145  21228611.4064                   21228620.8674
 127292839.34945  99189295.21542  24223023.8594                   24223034.6684
 116881897.857 7                  22241885.063
 118520532.820 7                  22553697.195
 122908110.590 7                  23388633.680
 119895688.07147  93425282.86944  22815396.5004                   22815406.5434
 108833641.80148  84805534.77746  20710341.2344                   20710350.3284
 121883836.37547  94974492.96044  23193728.5394                   23193739.8524
 108880424.15348  84841981.58646  20719243.4534                   20719250.0084
 11  7 25  1 33 30.0000000  0  9G10G28G12G17G05G09G04G27G02
 111510902.73148  86891711.79045  21219809.8524                   21219819.5354
 127394086.40446  99268188.94843  24242290.3054                   24242301.6054
 116801077.201 7                  22226505.523
 118567579.334 7                  22562650.305
 122803142.138 7                  23368658.648
 119958872.89347  93474517.74645  22827420.0784                   22827430.1994
 108893805.43248  84852415.52546  20721790.0314                   20721799.1174
 121938770.44947  95017298.69844  23204182.2974                   23204192.9184
 108856413.05048  84823271.66346  20714673.8204                   20714680.5004
 11  7 25  1 34  0.0000000  0  9G10G28G12G17G05G09G04G27G02
 111465188.78548  86856090.57145  21211111.0314                   21211120.1174
 127495530.56546  99347236.35043  24261594.6644                   24261605.2194
 116720537.152 7                  22211179.648
 118614749.440 7                  22571626.539
 122698265.843 7                  23348701.383
 120022440.18647  93524050.65044  22839516.8674                   22839527.2424
 108954277.72448  84899536.78246  20733297.5164                   20733306.8554
 121993949.73747  95060295.50744  23214682.4694                   23214693.7154
 108832759.33348  84804840.22546  20710172.8284                   20710179.5044
 11  7 25  1 34 30.0000000  0  9G10G28G12G17G05G09G04G27G02
 111420013.74748  86820889.28446  21202514.1254                   21202523.3714
 127597170.16946  99426435.98643  24280936.5474                   24280946.7854
 116640280.253 7                  22195906.914
 118662043.539 7                  22580625.828
 122593484.318 7                  23328762.398
 120086386.28946  93573878.74744  22851684.8364                   22851695.9024
 109015055.74648  84946896.26446  20744863.1254                   20744872.1524
 122049371.54947  95103481.28244  23225228.8364                   23225240.2384
 108809462.43848  84786686.83046  20705739.6804                   20705746.1994
 11  7 25  1 35  0.0000000  0  9G10G28G12G17G05G09G04G27G02
 111375379.31348  86786109.23645  21194020.6564                   21194029.3014
 127699002.46446  99505785.81743  24300314.4064                   24300324.6994
 116560309.029 7                  22180689.063
 118709461.560 7                  22589649.609
 122488800.372 7                  23308841.414
 120150707.68647  93623999.23444  22863925.3204                   22863935.6334
 109076136.81947  84994491.89046  20756486.6484                   20756495.8754
 122105032.65247  95146853.54344  23235821.1724                   23235832.4804
 108786521.03848  84768810.43846  20701373.7894                   20701380.5044
 11  7 25  1 35 30.0000000  0  9G10G28G12G17G05G09G04G27G02
 111331287.87848  86751752.31345  21185629.9224                   21185639.4844
 127801025.79346  99585284.53343  24319729.0864                   24319738.8554
 116480625.620 7                  22165525.734
 118757004.412 7                  22598696.461
 122384216.842 7                  23288939.453
 120215401.57346  93674409.99844  22876236.3054                   22876246.6604
 109137518.90348  85042322.05346  20768167.3834                   20768176.2074
 122160930.65447  95190410.38744  23246457.6094                   23246468.6914
 108763934.74048  84751210.75246  20697075.9534                   20697082.6604
 11  7 25  1 36  0.0000000  0  8G10G12G17G05G09G04G27G02
 111287742.20648  86717820.65645  21177343.8594                   21177353.0984
 116401233.849 7                  22150417.703
 118804673.073 7                  22607767.797
 122279737.393 7                  23269057.969
 120280465.19546  93725108.87744  22888617.2504                   22888628.0204
 109199200.56148  85090385.67346  20779904.6174                   20779914.0594
 122217063.74947  95234150.44044  23257140.0084                   23257150.5474
 108741703.82048  84733887.98546  20692845.3984                   20692852.0314
 11  7 25  1 36 30.0000000  0  8G10G12G17G05G09G04G27G02
 111244744.08948  86684315.66945  21169161.1804                   21169170.4534
 116322135.632 7                  22135365.531
 118852467.655 7                  22616862.641
 122175364.595 7                  23249196.328
 120345894.79646  93776092.92544  22901068.0004                   22901078.1954
 109261178.77848  85138680.36346  20791698.9144                   20791708.0474
 122273428.73647  95278071.16644  23267866.0634                   23267876.8244
 108719827.36748  84716841.42946  20688682.4924                   20688689.0784
 11  7 25  1 37  0.0000000  0  8G10G12G17G05G09G04G27G02
 111202294.85448  86651238.38846  21161083.9384                   21161092.3794
 116243332.915 7                  22120370.070
 118900388.185 7                  22625981.969
 122071101.059 7                  23229355.328
 120411686.73447  93827359.32844  22913587.8054                   22913598.7074
 109323450.72247  85187203.93946  20803548.5004                   20803558.0704
 122330022.38247  95322170.06544  23278635.0944                   23278645.9304
 108698304.00148  84700069.99846  20684586.8834                   20684592.9534
 11  7 25  1 37 30.0000000  0  8G10G12G17G05G09G04G27G02
 111160396.75848  86618590.56645  21153110.8984                   21153119.4734
 116164828.333 7                  22105431.242
 118948435.091 7                  22635124.539
 121966949.243 7                  23209536.141
 120477837.69546  93878905.47844  22926176.5004                   22926186.9104
 109386013.82047  85235954.37846  20815454.5474                   20815463.1604
 122386841.96847  95366445.01644  23289447.9534                   23289458.6254
 108677132.88248  84683573.05646  20680557.6484                   20680564.3984
 11  7 25  1 38  0.0000000  0  8G10G12G17G05G09G04G27G02
 111119053.00148  86586374.68045  21145243.2194                   21145252.1844
 116086625.121 7                  22090549.063
 118996609.569 7                  22644291.703
 121862912.927 7                  23189737.641
 120544345.20247  93930729.47144  22938832.2584                   22938842.7074
 109448866.87048  85284930.75946  20827414.8914                   20827423.7114
 122443885.70147  95410894.64344  23300302.6954                   23300313.5044
 108656314.72048  84667351.12546  20676596.3284                   20676602.7704
 11  7 25  1 38 30.0000000  0  8G10G12G17G05G09G04G27G02
 111078265.20248  86554592.01846  21137481.3284                   21137490.7194
 116008725.564 7                  22075725.656
 119044911.829 7                  22653483.781
 121758994.953 7                  23169963.438
 120611205.47747  93982828.33244  22951555.6024                   22951565.5864
 109512007.04648  85334130.88446  20839429.8754                   20839439.4694
 122501150.51947  95455516.51744  23311199.9384                   23311211.3094
 108635848.27248  84651403.27346  20672701.6954                   20672708.2344
 11  7 25  1 39  0.0000000  0  8G10G12G17G05G09G04G27G02
 111038035.02148  86523243.85945  21129826.0554                   21129835.0744
 115931132.089 7                  22060960.352
 119093342.236 7                  22662699.977
 121655197.888 7                  23150210.883
 120678414.85946  94035199.22444  22964344.9144                   22964355.5514
 109575431.57447  85383552.57946  20851499.2194                   20851508.3554
 122558633.40247  95500308.30744  23322139.2034                   23322149.3984
 108615732.49648  84635728.66546  20668873.8284                   20668880.5634
 11  7 25  1 39 30.0000000  0  8G10G12G17G05G09G04G27G02
 110998364.16048  86492331.52445  21122277.1884                   21122285.9064
 115853846.968 7                  22046253.516
 119141901.095 7                  22671940.773
 121551524.777 7                  23130482.938
 120745969.85447  94087839.47344  22977200.1954                   22977210.7194
 109639138.06847  85433193.99546  20863622.2194                   20863631.2234
 122616331.65147  95545267.93344  23333118.5634                   23333129.5984
 108595966.35748  84620326.50246  20665112.2974                   20665119.1954
 11  7 25  1 40  0.0000000  0  8G10G12G17G05G09G04G27G02
 110959255.53448  86461857.30246  21114834.5084                   21114843.5784
 115776873.439 7                  22031605.773
 119190589.639 7                  22681205.055
 121447979.006 7                  23110778.422
 120813868.01047  94140747.08044  22990120.3674                   22990131.1684
 109703124.96248  85483053.90346  20875798.7034                   20875808.0824
 122674243.22147  95590393.75644  23344138.9614                   23344150.0274
 108576550.60348  84605197.36446  20661417.6954                   20661424.2154
 11  7 25  1 40 30.0000000  0  8G10G12G17G05G09G04G27G02
 110920710.84448  86431822.50745  21107499.7584                   21107509.0554
 115700213.940 7                  22017018.102
 119239408.144 7                  22690495.648
 121344563.411 7                  23091099.430
 120882105.57947  94193919.17544  23003105.6254                   23003116.7114
 109767389.80748  85533130.39846  20888027.9844                   20888037.0594
 122732365.15547  95635683.50144  23355198.9774                   23355209.6214
 108557483.99248  84590340.27646  20657789.6884                   20657795.9414
 11  7 25  1 41  0.0000000  0  8G10G12G17G05G09G04G27G02
 110882731.92948  86402228.58445  21100273.0164                   21100281.7974
 115623871.050 7                  22002490.203
 119288356.836 7                  22699810.023
 121241281.112 7                  23071445.211
 120950679.41046  94247353.29744  23016154.9694                   23016165.5044
 109831930.03447  85583421.47546  20900309.6414                   20900318.2464
 122790694.66747  95681134.99744  23366299.0784                   23366310.0394
 108538765.77848  84575754.67146  20654227.4304                   20654233.8164
 11  7 25  1 41 30.0000000  0  8G10G12G17G05G09G04G27G02
 110845320.69948  86373077.00746  21093153.8914                   21093162.8874
 115547847.437 7                  21988023.297
 119337436.660 7                  22709149.820
 121138134.817 7                  23051817.273
 121019586.21647  94301046.87644  23029268.4454                   23029278.3874
 109896743.67248  85633925.59946  20912643.0864                   20912652.4104
 122849229.27547  95726746.29844  23377437.3984                   23377448.8834
 108520395.71948  84561440.35946  20650731.9454                   20650738.2274
 11  7 25  1 42  0.0000000  0  8G10G12G17G05G09G04G27G02
 110808478.80848  86344369.06746  21086142.6094                   21086151.5704
 115472145.018 8                  21973617.695
 119386647.585 7                  22718513.875
 121035127.061 7                  23032215.391
 121088822.30647  94354997.04044  23042443.2344                   23042453.4924
 109961827.49048  85684640.25546  20925028.4454                   20925037.2734
 122907965.86746  95772514.97544  23388614.8444                   23388626.1054
 108502371.99448  84547395.91046  20647301.6954                   20647308.1994
 11  7 25  1 42 30.0000000  0  8G10G12G17G05G09G04G27G02
 110772208.33248  86316106.39246  21079240.3594                   21079249.6764
 115396766.725 7                  21959273.570
 119435990.444 7                  22727903.148
 120932261.389 7                  23012640.031
 121158384.57847  94409201.36644  23055680.4224                   23055691.0314
 110027179.98548  85735564.28146  20937464.3134                   20937473.7974
 122966901.90947  95818439.08544  23399830.3594                   23399841.3484
 108484694.55948  84533621.30746  20643938.2424                   20643944.5434
 11  7 25  1 43  0.0000000  0  8G10G12G17G05G09G04G27G02
 110736511.22648  86288290.49645  21072447.5394                   21072456.4024
 115321714.923 7                  21944991.438
 119485465.524 7                  22737318.352
 120829540.383 7                  22993092.906
 121228269.66247  94463657.24244  23068978.8364                   23068989.8524
 110092798.64648  85786695.69146  20949951.1484                   20949960.4694
 123026034.65247  95864516.45644  23411082.9224                   23411094.5394
 108467362.35448  84520115.71246  20640639.9144                   20640646.2934
 11  7 25  1 43 30.0000000  0  8G10G12G17G05G09G04G27G02
 110701389.59848  86260923.02945  21065764.2814                   21065773.2034
 115246992.585 7                  21930772.195
 119535073.867 7                  22746757.875
 120726967.602 7                  22973573.914
 121298474.62847  94518362.37844  23082338.5784                   23082349.3094
 110158681.38247  85838032.87346  20962488.1414                   20962497.3134
 123085361.69946  95910745.24144  23422372.1254                   23422383.8674
 108450375.55748  84506879.26546  20637407.3054                   20637413.3444
 11  7 25  1 44  0.0000000  0  8G10G12G17G05G09G04G27G02
 110666844.88948  86234005.11746  21059190.6564                   21059199.7194
 115172602.106 7                  21916616.297
 119584815.840 7                  22756224.477
 120624545.502 7                  22954083.320
 121368995.70347  94573313.83244  23095758.0634                   23095768.9304
 110224825.54848  85889573.77646  20975074.9924                   20975084.0314
 123144880.31646  95957123.29144  23433698.3834                   23433710.1024
 108433732.98748  84493911.04746  20634240.5234                   20634246.9024
 11  7 25  1 44 30.0000000  0  8G10G12G17G05G09G04G27G02
 110632878.87448  86207538.13146  21052727.1094                   21052735.7074
 115098546.064 8                  21902524.078
 119634691.673 7                  22765714.813
 120522277.107 7                  22934622.336
 121439829.59247  94628509.02344  23109237.2734                   23109247.8244
 110291229.05548  85941316.74946  20987711.1414                   20987720.5634
 123204587.40146  96003648.17544  23445060.2974                   23445071.9384
 108417433.68348  84481210.30646  20631138.4924                   20631145.1174
 11  7 25  1 45  0.0000000  0  8G10G12G17G05G09G04G27G02
 110599493.38548  86181523.51146  21046374.0474                   21046382.5314
 115024826.701 8                  21888495.820
 119684702.247 7                  22775231.844
 120420165.729 7                  22915191.313
 121510973.16547  94683945.51944  23122776.2344                   23122786.5904
 110357889.68348  85993260.07846  21000396.4614                   21000405.7074
 123264480.50546  96050318.07343  23456457.8134                   23456468.7544
 108401477.27948  84468776.76146  20628102.0944                   20628108.5314
 11  7 25  1 45 30.0000000  0  8G10G12G17G05G09G04G27G02
 110566689.92048  86155962.41045  21040131.4924                   21040140.0274
 114951446.769 8                  21874531.625
 119734847.756 7                  22784773.938
 120318213.765 7                  22895790.523
 121582422.57646  94739620.33644  23136371.7194                   23136383.3874
 110424804.61848  86045401.58146  21013130.0004                   21013138.7894
 123324556.42946  96097130.40744  23467890.2584                   23467901.2464
 108385862.39048  84456609.33346  20625130.7584                   20625137.5164
 11  7 25  1 46  0.0000000  0  8G10G12G17G05G09G04G27G02
 110534470.39348  86130856.32846  21034000.4694                   21034009.4414
 114878408.934 7                  21860633.359
 119785128.805 7                  22794342.250
 120216424.674 7                  22876420.563
 121654174.69247  94795531.01544  23150026.8834                   23150037.3484
 110491972.07248  86097739.85046  21025911.3914                   21025920.4344
 123384812.73446  96144083.30443  23479356.3204                   23479367.4734
 108370588.73648  84444707.79746  20622224.1804                   20622230.8444
 11  7 25  1 46 30.0000000  0  8G10G12G17G05G09G04G27G02
 110502836.60548  86106206.67046  21027980.5314                   21027989.3324
 114805715.715 8                  21846800.102
 119835546.109 7                  22803936.742
 120114801.470 7                  22857082.055
 121726226.03347  94851674.85544  23163737.0394                   23163748.3594
 110559389.73648  86150273.08146  21038740.2664                   21038749.5824
 123445246.78646  96191174.69443  23490856.0634                   23490867.7584
 108355655.53948  84433071.54846  20619382.8674                   20619389.2544
 11  7 25  1 47  0.0000000  0  8G10G12G17G05G09G04G27G02
 110471790.30348  86082014.79546  21022072.5474                   21022081.5314
 114733369.517 7                  21833033.156
 119886100.076 7                  22813556.664
 120013347.019 7                  22837775.977
 121798573.33047  94908049.32044  23177504.5634                   23177515.4384
 110627055.34748  86202999.52946  21051616.8594                   21051625.6644
 123505855.88046  96238402.49944  23502390.5314                   23502401.4964
 108341061.96548  84421699.94046  20616605.3674                   20616612.1564
 11  7 25  1 47 30.0000000  0  8G10G12G17G05G09G04G27G02
 110441332.60248  86058281.56346  21016276.7584                   21016285.5864
 114661372.529 7                  21819332.563
 119936791.330 7                  22823203.039
 119912063.937 7                  22818502.313
 121871212.70347  94964651.36044  23191327.3284                   23191337.6374
 110694966.23048  86255917.11046  21064539.7424                   21064549.3554
 123566636.89946  96285764.28544  23513955.9384                   23513968.2154
 108326806.82148  84410592.04646  20613892.5784                   20613899.3874
 11  7 25  1 48  0.0000000  0  8G10G12G17G05G09G04G27G02
 110411465.87748  86035008.83446  21010593.1644                   21010602.4144
 114589727.928 7                  21805698.906
 119987620.364 7                  22832874.695
 119810955.823 7                  22799261.750
 121944141.59747  95021479.00044  23205205.5474                   23205216.5084
 110763120.90648  86309024.64646  21077509.4774                   21077518.7584
 123627587.89447  96333258.52943  23525555.3364                   23525566.1994
 108312890.23747  84399747.96846  20611244.6334                   20611251.0474
 11  7 25  1 48 30.0000000  0  8G10G12G17G05G09G04G27G02
 110382190.86848  86012197.17946  21005022.6564                   21005031.5744
 114518438.207 7                  21792132.992
 120038587.088 7                  22842574.734
 119710025.201 7                  22780054.945
 122017356.26947  95078529.33044  23219137.5234                   23219148.4734
 110831516.34548  86362319.80646  21090524.3054                   21090533.2854
 123688705.52547  96380882.59844  23537185.3284                   23537197.0354
 108299310.58848  84389166.43546  20608660.5634                   20608667.1914
 11  7 25  1 49  0.0000000  0  8G10G12G17G05G09G04G27G02
 110353509.07048  85989847.77545  20999564.5784                   20999573.2814
 114447505.480 7                  21778634.859
 120089692.398 7                  22852299.734
 119609275.088 7                  22760882.695
 122090853.15546  95135799.55244  23233123.9454                   23233134.1764
 110900150.36248  86415800.86046  21103584.8594                   21103594.5744
 123749986.85247  96428634.24544  23548846.9304                   23548858.4884
 108286067.08148  84378846.83846  20606140.3134                   20606147.3204
 11  7 25  1 49 30.0000000  0  8G10G12G17G05G09G04G27G02
 110325422.72848  85967962.34746  20994219.3364                   20994228.8754
 114376932.327 7                  21765205.211
 120140937.096 7                  22862050.523
 119508708.611 7                  22741745.695
 122164629.02747  95193287.16244  23247162.6884                   23247173.5594
 110969021.11148  86469466.39546  21116690.7114                   21116700.1724
 123811429.71247  96476511.77444  23560539.3984                   23560550.7034
 108273159.34948  84368788.87146  20603683.9304                   20603690.4964
 11  7 25  1 50  0.0000000  0  8G10G12G17G05G09G04G27G02
 110297932.83848  85946541.69646  20988988.2424                   20988996.8794
 114306721.350 8                  21751844.680
 120192321.302 7                  22871828.281
 119408328.759 7                  22722643.875
 122238680.23547  95250989.32844  23261254.3524                   23261265.4614
 111038125.99948  86523314.37446  21129840.4224                   21129850.2814
 123873030.90547  96524512.69543  23572261.5234                   23572272.2544
 108260586.03248  84358991.49246  20601291.2194                   20601297.7304
 11  7 25  1 50 30.0000000  0  8G10G12G17G05G09G04G27G02
 110271041.59848  85925587.51746  20983871.3914                   20983880.2974
 114236875.339 8                  21738553.414
 120243846.014 7                  22881633.883
 119308138.995 7                  22703578.664
 122313003.86646  95308903.77944  23275397.6254                   23275409.2814
 111107463.34848  86577343.49246  21143035.3284                   21143044.4024
 123934788.10547  96572635.17844  23584013.6024                   23584024.8484
 108248347.13048  84349454.69646  20598962.3284                   20598968.7384
 11  7 25  1 51  0.0000000  0  8G10G12G17G05G09G04G27G02
 110244750.42748  85905100.93046  20978868.0474                   20978876.6884
 114167396.719 8                  21725331.977
 120295511.775 7                  22891464.930
 119208141.846 7                  22684550.063
 122387596.33447  95367027.71044  23289592.2584                   23289602.3284
 111177030.57548  86631551.73646  21156273.5234                   21156282.8444
 123996698.44347  96620876.96544  23595794.7114                   23595806.2194
 108236441.63348  84340177.68946  20596696.7664                   20596703.1844
 11  7 25  1 51 30.0000000  0  8G10G12G17G05G09G04G27G02
 110219060.37348  85885082.73046  20973979.3054                   20973988.1454
 114098287.943 8                  21712180.211
 120347318.930 7                  22901323.367
 119108340.118 7                  22665558.305
 122462454.00847  95425358.29444  23303837.3134                   23303848.9304
 111246825.39948  86685937.32546  21169555.0944                   21169564.2304
 124058759.00047  96669235.82244  23607604.5554                   23607615.9534
 108224868.36148  84331159.55646  20594494.7274                   20594501.3404
 11  7 25  1 52  0.0000000  0  9G10G25G12G17G05G09G04G27G02
 110193972.39548  85865533.67846  20969205.7584                   20969214.5204
 129463550.09516                  24636103.234
 114029551.363 8                  21699100.898
 120399267.747 6                  22911208.961
 119008736.869 7                  22646604.078
 122537573.44747  95483892.87544  23318131.4924                   23318142.7304
 111316845.42848  86740498.39846  21182879.3834                   21182888.5204
 124120966.76746  96717709.36443  23619442.3984                   23619453.6334
 108213626.21248  84322399.44546  20592355.2974                   20592361.5864
 11  7 25  1 52 30.0000000  0  9G10G25G12G17G05G09G04G27G02
 110169488.13648  85846455.06646  20964546.3524                   20964555.3914
 129360320.130 7                  24616459.031
 113961189.558 8                  21686091.656
 120451358.918 6                  22921121.477
 118909335.208 7                  22627688.711
 122612951.34847  95542628.83444  23332476.2734                   23332486.4184
 111387088.75548  86795233.45346  21196246.2034                   21196255.7464
 124183319.45746  96766295.85043  23631307.4144                   23631318.5824
 108202714.69348  84313896.97146  20590278.9614                   20590285.3954
 11  7 25  1 53  0.0000000  0  9G10G25G12G17G05G09G04G27G02
 110145609.00648  85827847.97546  20960002.4384                   20960011.0744
 129257200.952 6                  24596836.125
 113893204.860 8                  21673154.781
 120503593.000 7                  22931060.992
 118810138.182 7                  22608811.992
 122688584.44247  95601563.65444  23346868.6644                   23346879.8014
 111457553.13548  86850140.76046  21209655.2894                   21209664.5004
 124245814.21247  96814993.03244  23643199.9694                   23643211.4694
 108192133.09648  84305651.58346  20588265.2424                   20588271.6684
 11  7 25  1 53 30.0000000  0  9G10G25G12G17G05G09G04G27G02
 110122336.20048  85809713.34946  20955573.6724                   20955582.4694
 129154194.662 6                  24577234.984
 113825599.757 8                  21660289.805
 120555970.182 7                  22941028.766
 118711148.469 7                  22589974.570
 122764469.04247  95660694.48644  23361309.1334                   23361319.6724
 111528235.85548  86905218.19645  21223105.3054                   21223114.5664
 124308447.80847  96863798.38243  23655119.3134                   23655129.6134
 108181879.70648  84297661.94546  20586313.8364                   20586320.7704
 11  7 25  1 54  0.0000000  0  9G10G25G12G17G05G09G04G27G02
 110099671.18748  85792052.32546  20951260.5784                   20951269.1374
 129051303.967 6                  24557655.109
 113758376.790 8                  21647497.703
 120608491.486 7                  22951023.305
 118612369.207 7                  22571177.398
 122840601.95247  95720018.80844  23375796.7114                   23375807.0634
 111599135.09548  86960464.34646  21236597.4064                   21236606.5044
 124371217.83246  96912710.02143  23667063.9844                   23667075.0204
 108171954.40048  84289927.94946  20584425.2664                   20584431.9264
 11  7 25  1 54 30.0000000  0  9G10G25G12G17G05G09G04G27G02
 110077615.15548  85774865.83645  20947063.4304                   20947071.8874
 128948531.535 6                  24538097.781
 113691538.350 8                  21634778.648
 120661157.197 7                  22961045.438
 118513803.467 7                  22552420.711
 122916979.65747  95779533.87744  23390330.7734                   23390341.8094
 111670248.85148  87015877.65246  21250130.1334                   21250139.1524
 124434121.45746  96961725.77143  23679034.0864                   23679045.7344
 108162356.37648  84282448.99446  20582599.0084                   20582605.7504
 11  7 25  1 55  0.0000000  0  9G10G25G12G17G05G09G04G27G02
 110056169.24248  85758154.76946  20942982.3204                   20942991.5274
 128845879.681 6                  24518563.563
 113625087.107 8                  21622133.430
 120713967.888 7                  22971094.609
 118415454.256 7                  22533705.883
 122993598.93947  95839237.19744  23404911.6484                   23404922.1214
 111741574.76147  87071456.26545  21263703.0474                   21263712.0474
 124497155.81246  97010843.37943  23691028.3834                   23691040.4304
 108153084.61947  84275224.26946  20580834.5704                   20580841.1254
 11  7 25  1 55 30.0000000  0  9G10G25G12G17G05G09G04G27G02
 110035334.80648  85741920.18246  20939017.7114                   20939026.6374
 128743350.914 7                  24499052.945
 113559025.433 8                  21609562.234
 120766923.724 7                  22981172.047
 118317324.507 7                  22515032.492
 123070456.22147  95899125.98744  23419536.8524                   23419546.6644
 111813110.47948  87127198.37346  21277315.6484                   21277324.8094
 124560318.45746  97060060.91043  23703048.3284                   23703059.7664
 108144137.99148  84268252.88646  20579131.9224                   20579138.5634
 11  7 25  1 56  0.0000000  0  9G10G25G12G17G05G09G04G27G02
 110015112.69848  85726162.73546  20935169.4844                   20935178.0234
 128640947.475 7                  24479566.359
 113493355.704 8                  21597065.758
 120820025.524 7                  22991276.883
 118219416.934 7                  22496400.805
 123147547.88947  95959197.39744  23434206.5944                   23434216.9184
 111884853.70648  87183102.16946  21290968.2274                   21290977.3284
 124623606.17946  97109375.94143  23715090.9064                   23715103.5784
 108135515.48748  84261534.07546  20577491.1484                   20577497.2974
 11  7 25  1 56 30.0000000  0  9G10G25G12G17G05G09G04G27G02
 109995504.43348  85710883.60646  20931437.9064                   20931447.1604
 128538672.208 7                  24460103.805
 113428080.791 7                  21584644.211
 120873273.698 7                  23001409.758
 118121734.787 7                  22477812.531
 123224870.55047  96019448.82943  23448920.5944                   23448931.7114
 111956802.70848  87239166.29546  21304659.4534                   21304668.6254
 124687016.65746  97158786.60143  23727158.0864                   23727169.6724
 108127216.64248  84255067.47246  20575912.0474                   20575918.4804
 11  7 25  1 57  0.0000000  0  9G10G25G12G17G05G09G04G27G02
 109976510.50848  85696083.17946  20927823.8134                   20927832.8324
 128436527.226 6                  24440666.359
 113363202.360 8                  21572298.477
 120926668.744 7                  23011571.227
 118024280.794 7                  22459267.523
 123302420.72447  96079877.56744  23463677.7504                   23463688.5234
 112028954.74848  87295388.64946  21318389.5554                   21318398.6764
 124750546.84946  97208290.52343  23739247.4924                   23739259.4924
 108119239.96048  84248851.90446  20574394.3284                   20574400.6844
 11  7 25  1 57 30.0000000  0  9G10G25G12G17G05G09G04G27G02
 109958132.49648  85681762.68746  20924326.6884                   20924335.3914
 128334515.196 6                  24421253.820
 113298722.942 8                  21560028.344
 120980210.978 7                  23021759.156
 117927057.881 7                  22440766.961
 123380194.90247  96140480.79444  23478477.9144                   23478489.0554
 112101307.97248  87351767.76346  21332158.0394                   21332167.4264
 124814194.06046  97257885.64243  23751359.7274                   23751371.0784
 108111584.58348  84242886.71146  20572937.4614                   20572944.1094
 11  7 25  1 58  0.0000000  0  9G10G25G12G17G05G09G04G27G02
 109940371.62248  85667923.08246  20920946.4694                   20920955.4224
 128232638.867 6                  24401867.531
 113234645.452 7                  21547835.063
 121033901.218 7                  23031976.281
 117830069.417 7                  22422310.164
 123458189.93547  96201256.16844  23493319.5704                   23493330.9924
 112173860.56448  87408302.23346  21345964.0704                   21345973.0594
 124877955.54446  97307569.82143  23763493.4304                   23763504.7894
 108104250.09448  84237171.56246  20571541.4614                   20571547.9064
 11  7 25  1 58 30.0000000  0  9G10G25G12G17G05G09G04G27G02
 109923228.55548  85654564.89446  20917684.5864                   20917692.8484
 128130900.359 6                  24382507.461
 113170971.849 7                  21535718.211
 121087739.748 7                  23042221.203
 117733318.176 7                  22403898.914
 123536402.36647  96262200.88044  23508203.4844                   23508214.4344
 112246609.78248  87464989.92146  21359807.7504                   21359817.1374
 124941828.24446  97357340.66143  23775647.8674                   23775659.0314
 108097235.02248  84231705.30746  20570206.5084                   20570213.0434
 11  7 25  1 59  0.0000000  0  9G10G25G12G17G05G09G04G27G02
 109906704.61348  85641689.13646  20914539.7974                   20914548.8364
 128029302.522 6                  24363173.875
 113107704.805 7                  21523678.367
 121141727.203 7                  23052494.641
 117636806.951 7                  22385533.648
 123614828.80846  96323312.35744  23523127.2734                   23523138.1294
 112319553.70348  87521829.31746  21373688.5314                   21373697.6414
 125005809.64346  97407196.17544  23787822.8754                   23787835.0904
 108090538.69948  84226487.43746  20568932.0004                   20568938.4964
 11  7 25  1 59 30.0000000  0  9G10G25G12G17G05G09G04G27G02
 109890800.85248  85629296.64246  20911513.5704                   20911522.0594
 127927847.886 6                  24343868.102
 113044846.972 7                  21511717.148
 121195864.345 7                  23062796.922
 117540539.140 7                  22367214.055
 123693465.90846  96384587.99944  23538091.8984                   23538102.5084
 112392690.51548  87578819.02446  21387606.0554                   21387615.3054
 125069897.13446  97457134.39644  23800018.5944                   23800030.3284
 108084160.69548  84221517.59346  20567718.5864                   20567725.6414
 11  7 25  2  0  0.0000000  0  9G10G25G12G17G05G09G04G27G02
 109875517.61648  85617387.65846  20908605.0634                   20908613.9494
 127826538.689 6                  24324590.211
 112982399.894 7                  21499834.023
 121250150.885 7                  23073127.313
 117444517.090 7                  22348942.469
 123772309.62846  96446024.62144  23553094.7894                   23553106.1684
 112466017.42248  87635956.85346  21401559.7274                   21401569.2734
 125134087.64047  97507152.88144  23812233.6174                   23812245.4304
 108078098.73548  84216794.02546  20566564.7114                   20566571.2854
 11  7 25  2  0 30.0000000  0  9G10G25G12G17G05G09G04G27G02
 109860856.22948  85605963.23846  20905815.0474                   20905823.8524
 127725377.639 7                  24305339.430
 112920366.398 8                  21488029.523
 121304587.666 7                  23083486.078
 117348744.126 7                  22330716.836
 123851356.60646  96507619.63644  23568136.9454                   23568147.5944
 112539532.60248  87693241.38645  21415549.4924                   21415558.6844
 125198378.44547  97557249.53144  23824467.6954                   23824479.9414
 108072352.39748  84212316.38846  20565471.4694                   20565477.7384
 11  7 25  2  1  0.0000000  0  9G10G25G12G17G05G09G04G27G02
 109846817.33348  85595023.86546  20903143.5704                   20903152.8364
 127624367.548 7                  24286118.523
 112858749.028 8                  21476303.805
 121359175.250 7                  23093873.250
 117253223.042 7                  22312539.984
 123930603.86546  96569370.66444  23583217.6334                   23583228.6134
 112613233.99448  87750671.02445  21429573.9844                   21429584.1214
 125262766.73347  97607422.16444  23836720.7584                   23836732.2664
 108066920.93748  84208084.11146  20564438.1484                   20564444.6024
 11  7 25  2  1 30.0000000  0  9G10G25G12G17G05G09G04G27G02
 109833401.52948  85584570.02546  20900590.5314                   20900599.4024
 127523510.613 7                  24266925.313
 112797549.650 8                  21464658.141
 121413914.008 7                  23104289.813
 117157956.610 7                  22294411.297
 124010047.60046  96631274.81444  23598335.0004                   23598345.8674
 112687119.35848  87808244.02845  21443634.2734                   21443643.2384
 125327249.66447  97657668.51444  23848991.2194                   23849003.4964
 108061803.11148  84204096.22146  20563463.7974                   20563470.0744
 11  7 25  2  2  0.0000000  0  9G10G25G12G17G05G09G04G27G02
 109820610.21347  85574602.78746  20898156.6024                   20898165.4184
 127422809.777 6                  24247763.484
 112736771.042 8                  21453092.289
 121468804.478 7                  23114734.797
 117062948.077 7                  22276332.094
 124089684.61946  96693329.55944  23613489.7424                   23613500.3134
 112761186.63047  87865958.79245  21457728.6644                   21457737.9694
 125391824.71347  97707986.67944  23861280.2274                   23861291.8954
 108056998.28648  84200352.23246  20562549.3524                   20562555.8914
 11  7 25  2  2 30.0000000  0  9G10G25G12G17G05G09G04G27G02
 109808443.99048  85565122.63546  20895841.2504                   20895850.1884
 127322267.410 6                  24228630.320
 112676415.710 8                  21441607.203
 121523847.165 6                  23125209.250
 116968200.354 7                  22258302.109
 124169511.43846  96755532.19044  23628679.9454                   23628691.0234
 112835433.83848  87923813.76545  21471857.2274                   21471866.8164
 125456488.71647  97758374.14643  23873585.0164                   23873596.7464
 108052505.24348  84196851.18246  20561694.5554                   20561700.9344
 11  7 25  2  3  0.0000000  0  9G10G25G12G17G05G09G04G27G02
 109796903.58248  85556130.13446  20893645.4384                   20893653.7894
 127221886.140 6                  24209528.672
 112616485.610 8                  21430202.938
 121579042.430 6                  23135712.344
 116873716.403 7                  22240322.188
 124249524.58846  96817880.00644  23643905.5084                   23643917.2194
 112909858.86548  87981807.30745  21486019.7664                   21486029.4804
 125521239.16047  97808828.98843  23885906.1564                   23885917.9734
 108048322.96748  84193592.28546  20560898.6414                   20560905.1254
 11  7 25  2  3 30.0000000  0  9G10G25G12G17G05G09G04G27G02
 109785990.00148  85547626.07146  20891568.6644                   20891577.1094
 127121668.635 6                  24190457.875
 112556983.758 8                  21418879.867
 121634390.889 7                  23146245.313
 116779499.034 7                  22222393.008
 124329720.83546  96880370.46544  23659167.1884                   23659178.3134
 112984459.60248  88039937.76245  21500215.9614                   21500225.3484
 125586073.61646  97859349.29443  23898243.5234                   23898255.8874
 108044450.72048  84190574.95246  20560161.6884                   20560168.3714
 11  7 25  2  4  0.0000000  0  9G10G25G12G17G05G09G04G27G02
 109775703.30247  85539610.48046  20889610.7664                   20889619.6994
 127021617.126 6                  24171418.438
 112497911.435 8                  21407638.711
 121689893.070 7                  23156806.813
 116685550.701 7                  22204514.867
 124410096.19046  96943000.53944  23674461.8594                   23674473.1484
 113059233.80748  88098203.39745  21514445.0784                   21514454.5044
 125650988.72146  97909932.44843  23910597.1174                   23910609.0904
 108040886.94548  84187797.99446  20559483.5234                   20559489.8444
 11  7 25  2  4 30.0000000  0  9G10G25G12G17G05G09G04G27G02
 109766044.80748  85532084.40846  20887773.0394                   20887781.9384
 126921734.464 6                  24152411.086
 112439271.272 8                  21396479.508
 121745549.296 6                  23167398.195
 116591875.163 7                  22186689.188
 124490647.71246  97005767.82944  23689790.5784                   23689802.0944
 113134179.52848  88156602.68145  21528706.7734                   21528715.6334
 125715981.84046  97960576.37843  23922964.4924                   23922976.5824
 108037631.00248  84185260.90846  20558864.0944                   20558870.5984
 11  7 25  2  5  0.0000000  0  9G10G25G12G17G05G09G04G27G02
 109757014.93347  85525048.16046  20886054.4304                   20886063.4734
 126822023.228 6                  24133437.180
 112381065.760 8                  21385403.602
 121801360.018 6                  23178018.438
 116498475.307 7                  22168915.594
 124571372.15046  97068669.89144  23705151.7584                   23705163.2814
 113209294.80848  88215134.08645  21543000.8444                   21543009.9384
 125781050.43646  98011279.12143  23935347.0004                   23935359.2934
 108034681.96148  84182962.95646  20558303.0164                   20558309.1524
 11  7 25  2  5 30.0000000  0  9G10G25G12G17G05G09G04G27G02
 109748614.44247  85518502.33546  20884456.1174                   20884465.2384
 126722486.108 6                  24114495.820
 112323297.490 8                  21374411.352
 121857325.760 6                  23188668.094
 116405353.722 7                  22151195.219
 124652266.03046  97131703.97544  23720545.8134                   23720557.0204
 113284577.61848  88273796.03045  21557326.5634                   21557335.8954
 125846191.73046  98062038.49142  23947742.7424                   23947755.6764
 108032038.89248  84180903.43546  20557799.8524                   20557806.4104
 11  7 25  2  6  0.0000000  0  9G10G25G12G17G05G09G04G27G02
 109740843.97548  85512447.45946  20882977.5944                   20882986.4964
 126623125.532 6                  24095588.680
 112265968.441 8                  21363501.422
 121913446.926 6                  23199348.203
 116312513.390 7                  22133528.320
 124733325.76546  97194867.32744  23735971.0704                   23735982.1994
 113360025.76548  88332586.82545  21571684.0704                   21571693.1334
 125911402.76246  98112852.21342  23960151.6174                   23960163.5434
 108029700.38848  84179081.22246  20557354.8134                   20557361.0824
 11  7 25  2  6 30.0000000  0  9G10G25G12G17G05G09G04G27G02
 109733703.76648  85506883.69346  20881618.7504                   20881627.2854
 126523944.121 6                  24076714.523
 112209080.699 8                  21352676.273
 121969724.131 6                  23210057.430
 116219957.030 7                  22115915.383
 124814547.77047  97258157.10144  23751426.8204                   23751438.5164
 113435637.14848  88391504.80045  21586072.0944                   21586081.3834
 125976680.84446  98163718.17142  23972574.1334                   23972585.5784
 108027665.50348  84177495.60846  20556967.9774                   20556974.3794
 11  7 25  2  7  0.0000000  0  9G10G25G12G17G05G09G04G27G02
 109727194.38448  85501811.47046  20880379.9694                   20880388.5824
 126424944.664 6                  24057875.070
 112152636.882 8                  21341935.430
 122026157.665 7                  23220795.805
 116127687.717 7                  22098356.805
 124895928.97846  97321570.92744  23766913.7114                   23766924.4104
 113511410.03048  88450548.61945  21600491.3914                   21600500.6884
 126042023.32246  98214634.32542  23985007.7734                   23985019.9734
 108025933.55748  84176146.04146  20556637.8594                   20556644.4804
 11  7 25  2  7 30.0000000  0  9G10G25G12G17G05G09G04G27G02
 109721316.76148  85497231.54146  20879261.2344                   20879269.6374
 126326129.561 6                  24039070.781
 112096639.092 8                  21331278.734
 122082748.103 6                  23231565.359
 116035708.660 7                  22080854.008
 124977465.94947  97385106.14444  23782429.8754                   23782441.4064
 113587342.14248  88509716.51345  21614940.7424                   21614949.8714
 126107427.41546  98265598.43342  23997454.3284                   23997466.4884
 108024503.21748  84175031.49346  20556366.0864                   20556372.5824
 11  7 25  2  8  0.0000000  0  9G10G25G12G17G05G09G04G27G02
 109716070.86248  85493143.85846  20878263.0634                   20878271.8914
 126227501.350 6                  24020303.438
 112041089.130 8                  21320708.094
 122139495.873 6                  23242363.930
 115944022.259 7                  22063406.430
 125059154.99147  97448759.86044  23797974.7114                   23797985.9574
 113663431.31448  88569006.76545  21629420.0084                   21629429.2584
 126172890.19146  98316608.29042  24009911.3134                   24009924.0984
 108023373.22648  84174150.98946  20556151.0784                   20556157.5204
 11  7 25  2  8 30.0000000  0  9G10G25G12G17G05G09G04G27G02
 109711457.67848  85489549.18946  20877385.1024                   20877394.0004
 126129062.957 7                  24001570.375
 111985989.829 8                  21310223.320
 122196401.508 6                  23253192.680
 115852631.739 7                  22046015.406
 125140992.85447  97512529.54444  23813547.4534                   23813558.7074
 113739675.95848  88628418.16845  21643928.9224                   21643938.0274
 126238409.14346  98367661.90643  24022378.8594                   24022391.8634
 108022543.20148  84173504.23746  20555992.9144                   20555999.1914
 11  7 25  2  9  0.0000000  0  9G10G25G12G17G05G09G04G27G02
 109707477.08747  85486447.46446  20876627.6254                   20876636.8014
 126030816.784 7                  23982874.945
 111931343.170 8                  21299824.352
 122253465.305 6                  23264051.047
 115761539.819 7                  22028680.828
 125222976.00147  97576412.45544  23829149.0164                   23829160.3634
 113816073.87548  88687949.00245  21658466.4694                   21658475.7704
 126303981.47546  98418757.13543  24034857.3284                   24034869.8284
 108022011.68548  84173090.08246  20555891.6564                   20555898.3094
 11  7 25  2  9 30.0000000  0  9G10G25G12G17G05G09G04G27G02
 109704129.91747  85483839.30246  20875990.9064                   20875999.5824
 125932765.511 7                  23964216.492
 111877151.652 8                  21289511.891
 122310687.702 6                  23274939.453
 115670749.279 7                  22011404.047
 125305101.37146  97640406.20744  23844776.4534                   23844788.3674
 113892623.09548  88747597.72045  21673033.7974                   21673042.5824
 126369604.39346  98469891.77443  24047345.6804                   24047357.6994
 108021777.59948  84172907.69246  20555847.5084                   20555853.6524
 11  7 25  2 10  0.0000000  0  9G10G25G12G17G05G09G04G27G02
 109701416.18547  85481724.72446  20875474.7194                   20875483.1684
 125834911.585 7                  23945595.180
 111823416.726 8                  21279286.273
 122368069.039 6                  23285859.266
 115580262.941 7                  21994185.258
 125387365.24447  97704507.84843  23860431.2584                   23860442.3134
 113969321.45548  88807362.66445  21687628.8984                   21687638.1484
 126435274.92446  98521063.52743  24059842.2034                   24059854.7384
 108021839.52848  84172955.97046  20555859.1334                   20555864.9344
 11  7 25  2 10 30.0000000  0  9G10G25G12G17G05G09G04G27G02
 109699336.08147  85480103.89446  20875078.6724                   20875086.9964
 125737257.717 7                  23927012.320
 111770140.735 8                  21269148.453
 122425609.984 6                  23296809.594
 115490083.780 7                  21977024.391
 125469764.22747  97768714.79143  23876110.9224                   23876121.9144
 114046166.97548  88867242.27845  21702252.2584                   21702261.6334
 126500990.53346  98572270.41544  24072348.1174                   24072360.5474
 108022196.90648  84173234.46946  20555926.5944                   20555933.2664
 11  7 25  2 11  0.0000000  0  9G10G25G12G17G05G09G04G27G02
 109697890.19747  85478977.24946  20874803.1024                   20874811.5124
 125639806.882 7                  23908467.672
 111717326.775 8                  21259098.273
 122483310.722 6                  23307788.891
 115400214.996 7                  21959922.992
 125552295.16946  97833024.58043  23891815.7424                   23891828.1844
 114123158.22648  88927235.44345  21716902.8674                   21716912.0824
 126566748.71646  98623510.46644  24084861.4844                   24084874.0164
 108022848.77247  84173742.44346  20556051.0704                   20556057.2464
 11  7 25  2 11 30.0000000  0  9G10G25G12G17G05G09G04G27G02
 109697078.75547  85478344.99146  20874649.1094                   20874657.5664
 125542561.397 7                  23889962.539
 111664976.042 8                  21249136.094
 122541171.815 6                  23318799.586
 115310659.321 7                  21942881.086
 125634954.48546  97897434.39943  23907546.0944                   23907556.8244
 114200292.64848  88987340.15245  21731581.5864                   21731590.2424
 126632546.40446  98674781.32144  24097382.3914                   24097394.8794
 108023793.79048  84174478.85346  20556230.6024                   20556237.2344
 11  7 25  2 12  0.0000000  0  9G10G25G12G17G05G09G04G27G02
 109696901.94847  85478207.23946  20874615.2814                   20874623.6414
 125445523.800 6                  23871496.773
 111613090.757 8                  21239262.398
 122599193.555 6                  23329841.672
 115221419.212 7                  21925899.359
 125717738.99446  97961941.72943  23923299.4844                   23923310.2894
 114277568.40548  89047555.00345  21746286.4774                   21746295.1844
 126698380.80846  98726080.72444  24109910.4694                   24109922.8754
 108025030.58348  84175442.62446  20556466.0164                   20556472.7814
 11  7 25  2 12 30.0000000  0  9G10G25G12G17G05G09G04G27G02
 109697359.75747  85478563.99646  20874702.3914                   20874711.2274
 125348696.852 7                  23853071.305
 111561673.219 8                  21229478.141
 122657376.388 6                  23340912.563
 115132497.498 7                  21908977.992
 125800645.25846  98026543.91443  23939076.3284                   23939087.2234
 114354983.69448  89107878.59045  21761018.0314                   21761026.8094
 126764249.22946  98777406.66644  24122444.8914                   24122457.1454
 108026558.40247  84176633.16546  20556756.6884                   20556763.2034
 11  7 25  2 13  0.0000000  0  9G10G25G12G17G05G09G04G27G02
 109698453.03748  85479415.90846  20874910.1094                   20874919.3524
 125252083.341 6                  23834686.586
 111510725.703 8                  21219783.117
 122715720.873 6                  23352015.109
 115043897.291 7                  21892118.078
 125883669.84146  98091238.33243  23954874.8134                   23954886.8914
 114432536.56948  89168309.38545  21775775.9534                   21775785.1604
 126830149.17746  98828757.18844  24134984.2274                   24134997.1374
 108028376.26048  84178049.71746  20557102.6024                   20557109.1684
 11  7 25  2 13 30.0000000  0  9G10G25G12G17G05G09G04G27G02
 109700181.22148  85480762.55546  20875239.1804                   20875248.2774
 125155685.856 7                  23816342.492
 111460250.163 8                  21210177.906
 122774227.442 6                  23363148.945
 114955621.469 7                  21875319.539
 125966809.21746  98156022.21143  23970695.8984                   23970706.7074
 114510225.19848  89228845.96545  21790560.2344                   21790569.0634
 126896077.85246  98880130.09744  24147531.0784                   24147543.4734
 108030483.27148  84179691.58646  20557503.6414                   20557509.8164
 11  7 25  2 14  0.0000000  0  9G10G25G12G17G05G09G04G27G02
 109702544.73248  85482604.26346  20875688.9384                   20875697.6214
 125059507.028 7                  23798040.461
 111410248.599 8                  21200662.969
 122832896.233 6                  23374312.969
 114867672.564 7                  21858583.328
 126050060.17146  98220892.99243  23986538.0004                   23986549.0314
 114588047.60148  89289486.79145  21805369.0944                   21805378.0084
 126962032.50746  98931523.25344  24160081.7034                   24160094.6764
 108032877.89048  84181557.55846  20557959.5314                   20557965.6484
 11  7 25  2 14 30.0000000  0  9G10G25G12G17G05G09G04G27G02
 109705543.37048  85484940.88046  20876259.4534                   20876268.3244
 124963549.397 7                  23779780.070
 111360722.948 8                  21191238.695
 122891727.488 7                  23385508.570
 114780053.433 7                  21841909.742
 126133419.30046  98285848.08143  24002400.6094                   24002412.3674
 114666001.63748  89350230.19445  21820203.0394                   21820211.7934
 127028010.18446  98982934.34443  24172636.8524                   24172649.6024
 108035558.71248  84183646.54746  20558469.2894                   20558475.8094
 11  7 25  2 15  0.0000000  0  9G10G25G12G17G05G09G04G27G02
 109709177.30347  85487772.53246  20876951.1564                   20876959.0984
 124867815.755 7                  23761563.063
 111311675.516 8                  21181904.977
 122950722.090 7                  23396735.492
 114692767.320 7                  21825299.672
 126216883.23547  98350884.83643  24018283.3444                   24018295.5704
 114744085.53248  89411074.78245  21835061.2194                   21835071.1094
 127094008.29046  99034361.38443  24185196.2974                   24185208.6994
 108038525.15148  84185958.08746  20559033.5864                   20559040.3324
 11  7 25  2 15 30.0000000  0  9G10G25G12G17G05G09G04G27G02
 109713446.53647  85491099.22046  20877763.6024                   20877771.5824
 124772308.632 7                  23743388.563
 111263108.206 8                  21172662.945
 123009880.116 7                  23407992.523
 114605816.480 7                  21808753.617
 126300448.80146  98416000.76743  24034185.9224                   24034197.0594
 114822297.35548  89472019.06945  21849945.2504                   21849954.6214
 127160023.88946  99085802.02743  24197758.1484                   24197770.9734
 108041775.79648  84188491.09446  20559652.4224                   20559658.8014
 11  7 25  2 16  0.0000000  0  9G10G25G12G17G05G09G04G27G02
 109718351.24948  85494921.09046  20878696.7584                   20878705.2664
 124677030.877 7                  23725257.781
 111215023.049 8                  21163512.680
 123069202.141 7                  23419280.523
 114519203.874 7                  21792271.469
 126384112.49347  98481193.19544  24050106.4304                   24050117.9344
 114900635.33648  89533061.65545  21864852.4144                   21864861.3594
 127226054.54545  99137254.38142  24210322.5004                   24210336.1724
 108045309.97148  84191245.02746  20560324.6644                   20560331.4454
 11  7 25  2 16 30.0000000  0  9G10G25G12G17G05G09G04G27G02
 109723891.66147  85499238.31346  20879751.0864                   20879759.6764
 124581985.193 7                  23707171.461
 111167422.354 8                  21154454.859
 123128688.665 7                  23430600.859
 114432932.415 7                  21775854.531
 126467870.99847  98546459.48943  24066045.4774                   24066056.7624
 114979097.63847  89594201.11445  21879782.9384                   21879792.2774
 127292097.522 5                  24222890.867
 108049126.53947  84194219.00846  20561051.2274                   20561057.8914
 11  7 25  2 17  0.0000000  0  9G10G25G12G17G05G09G04G27G02
 109730067.47748  85504050.64646  20880926.5164                   20880935.1414
 124487174.162 7                  23689128.922
 111120307.789 8                  21145489.375
 123188339.862 7                  23441951.430
 114347004.865 7                  21759503.234
 126551720.83247  98611796.92644  24082001.7504                   24082012.8324
 115057682.30848  89655435.92245  21894737.1644                   21894746.2154
                                  24235460.8914                   24235474.0514
 108053224.20748  84197412.02546  20561830.8674                   20561837.1254
 11  7 25  2 17 30.0000000  0  9G10G25G12G17G05G09G04G27G02
 109736878.17447  85509357.69546  20882222.4454                   20882231.1174
 124392600.287 7                  23671132.359
 111073681.249 8                  21136616.039
 123248155.845 7                  23453334.750
 114261423.672 7                  21743217.563
 126635658.63447  98677202.91344  24097974.0784                   24097986.3364
 115136387.50147  89716764.63845  21909714.2734                   21909723.5824
 127424209.83355  99291681.70852  24248031.7194                   24248044.5704
 108057601.59447  84200823.00546  20562663.7584                   20562670.1954
 11  7 25  2 18  0.0000000  0  9G10G25G12G17G05G09G04G27G02
 109744323.85547  85515159.53546  20883639.3984                   20883647.9654
 124298266.299 7                  23653181.055
 111027545.048 8                  21127836.961
 123308137.076 7                  23464748.461
 114176191.696 7                  21726998.555
 126719681.18847  98742674.95544  24113963.0234                   24113975.1604
 115215211.36348  89778185.83945  21924713.8204                   21924723.4144
 127490273.45955  99343159.81952  24260603.8134                   24260615.8484
 108062257.71548  84204451.17146  20563550.0474                   20563556.1564
 11  7 25  2 18 30.0000000  0  9G10G25G12G17G05G09G04G27G02
 109752404.26848  85521455.97746  20885177.0084                   20885185.4614
 124204174.925 7                  23635275.672
 110981900.782 8                  21119150.969
 123368284.248 7                  23476194.281
 114091311.943 7                  21710846.070
 126803785.13347  98808210.41644  24129967.9304                   24129979.6254
 115294151.92747  89839697.98545  21939735.9304                   21939744.6764
 127556338.58146  99394639.07742  24273174.6254                   24273186.7384
 108067191.76848  84208295.91846  20564488.6484                   20564495.2114
 11  7 25  2 19  0.0000000  0  9G10G25G12G17G05G09G04G27G02
 109761119.47748  85528247.06846  20886835.1024                   20886843.6564
 124110328.875 7                  23617417.609
 110936750.578 8                  21110559.328
 123428597.487 6                  23487670.773
 114006787.038 7                  21694761.789
 126887967.19747  98873806.71644  24145987.3984                   24145998.5554
 115373207.56647  89901299.81145  21954779.7894                   21954788.8284
 127622402.50046  99446117.40142  24285746.2344                   24285758.7234
 108072402.30548  84212356.10346  20565480.3204                   20565486.6884
 11  7 25  2 19 30.0000000  0  9G10G25G12G17G05G09G04G27G02
 109770469.31648  85535532.68046  20888614.3284                   20888622.8874
 124016730.946 7                  23599606.336
 110892096.692 8                  21102062.227
 123489077.321 6                  23499180.586
 113922619.744 8                  21678745.477
 126972224.31147  98939461.53344  24162020.6024                   24162033.1414
 115452376.52347  89962989.95045  21969845.1804                   21969854.0204
 127688462.46046  99497592.62042  24298317.5944                   24298329.7464
 108077888.57048  84216631.13946  20566524.1724                   20566530.1954
 11  7 25  2 20  0.0000000  0  9G10G25G12G17G05G09G04G27G02
 109780453.41148  85543312.51046  20890514.4384                   20890523.2774
 123923383.581 6                  23581841.922
 110847941.014 8                  21093659.570
 123549724.201 6                  23510720.531
 113838812.725 8                  21662796.898
 127056553.05447  99005172.16344  24178068.1804                   24178079.2154
 115531656.79047  90024766.80945  21984931.3284                   21984940.9454
 127754515.78146  99549062.69343  24310886.3284                   24310899.3404
 108083649.16748  84221119.92946  20567620.3524                   20567626.4964
 11  7 25  2 20 30.0000000  0  9G10G25G12G17G05G09G04G27G02
 109791071.61548  85551586.43646  20892534.9384                   20892543.6374
 123830289.534 6                  23564127.484
 110804284.912 8                  21085352.031
 123610538.094 6                  23522292.859
 113755368.564 8                  21646918.180
 127140950.27047  99070936.14344  24194128.6254                   24194139.9734
 115611046.65147  90086629.06045  22000039.0084                   22000048.1764
 127820560.14046  99600525.78343  24323455.0474                   24323467.1524
 108089683.02948  84225821.65546  20568768.6724                   20568774.8404
 11  7 25  2 21  0.0000000  0  9G10G25G12G17G05G09G04G27G02
 109802323.28448  85560353.98746  20894676.2194                   20894684.7814
 123737451.409 6                  23546460.703
 110761130.400 8                  21077139.523
 123671519.575 6                  23533898.164
 113672290.004 8                  21631109.148
 127225412.36447  99136750.70244  24210201.2274                   24210213.0394
 115690544.38847  90148575.35345  22015166.7034                   22015175.5744
 127886592.33346  99651979.40043  24336020.5084                   24336032.4804
 108095988.82348  84230735.27646  20569968.9924                   20569974.9024
 11  7 25  2 21 30.0000000  0  9G10G25G12G17G05G09G04G27G02
 109814208.39548  85569615.12146  20896937.7814                   20896945.8914
 123644872.039 6                  23528842.859
 110718479.705 8                  21069023.438
 123732668.993 6                  23545533.719
 113589579.953 8                  21615369.383
 127309936.10147  99202613.27644  24226285.3674                   24226297.2854
 115770148.21847  90210604.33945  22030315.0234                   22030323.7584
 127952610.02046  99703421.66843  24348583.4924                   24348596.0864
 108102565.72448  84235860.15546  20571219.9774                   20571226.0984
 11  7 25  2 22  0.0000000  0  9G10G25G12G17G05G09G04G27G02
 109826726.60848  85579369.58346  20899320.0554                   20899328.4224
 123552554.002 7                  23511275.859
 110676334.120 8                  21061003.641
 123793986.618 6                  23557202.852
 113507241.071 8                  21599701.234
 127394518.24046  99268521.37343  24242381.2114                   24242392.5984
 115849856.23447  90272714.50145  22045482.6724                   22045492.1134
 128018610.47846  99754850.50843  24361142.7114                   24361154.9844
 108109412.40848  84241195.24246  20572523.0864                   20572529.5664
 11  7 25  2 22 30.0000000  0  9G10G25G12G17G05G09G04G27G02
 109839877.24048  85589616.86446  20901822.4694                   20901830.7704
 123460499.756 7                  23493758.547
 110634695.538 8                  21053079.813
 123855472.746 6                  23568902.602
 113425275.598 8                  21584103.320
 127479155.45446  99334472.38043  24258486.3524                   24258498.5864
 115929666.77447  90334904.56445  22060669.8914                   22060679.0904
 128084590.72446  99806263.58243  24373698.5944                   24373711.2034
 108116527.64648  84246739.59446  20573877.1724                   20573883.3914
 11  7 25  2 23  0.0000000  0  9G10G25G12G17G05G09G04G27G02
 109853660.66848  85600357.22946  20904445.1884                   20904453.7504
 123368712.583 7                  23476291.281
 110593566.282 8                  21045253.141
 123917127.892 6                  23580635.133
 113343686.957 8                  21568577.664
 127563844.93046  99400464.08843  24274602.3204                   24274614.7974
 116009578.13347  90397173.17745  22075877.1884                   22075885.8674
 128150548.76146  99857659.35343  24386249.6564                   24386262.5744
 108123911.27248  84252493.08046  20575282.2194                   20575288.1094
 11  7 25  2 23 30.0000000  0  9G10G25G12G17G05G09G04G27G02
 109868075.66648  85611589.72046  20907188.3054                   20907196.8914
 123277194.620 7                  23458876.609
 110552947.748 8                  21037523.594
 123978952.256 7                  23592400.203
 113262477.259 8                  21553123.766
 127648582.60946  99466493.40943  24290728.0314                   24290740.2074
 116089588.53847  90459518.95645  22091102.4384                   22091111.1094
 128216481.47446  99909035.40443  24398796.4614                   24398809.3404
 108131560.95148  84258453.89346  20576737.6334                   20576744.1134
 11  7 25  2 24  0.0000000  0  9G10G25G12G17G05G09G04G27G02
 109883121.89148  85623314.06446  20910051.6334                   20910059.7544
 123185948.602 7                  23441512.828
 110512841.902 8                  21029891.836
 124040946.263 6                  23604197.102
 113181649.342 8                  21537742.789
 127733365.45146  99532557.90143  24306861.6024                   24306873.5984
 116169696.13747  90521940.47145  22106345.6804                   22106355.0004
 128282386.36146  99960389.72343  24411337.9224                   24411350.8134
 108139475.94448  84264621.43546  20578243.7504                   20578250.1564
 11  7 25  2 24 30.0000000  0  9G10G25G12G17G05G09G04G27G02
 109898798.89448  85635529.92846  20913034.5784                   20913042.7344
 123094977.350 7                  23424201.547
 110473250.868 8                  21022357.773
 124103110.093 6                  23616026.883
 113101205.763 8                  21522434.664
 127818190.43346  99598655.17942  24323002.4844                   24323015.1724
 116249899.41047  90584436.54045  22121608.3364                   22121617.4344
 128348260.72846 100011720.29343  24423873.3984                   24423886.0944
 108147655.02848  84270994.76746  20579800.3984                   20579806.9924
 11  7 25  2 25  0.0000000  0  9G10G25G12G17G05G09G04G27G02
 109915106.49048  85648237.16646  20916138.1174                   20916146.2234
 123004283.604 7                  23406943.109
 110434175.518 8                  21014921.773
 124165443.898 6                  23627888.586
 113021149.091 7                  21507200.602
 127903054.28946  99664782.78342  24339152.0784                   24339164.5044
 116330196.49747  90647005.68445  22136888.4384                   22136897.8364
 128414102.00946 100063025.07643  24436402.3754                   24436415.4024
 108156097.31148  84277573.18546  20581407.0554                   20581412.7774
 11  7 25  2 25 30.0000000  0  9G10G25G12G17G05G09G04G27G02
 109932043.42848  85661434.79945  20919361.0944                   20919369.1724
 122913869.807 7                  23389737.828
 110395617.892 8                  21007584.711
 124227947.963 6                  23639782.313
 112941481.660 8                  21492040.492
 127987953.83046  99730938.18642  24355308.4224                   24355320.2854
 116410585.76047  90709646.65345  22152186.0234                   22152194.7304
 128479907.26345 100114301.79443  24448925.1884                   24448938.2154
 108164801.45748  84284355.65846  20583062.9384                   20583069.3634
 11  7 25  2 26  0.0000000  0  9G10G25G12G17G05G09G04G27G02
 109949609.70048  85675122.82246  20922703.5704                   20922711.6134
 122823738.874 7                  23372586.398
 110357579.936 8                  21000346.164
 124290623.150 6                  23651709.359
 112862207.076 8                  21476954.969
 128072885.86746  99797118.98743  24371470.0474                   24371482.3134
 116491065.38647  90772358.04245  22167500.9064                   22167509.6174
 128545674.37545 100165548.78142  24461440.1254                   24461454.0664
 108173766.62848  84291341.51646  20584769.2504                   20584775.1214
 11  7 25  2 26 30.0000000  0  9G10G25G12G17G05G09G04G27G02
 109967804.34348  85689300.49346  20926166.2034                   20926173.8324
 122733893.329 7                  23355489.648
 110320063.310 8                  20993207.078
 124353469.434 7                  23663669.039
 112783327.272 8                  21461944.633
 128157846.95046  99863322.32042  24387637.8444                   24387649.7344
 116571633.91247  90835138.70045  22182832.0864                   22182841.2894
 128611400.41754 100216763.71952  24473947.9924                   24473961.0944
 108182991.41048  84298529.66946  20586524.6094                   20586530.5744
 11  7 25  2 27  0.0000000  0  9G10G25G12G17G05G09G04G27G02
 109986626.81848  85703967.38446  20929747.8594                   20929756.1884
 122644335.946 7                  23338446.430
 110283069.753 8                  20986167.297
 124416486.931 7                  23675661.086
 112704844.765 8                  21447009.398
 128242834.06146  99929546.02442  24403810.1644                   24403822.2544
 116652289.56047  90897987.27045  22198180.6954                   22198189.8134
 128677083.02155 100267944.79452  24486447.3054                   24486459.6174
 108192474.78848  84305919.34046  20588329.0084                   20588334.9574
 11  7 25  2 27 30.0000000  0  9G10G25G12G17G05G09G04G27G02
 110006076.57448  85719123.06546  20933448.8834                   20933457.1174
 122555069.276 7                  23321460.031
 110246600.525 8                  20979227.531
 124479676.072 7                  23687685.352
 112626762.108 8                  21432150.992
 128327843.93246  99995787.46742  24419986.5234                   24419999.0944
 116733030.55447  90960902.33645  22213544.9454                   22213554.2234
 128742719.44355 100319089.95752  24498937.5084                   24498950.1994
 108202215.36948  84313509.41846  20590182.9064                   20590188.5234
 11  7 25  2 28  0.0000000  0  8G10G25G12G17G05G09G04G02
 110026152.92448  85734766.99546  20937269.2424                   20937277.4224
 122466096.096 7                  23304529.141
 110210657.578 8                  20972387.555
 124543036.943 6                  23699741.727
 112549081.930 8                  21417369.125
 128412873.45746 100062044.13943  24436167.6174                   24436179.7154
 116813855.53147  91023882.82145  22228925.4614                   22228934.3984
 108212212.23848  84321299.21346  20592084.9534                   20592091.3484
 11  7 25  2 28 30.0000000  0  8G10G25G12G17G05G09G04G02
 110046854.88748  85750898.41546  20941208.7034                   20941217.2034
 122377418.971 7                  23287654.258
 110175242.881 8                  20965648.430
 124606569.979 6                  23711832.336
 112471806.878 8                  21402663.977
 128497919.44846 100128313.68443  24452351.0394                   24452363.6254
 116894762.49847  91086927.19845  22244322.2504                   22244330.7504
 108222464.13648  84329287.72346  20594035.8444                   20594041.9734
 11  7 25  2 29  0.0000000  0  8G10G25G12G17G05G09G04G02
 110068181.34948  85767516.45946  20945266.9614                   20945275.1174
 122289040.441 7                  23270836.141
 110140357.098 8                  20959009.938
 124670275.153 6                  23723953.453
 112394939.202 8                  21388036.438
 128582978.37546 100194593.27743  24468537.9844                   24468549.8674
 116975749.87847  91150034.23445  22259733.3674                   22259741.7854
 108232969.52248  84337473.75846  20596035.2344                   20596041.4264
 11  7 25  2 29 30.0000000  0  8G10G25G12G17G05G09G04G02
 110090132.04048  85784620.91746  20949443.9924                   20949452.3484
 122200963.364 7                  23254075.602
 110106002.205 8                  20952472.367
 124734153.191 6                  23736109.852
 112318481.453 7                  21373487.156
 128668047.14046 100260880.51943  24484726.3674                   24484738.6254
 117056816.03747  91213202.68445  22275158.7814                   22275168.3364
 108243727.92748  84345856.94846  20598082.2974                   20598088.5354
 11  7 25  2 30  0.0000000  0  8G10G25G12G17G05G09G04G02
 110112706.03147  85802211.06546  20953739.4454                   20953747.9924
 122113190.245 7                  23237373.297
 110072179.902 8                  20946036.359
 124798203.992 6                  23748297.961
 112242436.244 8                  21359015.828
 128753122.75046 100327173.10443  24500915.6884                   24500927.5394
 117137959.33347  91276431.23345  22290600.5704                   22290610.0434
 108254737.74048  84354436.03946  20600177.5554                   20600183.3834
 11  7 25  2 30 30.0000000  0  8G10G25G12G17G05G09G04G02
 110135902.62647  85820286.35246  20958153.8754                   20958162.0124
 122025723.945 7                  23220728.984
 110038891.617 8                  20939701.531
 124862427.875 6                  23760519.852
 112166806.016 8                  21344623.961
 128838202.01646 100393468.52043  24517105.4384                   24517117.5204
 117219178.28947  91339718.73945  22306055.6484                   22306064.7704
 108265998.17848  84363210.42346  20602320.1334                   20602326.2464
 11  7 25  2 31  0.0000000  0  8G10G25G12G17G05G09G04G02
 110159720.67647  85838845.88946  20962686.1094                   20962694.6564
 121938566.920 7                  23204143.383
 110006138.771 8                  20933469.016
 124926825.062 6                  23772774.445
 112091593.231 8                  21330311.469
 128923281.62446 100459764.21843  24533295.5864                   24533308.2424
 117300471.21147  91403063.87145  22321525.7194                   22321534.6214
 108277507.64748  84372178.85246  20604510.2424                   20604516.5704
 11  7 25  2 31 30.0000000  0  8G10G25G12G17G05G09G04G02
 110184159.15248  85857888.86946  20967336.7034                   20967345.5204
 121851721.818 7                  23187617.578
 109973922.940 8                  20927338.609
 124991395.596 7                  23785062.227
 112016800.408 8                  21316078.734
 129008358.59446 100526057.83643  24549485.2344                   24549497.3754
 117381836.46347  91466465.37445  22337008.8834                   22337017.6844
 108289265.10348  84381340.51746  20606747.7584                   20606753.8284
 11  7 25  2 32  0.0000000  0  8G10G25G12G17G05G09G04G02
 110209217.59547  85877414.93846  20972105.1884                   20972113.5634
 121765191.472 7                  23171151.703
 109942245.659 8                  20921310.445
 125056139.968 6                  23797381.852
 111942429.792 8                  21301926.484
 129093429.68646 100592346.91643  24565674.4454                   24565686.5204
 117463272.60947  91529922.12545  22352505.4304                   22352514.5984
 108301269.61048  84390694.70546  20609032.0164                   20609038.2464
 11  7 25  2 32 30.0000000  0  8G10G25G12G17G05G09G04G02
 110234894.95648  85897423.29046  20976991.2664                   20976999.7774
 121678978.614 7                  23154745.867
 109911108.342 8                  20915385.148
 125121058.277 6                  23809736.031
 111868484.192 8                  21287855.180
 129178491.81146 100658628.99843  24581860.4924                   24581873.0514
 117544778.03447  91593432.86145  22368015.5704                   22368024.6174
 108313520.04448  84400240.51146  20611363.3524                   20611369.6604
 11  7 25  2 33  0.0000000  0  8G10G25G12G17G05G09G04G02
 110261189.77048  85917912.77546  20981994.8284                   20982003.8794
 121593085.585 7                  23138400.422
 109880512.118 8                  20909562.828
 125186150.831 7                  23822122.438
 111794965.901 8                  21273865.023
 129263541.67946 100724901.51043  24598046.1414                   24598057.4964
 117626351.14147  91656996.33745  22383538.9144                   22383547.5124
 108326015.04648  84409976.89546  20613740.9844                   20613747.1484
 11  7 25  2 33 30.0000000  0  8G10G25G12G17G05G09G04G02
 110288101.39048  85938882.86846  20987116.2194                   20987124.6764
 121507515.279 7                  23122117.172
 109850458.843 8                  20903844.117
 125251417.762 6                  23834541.969
 111721877.684 8                  21259956.852
 129348576.27046 100791162.14143  24614226.6174                   24614239.4104
 117707990.48747  91720611.42445  22399073.8204                   22399082.9734
 108338753.56548  84419903.03646  20616165.0784                   20616171.3014
 11  7 25  2 34  0.0000000  0  8G10G25G12G17G05G09G04G02
 110315629.06147  85960333.00646  20992354.2974                   20992362.7424
 121422270.487 7                  23105895.492
 109820950.578 8                  20898228.672
 125316859.525 6                  23846995.883
 111649221.637 8                  21246130.906
 129433592.69446 100857408.59543  24630405.5554                   24630418.1454
 117789694.49947  91784276.88245  22414621.9224                   22414630.1334
 108351734.72648  84430018.24446  20618634.9384                   20618641.2034
 11  7 25  2 34 30.0000000  0  8G10G25G12G17G05G09G04G02
 110343771.20848  85982261.95746  20997709.9534                   20997718.2074
 121337353.414 7                  23089736.266
 109791987.418 8                  20892716.969
 125382476.106 6                  23859482.281
 111576999.676 8                  21232387.484
 129518587.43046 100923638.12443  24646579.8204                   24646592.2194
 117871461.45547  91847991.41544  22430181.4384                   22430190.7034
 108364956.82448  84440321.18046  20621151.2584                   20621157.4454
 11  7 25  2 35  0.0000000  0  8G10G25G12G17G05G09G04G02
 110372526.91948  86004669.01646  21003181.9064                   21003190.0554
 121252766.925 7                  23073639.875
 109763570.939 8                  20887310.102
 125448267.539 6                  23872001.648
 111505214.521 8                  21218727.773
 129603557.66346 100989848.60342  24662748.1254                   24662761.2074
 117953290.00147  91911753.92245  22445752.8524                   22445762.0984
 108378418.79348  84450811.04946  20623712.8984                   20623719.0164
 11  7 25  2 35 30.0000000  0  8G10G25G12G17G05G09G04G02
 110401894.82947  86027553.11346  21008770.2814                   21008778.8134
 121168513.639 7                  23057606.797
 109735702.829 8                  20882006.602
 125514234.047 6                  23884554.664
 111433868.704 8                  21205150.398
 129688500.44946 101056037.66943  24678912.6254                   24678925.7664
 118035178.69747  91975563.30445  22461335.8594                   22461345.6094
 108392119.71748  84461487.11446  20626319.9384                   20626326.2424
 11  7 25  2 36  0.0000000  0  8G10G25G12G17G05G09G04G02
 110431873.99947  86050913.51346  21014475.3914                   21014483.4104
 121084596.068 7                  23041637.648
 109708384.380 8                  20876807.852
 125580375.944 6                  23897140.898
 111362964.337 8                  21191658.148
 129773412.57746 101122202.81942  24695071.4774                   24695083.5554
 118117125.86947  92039418.26644  22476929.8984                   22476938.5824
 108406058.36248  84472348.40446  20628972.3134                   20628978.5554
 11  7 25  2 36 30.0000000  0  8G10G25G12G17G05G09G04G02
 110462463.46148  86074749.45946  21020296.0864                   21020304.6054
 121001017.043 7                  23025733.047
 109681617.141 8                  20871714.227
 125646693.541 6                  23909760.828
 111292503.651 8                  21178249.625
 129858291.09545 101188341.76742  24711222.8984                   24711235.7194
 118199130.20947  92103317.74244  22492535.0084                   22492543.3794
 108420233.84648  84483394.26746  20631670.0944                   20631676.4064
 11  7 25  2 37  0.0000000  0  8G10G25G12G17G05G09G04G02
 110493662.01748  86099060.02745  21026233.2584                   21026241.1954
 120917778.994 7                  23009893.383
 109655401.879 8                  20866725.656
 125713186.891 6                  23922413.500
 111222489.079 8                  21164925.789
 129943132.63345 101254451.99342  24727367.0234                   24727380.2814
 118281190.21647  92167260.60244  22508150.1174                   22508158.9844
 108434644.62748  84494623.45546  20634412.4144                   20634418.3914
 11  7 25  2 37 30.0000000  0  8G10G25G12G17G05G09G04G02
 110525468.44947  86123844.25546  21032285.2114                   21032293.8094
 120834884.719 7                  22994119.000
 109629740.037 8                  20861842.367
 125779856.125 6                  23935100.633
 111152923.440 8                  21151688.141
 130027934.49546 101320531.31143  24743505.4064                   24743517.2704
 118363304.37147  92231245.65944  22523775.4924                   22523785.3754
 108449289.95048  84506035.41746  20637199.2274                   20637205.3404
 11  7 25  2 38  0.0000000  0  8G10G25G12G17G05G09G04G02
 110557881.27548  86149101.01745  21038453.9304                   21038461.7854
 120752336.841 7                  22978410.547
 109604633.108 8                  20857064.500
 125846701.390 6                  23947821.039
 111083808.711 8                  21138536.086
 130112693.42346 101386577.10743  24759635.0784                   24759647.1214
 118445471.23847  92295271.80944  22539411.4534                   22539421.0394
 108464168.55248  84517629.15746  20640030.8284                   20640036.7704
 11  7 25  2 38 30.0000000  0  8G10G25G12G17G05G09G04G02
 110590899.27848  86174829.33046  21044736.8364                   21044744.9654
 120670137.837 7                  22962768.742
 109580082.077 8                  20852392.836
 125913722.790 6                  23960574.422
 111015146.818 8                  21125469.766
 130197406.37146 101452587.12943  24775754.9694                   24775767.3364
 118527689.43647  92359337.92544  22555057.5704                   22555066.1214
 108479279.00648  84529403.55446  20642905.7194                   20642912.2424
 11  7 25  2 39  0.0000000  0  8G10G25G12G17G05G09G04G02
 110624520.75547  86201027.89645  21051134.5474                   21051142.7384
 120588289.991 7                  22947193.633
 109556087.574 8                  20847826.883
 125980920.389 6                  23973362.125
 110946939.895 8                  21112491.023
 130282070.98156 101518559.69552  24791866.1884                   24791878.7274
 118609957.19347  92423442.66244  22570712.2344                   22570721.1604
 108494620.30048  84541357.83446  20645825.1414                   20645830.9774
 11  7 25  2 39 30.0000000  0  8G10G25G12G17G05G09G04G02
 110658745.11047  86227696.22145  21057647.4064                   21057655.6254
 120506796.503 7                  22931685.367
 109532651.718 7                  20843367.398
 126048294.686 6                  23986183.313
 110879190.967 8                  21099598.602
 130366683.01946 101584491.11042  24807966.8284                   24807979.7074
 118692273.61247  92487585.33344  22586376.5944                   22586385.5044
 108510191.75148  84553491.45746  20648788.3444                   20648794.3634
 11  7 25  2 40  0.0000000  0  8G10G25G12G17G05G09G04G02
 110693570.86348  86254833.19546  21064274.3674                   21064282.4694
 120425659.760 7                  22916246.008
 109509775.232 7                  20839013.828
 126115845.647 6                  23999037.484
 110811901.997 8                  21086793.734
 130451240.22346 101650379.71042  24824057.7034                   24824070.4104
 118774637.18147  92551764.76244  22602049.4614                   22602058.4304
 108525992.00448  84565803.36646  20651794.8134                   20651800.8524
 11  7 25  2 40 30.0000000  0  8G10G25G12G17G05G09G04G02
 110728996.32747  86282437.46245  21071015.9614                   21071023.7424
 120344882.214 7                  22900874.313
 109487459.428 7                  20834767.086
 126183573.218 6                  24011926.469
 110745074.841 8                  21074076.930
 130535739.63746 101716223.35843  24840137.6644                   24840150.1844
 118857046.10947  92615979.50544  22617732.0474                   22617741.3984
 108542019.56548  84578292.40346  20654845.1094                   20654851.1994
 11  7 25  2 41  0.0000000  0  8G10G25G12G17G05G09G04G02
 110765021.11847  86310508.74146  21077871.0474                   21077879.4024
 120264467.393 7                  22885571.602
 109465705.895 8                  20830627.883
 126251478.433 6                  24024846.953
 110678712.695 8                  21061448.898
 130620178.93946 101782020.11143  24856206.1564                   24856218.7074
 118939500.33447  92680229.54844  22633422.2504                   22633431.5354
 108558274.47648  84590958.59746  20657938.2894                   20657944.3554
 11  7 25  2 41 30.0000000  0  7G10G25G12G17G05G04G02
 110801643.49347  86339045.66946  21084839.4384                   21084848.8054
 120184417.533 7                  22870338.867
 109444515.734 8                  20826595.383
 126319561.136 6                  24037802.938
 110612817.438 8                  21048909.383
 119021997.89747  92744513.36544  22649121.1024                   22649130.2384
 108574755.16748  84603800.71146  20661074.3984                   20661080.1374
 11  7 25  2 42  0.0000000  0  7G10G25G12G17G05G04G02
 110838861.06347  86368046.37845  21091922.2194                   21091930.2344
 120104734.277 7                  22855175.727
 109423888.871 8                  20822670.102
 126387820.732 6                  24050792.297
 110547390.343 8                  21036459.156
 119104536.58347  92808829.24244  22664827.2034                   22664836.6724
 108591459.53048  84616817.12046  20664252.9534                   20664258.8324
 11  7 25  2 42 30.0000000  0  7G10G25G12G17G05G04G02
 110876672.80247  86397510.07745  21099117.5704                   21099125.7034
 120025420.538 7                  22840082.055
 109403826.570 8                  20818852.594
 126456257.358 6                  24063815.727
 110482433.709 8                  21024098.070
 119187115.18947  92873176.22944  22680541.8444                   22680551.2034
 108608386.94048  84630007.32646  20667474.2344                   20667480.0164
 11  7 25  2 43  0.0000000  0  7G10G25G12G17G05G04G02
 110915077.05048  86427435.47945  21106425.5164                   21106433.7384
 119946478.839 7                  22825059.922
 109384330.151 8                  20815142.422
 126524871.016 6                  24076872.766
 110417949.803 8                  21011827.164
 119269732.47847  92937553.32244  22696263.2734                   22696272.7344
 108625536.12948  84643370.34546  20670737.5394                   20670743.4264
 11  7 25  2 43 30.0000000  0  7G10G25G12G17G05G04G02
 110954072.22647  86457821.35346  21113845.8674                   21113854.6564
 119867911.628 7                  22810108.898
 109365400.312 8                  20811540.203
 126593661.804 6                  24089963.117
 110353940.611 8                  20999646.805
 119352386.85647  93001959.31844  22711992.6884                   22712001.1094
 108642905.81748  84656905.19546  20674043.2894                   20674048.8754
 11  7 25  2 44  0.0000000  0  7G10G25G12G17G05G04G02
 110993657.13647  86488666.75146  21121378.6954                   21121387.1644
 119789721.625 7                  22795230.094
 109347038.004 8                  20808046.320
 126662629.878 6                  24103087.195
 110290408.323 8                  20987557.031
 119435077.30547  93066393.42944  22727727.3364                   22727736.2814
 108660495.07348  84670611.12846  20677390.2974                   20677396.4304
 11  7 25  2 44 30.0000000  0  7G10G25G12G17G05G04G02
 111033829.62548  86519970.00845  21129023.4064                   21129031.6644
 119711911.013 7                  22780423.320
 109329244.121 8                  20804659.969
 126731775.296 6                  24116244.984
 110227354.977 8                  20975558.086
 119517802.28447  93130854.45944  22743469.7114                   22743479.0164
 108678302.55448  84684487.11046  20680778.5864                   20680784.4264
 11  7 25  2 45  0.0000000  0  7G10G25G12G17G05G04G02
 111074588.63247  86551730.28646  21136779.3834                   21136787.8244
 119634482.806 7                  22765689.164
 109312019.799 8                  20801382.375
 126801097.978 6                  24129436.070
 110164782.919 8                  20963650.977
 119600560.76447  93195341.60644  22759218.2344                   22759227.6214
 108696327.48148  84698532.53146  20684208.6954                   20684214.8954
 11  7 25  2 45 30.0000000  0  7G10G25G12G17G05G04G02
 111115932.36947  86583946.18246  21144647.3524                   21144655.7344
 119557439.394 7                  22751028.383
 109295365.767 8                  20798212.625
 126870598.238 6                  24142661.414
 110102693.780 8                  20951835.781
 119683351.22747  93259853.65644  22774972.4534                   22774981.9224
 108714568.73748  84712746.52146  20687679.9384                   20687685.9924
 11  7 25  2 46  0.0000000  0  7G10G25G12G17G05G04G02
 111157859.58247  86616616.76046  21152625.5634                   21152633.6094
 119480783.360 7                  22736441.000
 109279283.144 8                  20795152.711
 126940276.296 6                  24155921.844
 110041089.949 8                  20940112.773
 119766172.57047  93324389.75044  22790732.9454                   22790741.8914
 108733025.48648  84727128.42046  20691192.0784                   20691198.1094
 11  7 25  2 46 30.0000000  0  7G10G25G12G17G05G04G02
 111200367.75948  86649740.02446  21160714.6414                   21160723.0704
 119404516.741 7                  22721928.180
 109263772.238 8                  20792200.859
 127010131.796 6                  24169214.305
 109979972.686 8                  20928482.750
 119849023.28547  93388948.71744  22806499.0704                   22806507.8324
 108751695.61848  84741676.59146  20694744.8364                   20694751.0164
 11  7 25  2 47  0.0000000  0  7G10G25G12G17G05G04G02
 111243455.71047  86683315.05746  21168913.6484                   21168922.3794
 119328642.426 7                  22707489.523
 109248834.736 8                  20789358.531
 127080164.841 6                  24182541.516
 109919344.476 8                  20916945.563
 119931902.19447  93453529.68644  22822270.3594                   22822279.3054
 108770578.77548  84756390.75046  20698338.0864                   20698344.1644
 11  7 25  2 47 30.0000000  0  7G10G25G12G17G05G04G02
 111287121.54447  86717340.39845  21177223.2894                   21177232.0864
 119253162.854 7                  22693126.375
 109234470.737 7                  20786625.242
 127150375.400 6                  24195902.188
 109859207.181 8                  20905501.320
 120014807.95947  93518131.58344  22838046.2584                   22838056.3984
 108789673.48848  84771269.76346  20701971.5784                   20701977.8324
 11  7 25  2 48  0.0000000  0  7G10G25G12G17G05G04G02
 111331363.71747  86751814.83146  21185642.5554                   21185650.9654
 119178080.596 7                  22678838.945
 109220681.066 8                  20784001.023
 127220763.584 6                  24209296.219
 109799562.848 8                  20894151.508
 120097739.50247  93582753.53644  22853828.0634                   22853837.4384
 108808978.99148  84786313.03246  20705645.6174                   20705651.5984
 11  7 25  2 48 30.0000000  0  7G10G25G12G17G05G04G02
 111376180.55447  86786737.05646  21194170.6254                   21194178.9454
 119103398.029 7                  22664626.789
 109207466.454 8                  20781486.352
 127291329.593 6                  24222724.391
 109740413.494 8                  20882895.992
 120180695.49647  93647394.55744  22869614.0314                   22869623.0394
 108828494.12648  84801519.64646  20709359.1884                   20709365.1054
 11  7 25  2 49  0.0000000  0  7G10G25G12G17G05G04G02
 111421569.84947  86822105.35945  21202807.7894                   21202816.2664
 119029117.516 7                  22650491.945
 109194827.684 7                  20779081.070
 127362073.114 6                  24236186.453
 109681760.820 8                  20871734.570
 120263674.59147  93712053.59344  22885405.1174                   22885413.7194
 108848217.52048  84816888.53946  20713112.5784                   20713118.2274
 11  7 25  2 49 30.0000000  0  7G10G25G12G17G05G04G02
 111467530.24447  86857918.65845  21211553.5634                   21211562.1484
 118955241.702 7                  22636433.539
 109182765.641 8                  20776786.086
 127432994.396 6                  24249682.492
 109623606.777 8                  20860668.313
 120346675.77947  93776729.84644  22901198.5784                   22901208.1134
 108868148.34548  84832419.07546  20716905.2974                   20716910.7974
 11  7 25  2 50  0.0000000  0  8G10G25G12G17G05G29G04G02
 111514059.87147  86894175.52545  21220407.5234                   21220416.2734
 118881773.059 7                  22622452.813
 109171280.897 8                  20774600.430
 127504093.169 6                  24263211.344
 109565953.166 8                  20849697.180
 129528250.61316                  24648411.398
 120429697.87047  93841422.37844  22916997.9064                   22917007.0394
 108888285.47648  84848110.36346  20720736.7584                   20720742.8164
 11  7 25  2 50 30.0000000  0  8G10G25G12G17G05G29G04G02
 111561156.74047  86930874.39145  21229370.1954                   21229378.4264
 118808713.879 7                  22608550.469
 109160374.157 8                  20772524.609
 127575369.708 6                  24276776.672
 109508802.331 8                  20838821.609
 129448035.382 6                  24633147.719
 120512739.36147  93906130.02944  22932799.6804                   22932808.6524
 108908627.74048  84863961.48946  20724608.0944                   20724613.7304
 11  7 25  2 51  0.0000000  0  8G10G25G12G17G05G29G04G02
 111608818.94047  86968013.77245  21238440.3134                   21238448.5314
 118736066.598 7                  22594725.875
 109150045.933 8                  20770559.648
 127646823.803 6                  24290372.078
 109452155.574 8                  20828042.094
 129367752.757 6                  24617869.805
 120595799.30147  93970852.06144  22948605.8204                   22948614.3524
 108929173.97048  84879971.55146  20728517.8524                   20728523.7344
 11  7 25  2 51 30.0000000  0  8G10G25G12G17G05G29G04G02
 111657044.84047  87005592.40145  21247617.0784                   21247625.7734
 118663833.730 7                  22580980.633
 109140296.856 8                  20768704.484
 127718455.540 6                  24304003.883
 109396015.001 8                  20817358.961
 129287403.493 6                  24602580.203
 120678876.55947  94035587.60844  22964414.5164                   22964423.4694
 108949923.45348  84896139.99746  20732466.3594                   20732472.1134
 11  7 25  2 52  0.0000000  0  8G10G25G12G17G05G29G04G02
 111705832.75647  87043608.96445  21256901.0164                   21256909.9304
 118592017.843 7                  22567314.594
 109131127.542 8                  20766959.430
 127790264.964 6                  24317669.641
 109340382.122 8                  20806772.453
 129206987.996 7                  24587277.438
 120761969.94147  94100335.70344  22980226.5944                   22980235.4454
 108970874.93148  84912465.83346  20736453.2584                   20736458.8524
 11  7 25  2 52 30.0000000  0  8G10G25G12G17G05G29G04G02
 111755180.37347  87082061.66945  21266291.6094                   21266299.9304
 118520621.121 7                  22553728.000
 109122538.621 8                  20765324.859
 127862251.816 6                  24331367.273
 109285258.841 8                  20796282.922
 129126506.845 6                  24571961.828
 120845078.18647  94165095.37244  22996041.4614                   22996050.1484
 108992027.21848  84928948.15546  20740478.2814                   20740484.3484
 11  7 25  2 53  0.0000000  0  8G10G25G12G17G05G29G04G02
 111805085.79347  87120949.01045  21275788.2274                   21275796.5514
 118449646.024 7                  22540222.117
 109114530.443 8                  20763800.898
 127934416.165 5                  24345099.805
 109230647.266 8                  20785890.242
 129045960.488 6                  24556634.078
 120928200.44647  94229865.97044  23011859.2974                   23011867.5234
 109013379.46348  84945586.28146  20744541.6094                   20744547.5944
 11  7 25  2 53 30.0000000  0  8G10G25G12G17G05G29G04G02
 111855547.10247  87160269.53645  21285390.6334                   21285398.9574
 118379094.868 7                  22526796.172
 109107103.771 8                  20762387.656
 128006758.150 5                  24358865.164
 109176548.585 8                  20775595.773
 128965349.505 6                  24541294.234
 121011335.07247  94294646.20744  23027679.2504                   23027687.9804
 109034930.26148  84962379.12846  20748642.3914                   20748648.4104
 11  7 25  2 54  0.0000000  0  8G10G25G12G17G05G29G04G02
 111906562.22947  87200021.60745  21295099.0314                   21295107.3674
 118308970.109 7                  22513451.695
 109100258.850 8                  20761085.328
 128079277.173 5                  24372665.156
 109122964.921 8                  20765398.727
 128884674.587 6                  24525942.469
 121094481.41547  94359435.55644  23043501.3834                   23043511.7194
 109056678.66748  84979325.95246  20752781.0234                   20752787.0204
 11  7 25  2 54 30.0000000  0  8G10G25G12G17G05G29G04G02
 111958129.34547  87240203.78945  21304911.6564                   21304920.0394
 118239274.119 7                  22500189.227
 109093996.047 8                  20759893.539
 128151973.472 6                  24386499.609
 109069897.856 8                  20755301.023
 128803935.892 7                  24510578.375
 121177637.95946  94424232.85344  23059325.5864                   23059334.6294
 109078623.54148  84996425.87246  20756957.0474                   20756963.2034
 11  7 25  2 55  0.0000000  0  8G10G25G12G17G05G29G04G02
 112010246.22148  87280814.35445  21314829.2734                   21314838.0314
 118170009.185 7                  22487008.625
 109088316.139 8                  20758812.086
 128224847.115 6                  24400366.641
 109017348.992 8                  20745300.836
 128723134.064 6                  24495202.508
 121260803.88446  94489037.44744  23075151.4454                   23075160.8404
 109100764.18648  85013678.33346  20761169.8914                   20761176.3404
 11  7 25  2 55 30.0000000  0  8G10G25G12G17G05G29G04G02
 112062910.65847  87321851.58445  21324850.8134                   21324859.7464
 118101177.550 7                  22473910.016
 109083219.166 7                  20757842.664
 128297897.711 6                  24414268.398
 108965319.652 8                  20735399.992
 128642269.916 6                  24479813.836
 121343977.90546  94553848.34944  23090979.8364                   23090988.3834
 109123099.41947  85031082.42146  20765420.2344                   20765426.4024
 11  7 25  2 56  0.0000000  0  8G10G25G12G17G05G29G04G02
 112116120.51847  87363313.82045  21334976.2814                   21334985.5594
 118032781.644 7                  22460895.078
 109078705.317 8                  20756983.625
 128371125.196 6                  24428202.867
 108913811.643 8                  20725598.234
 128561343.952 6                  24464413.695
 121427159.07446  94618664.81944  23106808.1414                   23106817.6334
 109145627.91148  85048637.10546  20769707.5084                   20769713.0274
 11  7 25  2 56 30.0000000  0  8G10G25G12G17G05G29G04G02
 112169874.33147  87405199.91645  21345205.4224                   21345213.8404
 117964823.844 7                  22447962.578
 109074775.349 8                  20756235.891
 128444529.525 6                  24442171.492
 108862826.731 8                  20715896.141
 128480356.533 6                  24449002.789
 121510346.19546  94683485.92144  23122637.9614                   23122647.5904
 109168348.67248  85066341.60846  20774031.0394                   20774036.5044
 11  7 25  2 57  0.0000000  0  8G10G25G12G17G05G29G04G02
 112224169.76347  87447508.05045  21355537.6094                   21355545.8554
 117897306.345 7                  22435114.734
 109071429.327 8                  20755599.320
 128518110.680 7                  24456174.078
 108812366.557 8                  20706294.023
 128399308.505 6                  24433579.313
 121593538.23646  94748310.86244  23138469.3204                   23138478.5634
 109191260.68348  85084195.13746  20778390.7814                   20778396.6374
 11  7 25  2 57 30.0000000  0  8G10G25G12G17G05G29G04G02
 112279004.62247  87490236.53745  21365972.5474                   21365980.2814
 117830231.511 7                  22422350.563
 109068667.698 8                  20755073.438
 128591868.479 6                  24470209.172
 108762432.447 8                  20696792.031
 128318200.407 6                  24418144.938
 121676734.19147  94813138.84944  23154301.5164                   23154310.1564
 109214363.01948  85102196.98746  20782787.3754                   20782793.0084
 11  7 25  2 58  0.0000000  0  8G10G25G12G17G05G29G04G02
 112334376.85247  87533383.74545  21376508.9774                   21376517.5164
 117763601.813 7                  22409671.383
 109066491.085 8                  20754659.406
 128665802.632 6                  24484278.109
 108713026.378 8                  20687390.070
 128237033.224 6                  24402699.664
 121759933.12347  94877969.17044  23170133.5084                   23170142.2624
 109237654.83348  85120346.47546  20787219.4614                   20787225.3484
 11  7 25  2 58 30.0000000  0  8G10G25G12G17G05G29G04G02
 112390284.40947  87576948.08945  21387147.7584                   21387156.7974
 117697419.355 7                  22397077.484
 109064899.273 8                  20754356.281
 128739913.171 6                  24498380.773
 108664149.536 8                  20678089.000
 128155807.128 6                  24387242.906
 121843133.84647  94942800.87244  23185965.5784                   23185974.8554
 109261134.87048  85138642.63446  20791687.4144                   20791693.6644
 11  7 25  2 59  0.0000000  0  8G10G25G12G17G05G29G04G02
 112446724.93247  87620927.72745  21397888.0004                   21397896.7774
 117631686.438 7                  22384568.414
 109063893.088 8                  20754165.016
 128814200.156 6                  24512517.414
 108615803.635 8                  20668888.945
 128074522.880 6                  24371774.602
 121926335.43947  95007633.25344  23201798.8134                   23201808.0664
 109284802.04048  85157084.59646  20796191.3914                   20796196.9304
 11  7 25  2 59 30.0000000  0  7G10G25G12G05G29G04G02
 112503697.17447  87665321.67045  21408729.8594                   21408738.0084
 117566405.930 7                  22372145.984
 109063472.594 8                  20754085.203
 108567990.765 8                  20659790.695
 127993182.073 6                  24356295.828
 122009537.48047  95072466.00044  23217631.6094                   23217640.5864
 109308656.24248  85175672.31446  20800730.4924                   20800736.6174
 11  7 25  3  0  0.0000000  0  7G10G25G12G05G29G04G02
 112561197.53347  87710127.13945  21419671.6564                   21419679.7664
 117501579.010 7                  22359809.844
 109063637.095 8                  20754116.328
 108520711.334 8                  20650793.813
 127911783.974 6                  24340806.641
 122092737.81947  95137297.42944  23233464.1884                   23233473.4654
 109332695.03948  85194403.85846  20805305.0084                   20805310.8984
 11  7 25  3  0 30.0000000  0  7G10G25G12G05G29G04G02
 112619224.05047  87755342.61145  21430713.6804                   21430721.4614
 117437208.392 7                  22347560.617
 109064387.114 8                  20754258.617
 108473967.076 8                  20641898.820
 127830329.634 6                  24325306.469
 122175936.18847  95202127.32444  23249296.3134                   23249305.2854
 109356918.14748  85213279.03246  20809914.4064                   20809920.3714
 11  7 25  3  1  0.0000000  0  7G10G25G12G05G29G04G02
 112677774.76947  87800966.55845  21441855.3834                   21441863.3914
 117373295.961 7                  22335398.500
 109065722.780 8                  20754513.383
 108427759.053 8                  20633105.289
 127748819.758 6                  24309795.547
 122259131.14847  95266954.55344  23265127.8134                   23265136.4884
 109381324.10148  85232296.68246  20814558.5394                   20814564.5394
 11  7 25  3  1 30.0000000  0  7G10G25G12G05G29G04G02
 112736847.32247  87846997.12845  21453096.7034                   21453105.0314
 117309843.871 7                  22323323.695
 109067644.147 8                  20754878.820
 108382088.773 8                  20624414.727
 127667255.190 6                  24294273.836
 122342321.64347  95331778.33144  23280957.9384                   23280967.0164
 109405912.00348  85251456.11146  20819237.6094                   20819243.3984
 11  7 25  3  2  0.0000000  0  7G10G25G12G05G29G04G02
 112796439.19847  87893432.36145  21464436.7344                   21464445.2194
 117246854.303 8                  22311337.289
 109070151.401 8                  20755355.438
 108336957.606 8                  20615826.852
 127585636.304 7                  24278743.211
 122425506.88847  95396597.98443  23296787.5784                   23296796.5784
 109430680.72548  85270756.42946  20823950.8914                   20823956.5824
 11  7 25  3  2 30.0000000  0  7G10G25G12G05G29G04G02
 112856548.45747  87940270.74945  21475874.8914                   21475883.7114
 117184329.755 7                  22299439.172
 109073244.403 8                  20755944.227
 108292367.134 8                  20607341.297
 127503964.110 7                  24263201.281
 122508685.82747  95461412.72643  23312616.1884                   23312625.1134
 109455629.59548  85290197.12746  20828698.5474                   20828704.6094
 11  7 25  3  3  0.0000000  0  7G10G25G12G05G29G04G02
 112917172.84047  87987510.51645  21487411.1254                   21487420.0554
 117122272.041 7                  22287629.703
 109076923.074 8                  20756644.492
 108248318.730 8                  20598958.938
 127422238.942 6                  24247649.273
 122591857.54647  95526221.86643  23328442.9384                   23328451.6844
 109480757.30948  85309777.16946  20833480.3284                   20833486.1724
 11  7 25  3  3 30.0000000  0  7G10G25G12G05G29G04G02
 112978310.15147  88035150.00245  21499045.3594                   21499054.0234
 117060683.666 7                  22275910.156
 109081187.739 8                  20757456.141
 108204813.436 8                  20590680.188
 127340461.926 7                  24232087.008
 122675021.35546  95591024.83943  23344268.6334                   23344277.5594
 109506063.15848  85329496.01046  20838295.9844                   20838301.6054
 11  7 25  3  4  0.0000000  0  7G10G25G12G05G29G04G02
 113039957.80447  88083187.13145  21510776.9694                   21510784.6174
 116999566.712 8                  22264279.656
 109086038.333 8                  20758379.047
 108161852.781 8                  20582505.023
 127258633.934 6                  24216515.906
 122758176.15646  95655820.78743  23360092.1174                   23360101.9884
 109531546.18348  85349352.91746  20843144.8674                   20843150.8914
 11  7 25  3  4 30.0000000  0  7G10G25G12G05G29G04G02
 113102113.13247  88131619.87645  21522604.6414                   21522612.2304
 116938922.692 8                  22252739.531
 109091474.312 8                  20759413.180
 108119437.702 8                  20574433.859
 127176755.110 6                  24200935.289
 122841320.73347  95720608.78244  23375914.3284                   23375923.5784
 109557204.70048  85369346.56946  20848027.5474                   20848033.3834
 11  7 25  3  5  0.0000000  0  7G10G25G12G05G29G04G02
 113164774.36247  88180446.83145  21534528.2584                   21534536.4804
 116878754.573 8                  22241290.164
 109097496.666 8                  20760559.445
 108077570.210 8                  20566466.820
 127094826.642 7                  24185344.742
 122924454.85646  95785388.58944  23391733.9534                   23391742.6644
 109583038.90748  85389477.12846  20852943.8204                   20852949.4734
 11  7 25  3  5 30.0000000  0  7G10G25G12G05G29G04G02
 113227939.13247  88229666.13945  21546548.6174                   21546556.9654
 116819064.447 8                  22229931.398
 109104104.782 8                  20761816.789
 108036251.140 8                  20558603.727
 127012849.521 7                  24169744.852
 123007577.56246  95850159.54744  23407552.0784                   23407560.7814
 109609047.79248  85409743.80046  20857893.2274                   20857899.0044
 11  7 25  3  6  0.0000000  0  7G10G25G12G05G29G04G02
 113291605.05747  88279275.95745  21558663.5164                   21558672.4614
 116759854.223 8                  22218663.953
 109111298.516 8                  20763185.875
 107995481.732 8                  20550845.406
 126930824.460 7                  24154135.727
 123090687.95346  95914920.87444  23423367.7344                   23423377.1954
 109635230.24748  85430145.71646  20862875.1414                   20862881.3094
 11  7 25  3  6 30.0000000  0  7G10G25G12G05G29G04G02
 113355768.79047  88329273.67345  21570873.3284                   21570882.0394
 116701125.167 7                  22207488.195
 109119077.045 8                  20764666.000
 107955262.504 8                  20543192.180
 126848751.504 7                  24138517.492
 123173784.43547  95979671.38444  23439180.4304                   23439190.4654
 109661584.14148  85450681.23646  20867890.4614                   20867896.0664
 11  7 25  3  7  0.0000000  0  7G10G25G12G05G29G04G02
 113420428.25147  88379657.67745  21583177.7344                   21583186.7234
 116642879.673 8                  22196404.508
 109127440.351 8                  20766257.547
 107915594.913 8                  20535643.320
 126766631.738 6                  24122890.688
 123256866.32847  96044410.49744  23454990.0554                   23454999.2424
 109688108.98448  85471349.95646  20872937.9694                   20872943.9304
 11  7 25  3  7 30.0000000  0  7G10G25G12G05G29G04G02
 113485581.25647  88430426.25445  21595575.9844                   21595583.9104
 116585120.097 7                  22185413.273
 109136388.530 8                  20767960.086
 107876480.271 8                  20528199.930
 126684466.436 6                  24107255.352
 123339933.19647  96109137.92944  23470797.0864                   23470806.6604
 109714804.44148  85492151.61846  20878017.9694                   20878023.7424
 11  7 25  3  8  0.0000000  0  7G10G25G12G05G29G04G02
 113551225.65047  88481577.75045  21608067.5164                   21608075.9104
 116527848.609 8                  22174514.641
 109145921.725 8                  20769774.203
 107837919.746 8                  20520862.266
 126602256.396 6                  24091610.375
 123422984.23647  96173853.02044  23486601.0634                   23486610.2894
 109741669.64848  85513085.55946  20883130.3284                   20883136.0664
 11  7 25  3  8 30.0000000  0  7G10G25G12G05G29G04G02
 113617358.67647  88533109.99545  21620652.1334                   21620660.6254
 116471066.936 8                  22163709.219
 109156039.127 8                  20771699.469
 107799914.433 8                  20513630.195
 126520002.022 6                  24075958.320
 123506018.40847  96238555.00444  23502401.7424                   23502411.4344
 109768703.30648  85534150.75946  20888274.3134                   20888280.3954
 11  7 25  3  9  0.0000000  0  7G10G25G12G05G29G04G02
 113683977.86647  88585021.07945  21633329.6024                   21633337.6334
 116414777.023 8                  22152998.102
 109166740.317 8                  20773736.125
 107762464.834 8                  20506503.555
 126437704.579 6                  24060297.414
 123589034.86847  96303243.14843  23518200.1884                   23518208.9884
 109795904.37648  85555346.40946  20893450.4304                   20893456.2704
 11  7 25  3  9 30.0000000  0  7G10G25G12G05G29G04G02
 113751081.02247  88637309.26345  21646098.3444                   21646107.3094
 116358980.934 8                  22142380.320
 109178025.791 8                  20775883.477
 107725572.839 8                  20499483.219
 126355364.502 6                  24044628.516
 123672032.71547  96367916.76144  23533993.7974                   23534002.0314
 109823272.22248  85576672.01746  20898658.7424                   20898664.3094
 11  7 25  3 10  0.0000000  0  7G10G25G12G05G29G04G02
 113818665.06047  88689972.16045  21658959.4774                   21658967.9304
 116303680.230 8                  22131856.766
 109189893.924 8                  20778142.039
 107689238.581 8                  20492569.289
 126272982.539 6                  24028951.281
 123755011.18646  96432575.33543  23549784.0004                   23549792.9694
 109850805.28748  85598126.36146  20903897.8594                   20903903.4534
 11  7 25  3 10 30.0000000  0  7G10G25G12G05G29G04G02
 113886727.28547  88743007.65745  21671911.5234                   21671920.0164
 116248876.816 8                  22121428.172
 109202344.601 8                  20780511.359
 107653463.221 8                  20485761.672
 126190559.460 6                  24013267.078
 123837969.16446  96497217.89743  23565570.9774                   23565580.1174
 109878502.58448  85619708.69346  20909168.3524                   20909174.2194
 11  7 25  3 11  0.0000000  0  7G10G25G12G05G29G04G02
 113955265.95447  88796414.42445  21684954.2114                   21684961.9614
 116194573.225 8                  22111094.375
 109215378.049 8                  20782991.188
 107618247.996 8                  20479060.188
 126108096.730 6                  23997574.844
 123920906.32346  96561844.26743  23581352.8054                   23581361.9224
 109906363.99648  85641418.89146  20914470.4384                   20914476.1174
 11  7 25  3 11 30.0000000  0  7G10G25G12G05G29G04G02
 114024278.84447  88850190.71845  21698086.3674                   21698094.5554
 116140771.650 8                  22100856.578
 109228994.614 8                  20785583.031
 107583593.924 8                  20472465.703
 126025595.310 6                  23981875.516
 124003822.33346  96626454.14443  23597131.2664                   23597139.1374
 109934389.08848  85663256.63746  20919803.1724                   20919809.0664
 11  7 25  3 12  0.0000000  0  7G10G25G12G05G29G04G02
 114093762.48547  88904333.82045  21711308.7274                   21711316.9104
 116087473.034 8                  22090713.992
 109243192.359 8                  20788284.336
 107549501.797 8                  20465978.227
 125943055.393 6                  23966168.109
 124086715.45046  96691046.15043  23612904.5314                   23612912.8984
 109962575.72148  85685220.26346  20925166.8834                   20925173.0554
 11  7 25  3 12 30.0000000  0  7G10G25G12G05G29G04G02
 114163714.78247  88958842.12445  21724620.5944                   21724628.4734
 116034679.568 8                  22080667.617
 109257971.014 8                  20791096.516
 107515972.602 8                  20459597.781
 125860478.258 7                  23950453.617
 124169585.38246  96755620.12443  23628675.3524                   23628683.5044
 109990923.55848  85707309.50046  20930561.2194                   20930567.6414
 11  7 25  3 13  0.0000000  0  7G10G25G12G05G29G04G02
 114234132.83847  89013713.35345  21738020.4534                   21738028.6454
 115982392.912 8                  22070717.594
 109273330.288 8                  20794019.438
 107483006.777 8                  20453324.445
 125777864.634 7                  23934732.430
 124252431.20746  96820175.34543  23644439.5554                   23644449.0274
 110019431.42248  85729523.44046  20935986.0864                   20935992.0004
 11  7 25  3 13 30.0000000  0  7G10G25G12G05G29G04G02
 114305014.05047  89068945.48345  21751509.0634                   21751516.8364
 115930615.135 8                  22060864.695
 109289269.671 8                  20797052.641
 107450605.379 8                  20447158.500
 125695215.545 6                  23919005.117
 124335252.23647  96884711.21243  23660200.3284                   23660208.9774
 110048098.58648  85751861.50946  20941441.5084                   20941447.2464
 11  7 25  3 14  0.0000000  0  7G10G25G12G05G29G04G02
 114376355.99447  89124536.62445  21765084.5634                   21765092.9064
 115879347.905 8                  22051108.891
 109305788.816 8                  20800196.273
 107418769.081 8                  20441100.773
 125612532.017 6                  23903271.742
 124418047.84547  96949227.23744  23675956.1884                   23675963.9534
 110076924.23648  85774323.06846  20946926.6254                   20946932.9104
 11  7 25  3 14 30.0000000  0  7G10G25G12G05G29G04G02
 114448156.18947  89180484.84245  21778747.5554                   21778755.9184
 115828593.247 8                  22041450.453
 109322886.835 8                  20803449.703
 107387498.865 8                  20435149.852
 125529814.731 7                  23887530.328
 124500817.42847  97013723.03144  23691706.6644                   23691715.8054
 110105907.54048  85796907.46646  20952442.6254                   20952448.4344
 11  7 25  3 15  0.0000000  0  7G10G25G12G05G29G04G02
 114520411.51247  89236787.69545  21792497.1024                   21792505.8794
 115778352.666 8                  22031890.031
 109340563.082 8                  20806813.469
 107356795.717 8                  20429307.438
 125447064.580 7                  23871784.094
 124583559.81947  97078197.66444  23707451.7894                   23707461.3204
 110135047.38648  85819613.85846  20957987.3444                   20957992.7974
 11  7 25  3 15 30.0000000  0  7G10G25G12G05G29G04G02
 114593119.81847  89293443.52045  21806333.0944                   21806341.5944
 115728628.094 8                  22022427.539
 109358817.631 8                  20810287.023
 107326660.165 8                  20423572.711
 125364283.074 7                  23856030.180
 124666274.62447  97142650.74444  23723192.0084                   23723200.7194
 110164343.34848  85842441.87846  20963561.9304                   20963567.4804
 11  7 25  3 16  0.0000000  0  7G10G25G12G05G29G04G02
 114666277.98947  89350449.89845  21820254.6254                   21820263.0634
 115679420.775 8                  22013063.750
 109377648.526 8                  20813870.539
 107297092.526 8                  20417946.180
 125281470.617 7                  23840271.648
 124748960.75046  97207081.45244  23738926.3914                   23738935.3444
 110193793.75148  85865390.26046  20969166.2194                   20969171.5944
 11  7 25  3 16 30.0000000  0  7G10G25G12G05G29G04G02
 114739883.94847  89407805.19845  21834261.5164                   21834269.9224
 115630732.883 8                  22003798.586
 109397055.685 8                  20817563.625
 107268093.521 8                  20412427.648
 125198628.623 6                  23824507.617
 124831617.89846  97271489.63043  23754655.4534                   23754664.6994
 110223398.22448  85888458.68146  20974799.8834                   20974805.9964
 11  7 25  3 17  0.0000000  0  7G10G25G12G05G29G04G02
 114813934.99447  89465507.31445  21848352.7734                   21848361.3324
 115582566.105 8                  21994632.750
 109417038.455 8                  20821366.102
 107239664.168 8                  20407017.805
 125115757.725 7                  23808738.578
 124914245.49046  97335874.75943  23770378.4144                   23770388.2234
 110253156.04748  85911646.59746  20980462.4304                   20980468.2304
 11  7 25  3 17 30.0000000  0  7G10G25G12G05G29G04G02
 114888428.16347  89523553.93645  21862528.6024                   21862537.2304
 115534922.247 8                  21985566.391
 109437596.799 8                  20825277.969
 107211805.226 8                  20401716.398
 125032859.103 7                  23792962.813
 124996842.81146  97400236.28343  23786097.0554                   23786106.0124
 110283066.57148  85934953.51846  20986154.4064                   20986160.1884
 11  7 25  3 18  0.0000000  0  7G10G25G12G05G29G04G02
 114963360.22347  89581942.54645  21876787.4064                   21876796.3404
 115487802.143 8                  21976599.523
 109458728.839 8                  20829299.789
 107184516.679 8                  20396523.336
 124949933.608 6                  23777182.133
 125079408.41246  97464573.11943  23801808.1414                   23801817.7894
 110313128.01748  85958378.03046  20991874.7344                   20991881.2074
 11  7 25  3 18 30.0000000  0  7G10G25G12G05G29G04G02
 115038728.84247  89640671.33745  21891130.1644                   21891138.0164
 115441208.066 8                  21967733.414
 109480434.042 8                  20833429.711
 107157799.323 8                  20391439.125
 124866982.251 6                  23761397.648
 125161942.51946  97528885.43543  23817513.0084                   23817523.8364
 110343340.21648  85981920.00646  20997624.1564                   20997629.9344
 11  7 25  3 19  0.0000000  0  7G10G25G12G05G29G04G02
 115114531.54347  89699738.37845  21905554.6724                   21905562.7664
 115395141.724 8                  21958967.102
 109502711.678 8                  20837669.211
 107131654.154 8                  20386463.852
 124784006.215 6                  23745607.313
 125244444.15246  97593172.36643  23833213.9774                   23833222.9694
 110373702.27348  86005578.75846  21003401.9304                   21003407.9304
 11  7 25  3 19 30.0000000  0  7G10G25G12G05G29G04G02
 115190765.97047  89759141.82845  21920061.7194                   21920069.9224
 115349604.839 8                  21950302.109
 109525561.143 8                  20842017.336
 107106081.678 8                  20381597.320
 124701006.472 6                  23729813.023
 125326912.94746  97657433.71843  23848906.3834                   23848916.1454
 110404213.63048  86029353.84446  21009207.9534                   21009213.3984
 11  7 25  3 20  0.0000000  0  7G10G25G12G05G29G04G02
 115267428.94247  89818879.20645  21934650.1644                   21934658.3164
 115304598.550 8                  21941737.273
 109548981.433 8                  20846473.883
 107081081.788 8                  20376840.305
 124617983.999 6                  23714014.633
 125409347.96746  97721668.80043  23864594.0234                   23864602.8714
 110434873.04648  86053244.29246  21015042.2894                   21015047.7624
 11  7 25  3 20 30.0000000  0  7G10G25G12G05G29G04G02
 115344517.44447  89878948.16345  21949319.5634                   21949327.9224
 115260124.439 8                  21933274.172
 109572971.200 8                  20851039.219
 107056655.032 8                  20372191.891
 124534939.791 7                  23698211.234
 125491748.58146  97785877.10143  23880274.2034                   23880282.8284
 110465679.60248  86077249.39746  21020904.5474                   21020910.4384
 11  7 25  3 21  0.0000000  0  7G10G25G12G05G29G04G02
 115422029.65147  89939347.27745  21964070.0004                   21964077.8324
 115216184.700 8                  21924912.805
 109597530.415 8                  20855712.414
 107032802.933 8                  20367653.164
 124451875.516 7                  23682405.188
 125574114.63946  97850058.49243  23895948.0084                   23895956.1914
 110496633.51648  86101369.32246  21026795.0314                   21026800.7704
 11  7 25  3 21 30.0000000  0  7G10G25G12G05G29G04G02
 115499962.44347  90000074.12645  21978900.0474                   21978907.9534
 115172780.365 8                  21916653.344
 109622657.796 8                  20860494.094
 107009524.969 8                  20363223.508
 124368791.654 7                  23666594.391
 125656445.27846  97914212.26943  23911615.7274                   23911623.3134
 110527733.34948  86125602.95346  21032712.7424                   21032718.6564
 11  7 25  3 22  0.0000000  0  7G10G25G12G05G29G04G02
 115578312.81447  90061126.35645  21993809.5394                   21993817.7504
 115129912.815 8                  21908495.984
 109648352.044 8                  20865383.477
 106986821.524 8                  20358903.086
 124285689.274 7                  23650780.461
 125738739.75347  97978337.82143  23927275.1254                   23927284.5634
 110558977.92248  86149949.37646  21038658.3754                   21038664.3634
 11  7 25  3 22 30.0000000  0  7G10G25G12G05G29G04G02
 115657078.03447  90122501.84645  22008798.2894                   22008806.7274
 115087583.650 8                  21900440.758
 109674612.079 8                  20870380.328
 106964693.276 8                  20354692.375
 124202569.575 7                  23634963.250
 125820997.57447  98042434.84143  23942928.4144                   23942937.4844
 110590366.78348  86174408.23146  21044631.2894                   21044637.5084
 11  7 25  3 23  0.0000000  0  7G10G25G12G05G29G04G02
 115736255.55147  90184198.61045  22023864.8444                   22023873.4224
 115045794.313 8                  21892488.461
 109701437.111 8                  20875485.359
 106943140.614 8                  20350590.727
 124119433.887 7                  23619143.156
 125903218.08447  98106502.80543  23958574.4144                   23958583.9264
 110621899.04948  86198978.83946  21050632.2114                   21050637.8484
 11  7 25  3 23 30.0000000  0  7G10G25G12G05G29G04G02
 115815842.08947  90246214.08745  22039009.5944                   22039018.1764
 115004546.211 8                  21884639.367
 109728826.237 8                  20880697.156
 106922163.497 8                  20346598.883
 124036283.162 7                  23603320.141
 125985400.74546  98170541.23843  23974213.2584                   23974221.5204
 110653574.06548  86223660.67546  21056659.6564                   21056665.3634
 11  7 25  3 24  0.0000000  0  7G10G25G12G05G29G04G02
 115895835.42147  90308546.55245  22054232.0234                   22054240.0824
 114963840.703 8                  21876893.258
 109756778.458 8                  20886016.398
 106901762.485 8                  20342716.898
 123953118.324 7                  23587493.984
 126067545.01746  98234549.80043  23989844.1174                   23989853.9144
 110685390.99448  86248453.09246  21062714.2584                   21062719.6764
 11  7 25  3 24 30.0000000  0  7G10G25G12G05G29G04G02
 115976232.89847  90371193.94145  22069530.9694                   22069539.6374
 114923679.583 8                  21869250.969
 109785292.563 8                  20891442.172
 106881938.139 8                  20338944.422
 123869940.896 7                  23571665.539
 126149650.76046  98298528.32643  24005468.8834                   24005478.0124
 110717349.59648  86273355.90146  21068795.2814                   21068801.3794
 11  7 25  3 25  0.0000000  0  7G10G25G12G05G29G04G02
 116057031.37047  90434153.78145  22084906.5314                   22084914.9224
 114884063.864 8                  21861712.258
 109814367.243 8                  20896975.047
 106862690.418 8                  20335281.617
 123786751.841 7                  23555835.336
 126231716.99646  98362476.07943  24021085.0164                   24021094.6334
 110749448.42648  86298367.98946  21074903.9454                   21074909.4884
 11  7 25  3 25 30.0000000  0  7G10G25G12G05G29G04G02
 116138227.92747  90497423.83145  22100357.5314                   22100366.1804
 114844994.819 8                  21854277.320
 109844001.523 7                  20902614.586
 106844019.329 8                  20331728.859
 123703551.966 7                  23540002.563
 126313743.18046  98426392.57443  24036694.4144                   24036703.2814
 110781686.83147  86323488.84046  21081038.6414                   21081044.3014
 11  7 25  3 26  0.0000000  0  7G10G25G12G05G29G04G02
 116219820.05647  90561002.12245  22115884.7114                   22115892.1094
 114806474.069 8                  21846947.313
 109874194.278 7                  20908359.828
 106825925.422 8                  20328285.586
 123620342.981 7                  23524168.523
 126395728.94846  98490277.57343  24052295.9844                   24052305.5124
 110814064.31048  86348718.04546  21087199.9064                   21087205.9494
 11  7 25  3 26 30.0000000  0  7G10G25G12G05G29G04G02
 116301805.04447  90624886.52845  22131485.4614                   22131493.8984
 114768502.931 8                  21839721.352
 109904944.189 8                  20914211.172
 106808409.088 8                  20324952.281
 123537126.199 6                  23508333.211
 126477673.91846  98554130.79343  24067889.5394                   24067898.9264
 110846580.24648  86374055.13746  21093387.1644                   21093393.0234
 11  7 25  3 27  0.0000000  0  7G10G25G12G05G29G04G02
 116384180.14447  90689074.92645  22147160.5864                   22147168.8984
 114731082.806 8                  21832600.742
 109936250.551 7                  20920168.695
 106791470.486 8                  20321729.008
 123453902.710 7                  23492495.609
 126559577.54646  98617951.79443  24083475.0864                   24083483.8134
 110879234.23248  86399499.81146  21099601.5864                   21099607.4064
 11  7 25  3 27 30.0000000  0  7G10G25G12G05G29G04G02
 116466942.29347  90753564.91545  22162909.8524                   22162918.0864
 114694214.388 8                  21825584.852
 109968111.392 8                  20926231.719
 106775109.085 8                  20318615.367
 123370673.079 7                  23476657.234
 126641439.03546  98681739.97143  24099052.5704                   24099061.5124
 110912024.60048  86425050.75646  21105840.8444                   21105847.0004
 11  7 25  3 28  0.0000000  0  7G10G25G12G05G29G04G02
 116550088.74547  90818354.36544  22178732.1414                   22178740.3634
 114657899.382 8                  21818674.414
 110000525.985 8                  20932399.813
 106759325.452 8                  20315611.883
 123287439.211 7                  23460818.742
 126723258.24846  98745495.19743  24114622.1254                   24114632.3954
 110944951.40048  86450708.01646  21112106.3984                   21112112.4844
 11  7 25  3 28 30.0000000  0  7G10G25G12G05G29G04G02
 116633616.34647  90883440.79645  22194627.0944                   22194635.3444
 114622138.947 8                  21811869.453
 110033492.985 8                  20938673.438
 106744119.781 8                  20312718.281
 123204201.958 7                  23444979.188
 126805034.48046  98809216.99043  24130184.2894                   24130192.5664
 110978013.63248  86476470.81346  21118398.5314                   21118404.3954
 11  7 25  3 29  0.0000000  0  7G10G25G12G05G29G04G02
 116717521.93147  90948821.78845  22210593.8054                   22210601.5864
 114586933.570 8                  21805169.711
 110067010.501 8                  20945051.383
 106729491.269 8                  20309934.805
 123120962.084 6                  23429138.813
 126886766.80846  98872904.47843  24145736.9924                   24145745.6524
 111011209.83048  86502337.97546  21124715.3754                   21124720.5394
 11  7 25  3 29 30.0000000  0  7G10G25G12G05G29G04G02
 116801803.99247  91014496.11845  22226632.1484                   22226639.6334
 114552285.835 8                  21798576.586
 110101078.166 8                  20951534.297
 106715441.517 8                  20307261.164
 123037722.118 7                  23413298.852
 126968455.85646  98936558.36043  24161282.3754                   24161291.3984
 111044540.99948  86528310.33146  21131058.2424                   21131064.0124
 11  7 25  3 30  0.0000000  0  7G10G25G12G05G29G04G02
 116886458.49447  91080460.68544  22242741.1804                   22242749.1484
 114518195.603 8                  21792089.398
 110135693.303 7                  20958121.430
 106701969.071 8                  20304697.398
 122954481.998 7                  23397458.555
 127050100.30447  99000177.43743  24176819.2974                   24176827.8674
 111078004.69847  86554385.93246  21137426.1884                   21137431.7234
 11  7 25  3 30 30.0000000  0  7G10G25G12G05G29G04G02
 116971482.83747  91146713.42744  22258921.0004                   22258928.8054
 114484664.416 8                  21785708.586
 110170855.378 8                  20964812.922
 106689074.468 8                  20302243.719
 122871243.498 7                  23381619.227
 127131699.97146  99063761.58443  24192345.7664                   24192355.3364
 111111601.12648  86580564.98846  21143818.8984                   21143824.8204
 11  7 25  3 31  0.0000000  0  7G10G25G12G05G29G04G02
 117056874.34047  91213252.27344  22275169.9694                   22275178.1094
 114451693.549 8                  21779434.398
 110206563.175 8                  20971607.484
 106676757.527 8                  20299900.055
 122788007.792 7                  23365779.859
 127213254.49846  99127310.59443  24207865.8594                   24207875.2114
 111145329.76348  86606847.05546  21150237.4614                   21150243.5234
 11  7 25  3 31 30.0000000  0  7G10G25G12G05G29G04G02
 117142630.58847  91280075.32444  22291489.1254                   22291497.2344
 114419284.119 8                  21773266.992
 110242815.094 8                  20978506.242
 106665018.529 8                  20297665.914
 122704776.509 7                  23349941.266
 127294763.53246  99190824.18043  24223376.0164                   24223386.5514
 111179189.95548  86633231.63746  21156680.9384                   21156686.7034
 11  7 25  3 32  0.0000000  0  7G10G25G12G05G29G04G02
 117228748.21847  91347179.97444  22307876.5864                   22307884.5084
 114387437.190 8                  21767206.984
 110279609.561 8                  20985507.633
 106653857.124 8                  20295541.938
 122621550.600 7                  23334103.695
 127376226.52846  99254301.81742  24238878.0554                   24238887.0044
 111213180.87148  86659718.08046  21163149.3834                   21163154.7544
 11  7 25  3 32 30.0000000  0  7G10G25G12G05G29G04G02
 117315224.27447  91414563.91245  22324332.8054                   22324340.6454
 114356153.663 8                  21761253.969
 110316945.182 8                  20992612.430
 106643273.056 8                  20293527.789
 122538331.434 7                  23318267.773
 127457642.92146  99317743.17543  24254371.5164                   24254379.9534
 111247301.64048  86686305.69746  21169642.0864                   21169647.5744
 11  7 25  3 33  0.0000000  0  7G10G25G12G05G29G04G02
 117402055.96347  91482224.96944  22340855.8284                   22340864.0394
 114325434.369 8                  21755408.320
 110354820.333 8                  20999820.117
 106633266.455 8                  20291623.594
 122455120.238 6                  23302433.008
 127539012.31946  99381147.89943  24269854.6024                   24269864.1604
 111281551.57548  86712993.95946  21176159.5554                   21176165.0554
 11  7 25  3 33 30.0000000  0  7G10G25G12G05G29G04G02
 117489240.36847  91550160.87344  22357446.5554                   22357454.3874
 114295280.283 8                  21749669.938
 110393233.289 8                  21007129.594
 106623836.918 8                  20289829.305
 122371918.382 6                  23286600.148
 127620334.52346  99444515.84942  24285330.7424                   24285338.6174
 111315930.03548  86739782.38346  21182701.4844                   21182707.5004
 11  7 25  3 34  0.0000000  0  7G10G25G12G05G29G04G02
 117576775.05447  91618369.71244  22374104.1884                   22374111.8914
 114265692.841 8                  21744039.664
 110432183.313 8                  21014541.313
 106614984.628 8                  20288144.695
 122288727.594 6                  23270769.313
 127701609.05046  99507846.66843  24300795.4694                   24300804.8324
 111350437.08548  86766670.98946  21189268.0704                   21189273.6914
 11  7 25  3 34 30.0000000  0  7G10G25G12G05G29G04G02
 117664656.32847  91686848.62944  22390827.3444                   22390835.1254
 114236672.314 8                  21738516.906
 110471667.797 8                  21022055.180
 106606708.733 8                  20286570.047
 122205548.391 6                  23254940.641
 127782835.38846  99571139.85543  24316252.9694                   24316261.8984
 111385071.03448  86793658.50046  21195858.7894                   21195864.4414
 11  7 25  3 35  0.0000000  0  7G10G25G12G05G29G04G02
 117752882.21347  91755596.08844  22407616.0164                   22407624.4384
 114208220.251 8                  21733102.500
 110511685.783 8                  21029670.164
 106599009.464 8                  20285104.906
 122122382.992 6                  23239115.109
 127864013.50146  99634395.50743  24331700.4534                   24331709.7234
 111419832.17648  86820745.10646  21202473.4454                   21202479.5634
 11  7 25  3 35 30.0000000  0  7G10G25G12G05G29G04G02
 117841449.32947  91824609.40544  22424469.6954                   22424477.9614
 114180337.139 8                  21727796.953
 110552235.545 8                  21037386.852
 106591886.182 8                  20283749.289
 122039231.915 7                  23223291.805
 127945142.71346  99697613.04543  24347138.5554                   24347148.3914
 111454719.33548  86847929.91246  21209112.1174                   21209118.0704
 11  7 25  3 36  0.0000000  0  7G10G25G12G05G29G04G02
 117930355.20147  91893886.69244  22441388.2734                   22441396.1454
 114153024.218 8                  21722599.547
 110593315.554 8                  21045204.086
 106585339.186 8                  20282503.344
 121956097.272 7                  23207472.133
 128026222.85246  99760792.36143  24362568.6884                   24362577.5314
 111489732.36348  86875212.79846  21215774.6414                   21215780.8484
 11  7 25  3 36 30.0000000  0  8G10G25G12G26G05G29G04G02
 118019596.87547  91963425.66044  22458370.3134                   22458378.5594
 114126282.348 8                  21717510.594
 110634924.316 8                  21053122.063
 130188122.61256 101445255.25153  24773958.7504                   24773967.0704
 106579367.925 8                  20281366.953
 121872980.356 7                  23191655.164
 128107253.75546  99823933.31543  24377987.5784                   24377997.5514
 111524870.68848  86902593.32246  21222461.2114                   21222467.6804
 11  7 25  3 37  0.0000000  0  8G10G25G12G26G05G29G04G02
 118109171.48147  92033224.02344  22475416.4534                   22475424.1374
 114100112.273 8                  21712530.609
 110677060.013 8                  21061140.023
 130092620.60546 101370838.17843  24755783.6954                   24755794.1604
 106573972.297 8                  20280340.117
 121789882.382 7                  23175842.203
 128188235.15147  99887035.69944  24393398.9384                   24393407.2854
 111560133.70448  86930071.00946  21229172.0394                   21229177.9264
 11  7 25  3 37 30.0000000  0  8G10G25G12G26G05G29G04G02
 118199075.88847  92103279.40744  22492524.2194                   22492532.1994
 114074514.693 8                  21707659.695
 110719720.980 8                  21069258.195
 129997005.81746 101296333.24243  24737589.1254                   24737599.4304
 106569151.539 8                  20279422.961
 121706804.971 7                  23160033.109
 128269166.29946  99950098.89543  24408798.6804                   24408807.9884
 111595520.64648  86957645.25046  21235905.9774                   21235911.9264
 11  7 25  3 38  0.0000000  0  8G10G25G12G26G05G29G04G02
 118289307.08547  92173589.42044  22509694.6484                   22509702.6804
 114049490.162 8                  21702897.664
 110762905.223 8                  21077476.063
 129901281.44145 101221742.99142  24719373.3914                   24719383.1994
 106564905.234 8                  20278614.773
 121623749.022 7                  23144228.133
 128350046.78947 100013122.64843  24424190.0394                   24424198.4844
 111631030.59548  86985315.33046  21242663.1024                   21242668.9304
 11  7 25  3 38 30.0000000  0  8G10G25G12G26G05G29G04G02
 118379862.26347  92244151.87244  22526926.5864                   22526934.5044
 114025039.526 8                  21698244.547
 110806611.180 8                  21085792.805
 129805450.17445 101147069.22542  24701137.5164                   24701146.5744
 106561232.956 8                  20277916.305
 121540716.019 7                  23128428.086
 128430876.45646 100076106.83543  24439571.0004                   24439580.9064
 111666663.15648  87013080.97646  21249443.9064                   21249449.4344
 11  7 25  3 39  0.0000000  0  8G10G25G12G26G05G29G04G02
 118470738.14647  92314964.23944  22544219.7034                   22544227.9144
 114001163.357 8                  21693701.180
 110850836.952 8                  21094208.930
 129709514.90545 101072314.56242  24682880.7584                   24682890.8914
 106558133.898 8                  20277326.227
 121457707.421 7                  23112631.570
 128511654.83846 100139050.99343  24454943.5234                   24454952.5594
 111702417.61948  87040941.59946  21256247.4694                   21256253.6334
 11  7 25  3 39 30.0000000  0  8G10G25G12G26G05G29G04G02
 118561932.28847  92386024.60744  22561572.6724                   22561581.3014
 113977862.650 8                  21689267.281
 110895580.723 8                  21102723.320
 129613478.97516                  24664606.016
 106555608.255 8                  20276845.867
 121374724.859 7                  23096840.359
 128592381.82846 100201955.13243  24470304.6334                   24470314.0634
 111738293.78448  87068897.06146  21263074.6804                   21263080.6094
 11  7 25  3 40  0.0000000  0  8G10G25G12G26G05G29G04G02
 118653441.80447  92457330.71544  22578987.0164                   22578994.5824
 113955137.925 8                  21684942.820
 110940840.998 8                  21111336.219
 129517345.15346 100922559.93852  24646312.7504                   24646321.1294
 106553655.251 8                  20276473.867
 121291769.660 6                  23081053.867
 128673057.14146 100264819.04143  24485657.2664                   24485666.1884
 111774290.87948  87096946.75346  21269924.2894                   21269930.6604
 11  7 25  3 40 30.0000000  0  8G10G25G12G26G05G29G04G02
 118745263.74847  92528880.26644  22596460.2894                   22596467.8204
 113932989.899 8                  21680728.031
 110986615.570 8                  21120046.672
 129421116.51246 100847576.65343  24628001.5084                   24628010.3204
 106552274.397 8                  20276211.039
 121208843.212 6                  23065273.219
 128753680.49346 100327642.51042  24500998.8674                   24501008.3484
 111810408.56948  87125090.41746  21276797.5554                   21276803.5354
 11  7 25  3 41  0.0000000  0  8G10G25G12G26G05G29G04G02
 118837395.27347  92600671.06144  22613992.4774                   22613999.8054
 113911419.222 8                  21676623.492
 111032902.842 8                  21128854.875
 129324796.09447 100772521.75443  24609671.7274                   24609680.9574
 106551465.357 8                  20276057.320
 121125947.234 7                  23049498.234
 128834251.67546 100390425.28042  24516330.0314                   24516339.3834
 111846646.40348  87153327.69546  21283693.3834                   21283699.0904
 11  7 25  3 41 30.0000000  0  8G10G25G12G26G05G29G04G02
 118929833.67247  92672700.98644  22631582.9614                   22631590.9924
 113890426.504 8                  21672628.961
 111079701.233 8                  21137760.281
 129228386.72646 100697397.58443  24591325.3204                   24591335.3444
 106551227.586 8                  20276011.547
 121043083.183 7                  23033730.539
 128914770.43545 100453167.16442  24531652.2734                   24531661.5204
 111883003.83948  87181658.16846  21290612.1804                   21290618.1094
 11  7 25  3 42  0.0000000  0  8G10G25G12G26G05G29G04G02
 119022575.98347  92744967.70544  22649231.4304                   22649238.9304
 113870012.290 8                  21668744.023
 111127008.884 8                  21146762.477
 129131891.69347 100622206.71743  24572962.8674                   24572972.5004
 106551560.027 8                  20276075.102
 120960252.615 7                  23017968.563
 128995236.28345 100515867.86242  24546964.3134                   24546974.2664
 111919480.40548  87210081.47746  21297553.0944                   21297559.0234
 11  7 25  3 42 30.0000000  0  8G10G25G12G26G05G29G04G02
 119115618.93647  92817468.71144  22666936.1884                   22666944.3284
 113850176.772 8                  21664969.398
 111174822.756 8                  21155861.227
 129035313.64947 100546951.11143  24554585.0864                   24554594.6764
 106552461.707 8                  20276246.805
 120877456.376 7                  23002213.156
 129075648.74445 100578526.80542  24562267.0474                   24562276.5864
 111956074.86948  87238596.65446  21304516.7734                   21304522.8244
 11  7 25  3 43  0.0000000  0  8G10G25G12G26G05G29G04G02
 119208959.74647  92890201.79144  22684698.8364                   22684706.6644
 113830920.874 8                  21661305.500
 111223141.856 8                  21165055.930
 128938655.92846 100471633.42443  24536191.3284                   24536200.7974
 106553933.151 8                  20276526.953
 120794696.595 7                  22986464.273
 129156007.88246 100641144.29442  24577559.3834                   24577568.2934
 111992787.11148  87267203.60046  21311503.3134                   21311508.9264
 11  7 25  3 43 30.0000000  0  8G10G25G12G26G05G29G04G02
 119302595.68947  92963164.86444  22702516.7114                   22702525.1524
 113812245.014 8                  21657751.281
 111271964.272 8                  21174346.695
 128841921.56346 100396256.04543  24517783.9304                   24517792.9344
 106555973.352 8                  20276914.898
 120711974.522 7                  22970722.281
 129236313.45046 100703720.07643  24592841.8984                   24592849.7194
 112029616.80448  87295902.06546  21318511.4454                   21318516.9104
 11  7 25  3 44  0.0000000  0  8G10G25G12G26G05G29G04G02
 119396523.97747  93036355.72244  22720390.3204                   22720398.9574
 113794149.685 8                  21654307.750
 111321287.998 8                  21183732.391
 128745113.61246 100320821.32843  24499361.3364                   24499370.7074
 106558581.783 8                  20277411.648
 120629291.873 7                  22954988.336
 129316565.34446 100766254.04143  24608112.3674                   24608121.4144
 112066563.58048  87324691.77246  21325541.8204                   21325547.7234
 11  7 25  3 44 30.0000000  0  8G10G25G12G26G05G29G04G02
 119490741.36547  93109771.84144  22738320.1884                   22738327.8634
 113776635.010 8                  21650974.789
 111371110.720 8                  21193213.305
 128648234.87646 100245331.44443  24480926.7504                   24480935.8014
 106561756.681 8                  20278015.508
 120546649.734 7                  22939262.219
 129396762.91546 100828745.67543  24623372.6024                   24623382.1954
 112103626.42348  87353571.90446  21332594.8524                   21332600.5594
 11  7 25  3 45  0.0000000  0  8G10G25G12G26G05G29G04G02
 119585245.11247  93183411.11044  22756303.0314                   22756311.6294
 113759701.691 8                  21647752.461
 111421430.731 8                  21202788.953
 128551288.50946 100169788.90443  24462477.7894                   24462488.1174
 106565497.998 8                  20278727.508
 120464050.215 7                  22923543.711
 129476906.15146 100891195.00443  24638624.2034                   24638633.6764
 112140805.06448  87382542.28446  21339669.6094                   21339675.4844
 11  7 25  3 45 30.0000000  0  8G10G25G12G26G05G29G04G02
 119680032.40547  93257271.32144  22774341.0394                   22774348.8834
 113743350.228 8                  21644640.852
 111472245.777 8                  21212458.977
 128454277.96445 100094196.29943  24444017.7504                   24444027.2624
 106569805.301 8                  20279547.148
 120381494.449 7                  22907834.141
 129556995.14446 100953601.95243  24653864.9064                   24653873.6294
 112178099.08848  87411602.56046  21346766.5554                   21346772.6804
 11  7 25  3 46  0.0000000  0  8G10G25G12G26G05G29G04G02
 119775100.43847  93331350.30144  22792431.5864                   22792439.7154
 113727580.797 8                  21641639.938
 111523554.364 7                  21222222.641
 128357206.18445 100018556.03443  24425545.0394                   24425555.3954
 106574677.477 8                  20280474.289
 120298984.320 7                  22892133.000
 129637029.31446 101015966.26443  24669095.2504                   24669104.2194
 112215508.26148  87440752.56846  21353885.6954                   21353891.2584
 11  7 25  3 46 30.0000000  0  8G10G25G12G26G05G29G04G02
 119870446.29447  93405645.75844  22810575.4064                   22810583.4734
 113712393.763 8                  21638750.008
 111575353.675 8                  21232079.883
 128260076.16146  99942870.37343  24407061.5554                   24407071.6294
 106580113.572 8                  20281508.711
 120216521.336 7                  22876440.250
 129717008.52946 101078287.76143  24684314.2734                   24684323.7584
 112253031.94148  87469991.79146  21361026.0784                   21361031.9844
 11  7 25  3 47  0.0000000  0  7G10G25G12G26G05G29G02
 119966067.71847  93480155.94744  22828771.7734                   22828779.5084
 113697790.238 8                  21635971.008
 111627642.586 8                  21242030.039
 128162891.90646  99867142.46943  24388567.7584                   24388577.2704
 106586113.788 8                  20282650.172
 120134107.847 7                  22860758.203
 112290670.53347  87499320.56146  21368188.2584                   21368194.0434
 11  7 25  3 47 30.0000000  0  7G10G25G12G26G05G29G02
 120061961.25947  93554878.17144  22847019.1564                   22847027.9024
 113683769.799 8                  21633303.086
 111680418.444 8                  21252072.883
 128065655.97746  99791374.17843  24370064.2114                   24370073.5944
 106592676.679 8                  20283899.242
 120051744.594 7                  22845084.648
 112328422.66548  87528737.80446  21375372.2664                   21375378.0514
 11  7 25  3 48  0.0000000  0  7G10G25G12G26G05G29G02
 120158123.83346  93629810.03144  22865318.3594                   22865326.4454
 113670332.562 8                  21630746.086
 111733679.392 8                  21262208.461
 127968371.32146  99715568.03143  24351552.7894                   24351561.3404
 106599801.103 8                  20285255.391
 119969433.005 7                  22829421.594
 112366287.97548  87558243.24146  21382578.1414                   21382584.1994
 11  7 25  3 48 30.0000000  0  7G10G25G12G26G05G29G02
 120254552.36047  93704949.14244  22883668.8444                   22883676.3134
 113657478.459 8                  21628300.008
 111787422.638 8                  21272435.094
 127871040.78146  99639726.03743  24333031.1174                   24333038.9534
 106607485.797 8                  20286717.641
 119887174.735 7                  22813767.961
 112404265.46548  87587836.09346  21389804.4694                   21389810.7584
 11  7 25  3 49  0.0000000  0  7G10G25G12G26G05G29G02
 120351244.05947  93780293.31244  22902068.1414                   22902076.2664
 113645207.983 8                  21625964.797
 111841646.059 8                  21282753.711
 127773667.70246  99563850.98143  24314501.4384                   24314509.7194
 106615729.825 8                  20288286.180
 119804971.396 7                  22798125.133
 112442355.23948  87617516.44146  21397053.0634                   21397058.9964
 11  7 25  3 49 30.0000000  0  7G10G25G12G26G05G29G02
 120448196.48347  93855840.65544  22920517.5234                   22920525.6294
 113633521.608 8                  21623740.781
 111896348.346 8                  21293163.039
 127676255.70246  99487945.55543  24295965.0394                   24295972.7734
 106624533.361 8                  20289961.266
 119722825.017 7                  22782493.031
 112480557.21048  87647284.19946  21404322.6174                   21404328.1804
 11  7 25  3 50  0.0000000  0  7G10G25G12G26G05G29G02
 120545406.50247  93931588.71644  22939016.5234                   22939024.2274
 113622419.042 8                  21621628.141
 111951526.447 8                  21303663.078
 127578807.38946  99412011.84043  24277420.6884                   24277429.0594
 106633894.508 8                  20291742.508
 119640736.931 7                  22766872.188
 112518870.51948  87677138.71046  21411613.3594                   21411619.0904
 11  7 25  3 50 30.0000000  0  7G10G25G12G26G05G29G02
 120642871.30147  94007535.31344  22957563.2584                   22957571.2734
 113611901.013 8                  21619626.594
 112007178.795 8                  21314253.320
 127481326.59246  99336052.86743  24258870.2344                   24258879.4964
 106643812.932 8                  20293630.266
 119558708.796 7                  22751263.203
 112557295.18948  87707080.00646  21418925.7894                   21418931.4804
 11  7 25  3 51  0.0000000  0  7G10G25G12G26G05G29G02
 120740587.91546  94083678.14044  22976157.7344                   22976166.3284
 113601967.066 8                  21617736.383
 112063302.569 8                  21324933.469
 127383816.04446  99260070.68443  24240314.5704                   24240324.6524
 106654287.079 8                  20295623.422
 119476742.405 7                  22735665.398
 112595830.40048  87737107.44746  21426258.2894                   21426264.5664
 11  7 25  3 51 30.0000000  0  7G10G25G12G26G05G29G02
 120838553.58247  94160015.00244  22994799.5784                   22994808.1954
 113592617.352 8                  21615957.313
 112119895.832 8                  21335702.547
 127286278.93446  99184067.84143  24221753.4614                   24221764.2584
 106665315.770 8                  20297721.938
 119394839.196 7                  22720079.844
 112634475.78348  87767220.73646  21433612.7894                   21433618.1954
 11  7 25  3 52  0.0000000  0  7G10G25G12G26G05G29G02
 120936765.27447  94236543.59444  23013488.4614                   23013497.7154
 113583851.986 8                  21614288.836
 112176956.246 8                  21346560.875
 127188718.74446  99108046.99543  24203188.6804                   24203198.3054
 106676898.373 8                  20299925.938
 119313001.152 7                  22704505.805
 112673231.02248  87797419.61246  21440987.3984                   21440992.9494
 11  7 25  3 52 30.0000000  0  7G10G25G12G26G05G29G02
 121035220.23747  94313261.70044  23032224.0004                   23032233.1214
 113575671.375 8                  21612732.156
 112234481.936 7                  21357507.867
 127091138.87146  99032010.84243  24184619.9064                   24184629.3594
 106689034.133 8                  20302235.445
 119231230.155 7                  22688945.305
 112712096.17748  87827704.14546  21448383.1884                   21448388.8754
 11  7 25  3 53  0.0000000  0  7G10G25G12G26G05G29G02
 121133915.47147  94390167.05744  23051005.2034                   23051014.2154
 113568075.189 8                  21611287.211
 112292470.559 7                  21368542.570
 126993542.32846  98955961.68043  24166047.3364                   24166057.1334
 106701721.430 8                  20304649.766
 119149527.490 7                  22673397.477
 112751070.47848  87858073.72546  21455799.9304                   21455805.7974
 11  7 25  3 53 30.0000000  0  7G10G25G12G26G05G29G02
 121232848.74847  94467257.91044  23069832.7034                   23069840.4534
 113561063.656 8                  21609952.742
 112350919.607 8                  21379665.094
 126895932.72746  98879902.32043  24147473.7344                   24147483.3364
 106714959.689 8                  20307168.664
 119067894.965 7                  22657864.281
 112790153.77048  87888528.24446  21463236.7584                   21463243.2344
 11  7 25  3 54  0.0000000  0  7G10G25G12G26G05G29G02
 121332016.72247  94544531.63944  23088703.1724                   23088711.8054
 113554636.085 8                  21608729.758
 112409826.294 8                  21390874.758
 126798312.80346  98803834.95043  24128897.1094                   24128906.0824
 106728746.875 8                  20309792.516
 118986333.964 7                  22642343.391
 112829345.25948  87919067.06646  21470694.8524                   21470701.0944
 11  7 25  3 54 30.0000000  0  7G10G25G12G26G05G29G02
 121431416.74247  94621986.20244  23107618.4844                   23107627.1414
 113548793.001 8                  21607617.797
 112469188.943 8                  21402171.047
 126700686.04946  98727762.22043  24110319.7274                   24110328.0514
 106743082.617 8                  20312520.703
 118904846.885 7                  22626836.859
 112868644.87148  87949690.13246  21478173.4844                   21478179.0394
 11  7 25  3 55  0.0000000  0  7G10G25G12G26G05G29G02
 121531046.05247  94699619.41644  23126576.7894                   23126585.5474
 113543534.110 8                  21606616.797
 112529004.913 8                  21413553.563
 126603055.77246  98651686.77343  24091740.8524                   24091749.3794
 106757965.661 8                  20315352.469
 118823435.053 7                  22611344.742
 112908052.12548  87980397.07846  21485672.3054                   21485678.0044
 11  7 25  3 55 30.0000000  0  7G10G25G12G26G05G29G02
 121630901.41947  94777428.78444  23145578.5784                   23145587.0514
 113538859.333 8                  21605727.414
 112589271.939 8                  21425022.094
 126505425.37146  98575611.18743  24073161.9454                   24073171.0204
 106773394.548 8                  20318288.469
 118742100.343 7                  22595867.281
 112947567.11648  88011187.97146  21493191.8674                   21493197.7934
 11  7 25  3 56  0.0000000  0  7G10G25G12G26G05G29G02
 121730980.32747  94855412.35743  23164623.5784                   23164631.6374
 113534768.518 8                  21604949.008
 112649987.718 8                  21436575.836
 126407798.12146  98499538.12743  24054584.7344                   24054593.5984
 106789368.287 8                  20321328.359
 118660844.428 7                  22580404.203
 112987189.43848  88042062.52246  21500731.5554                   21500737.6724
 11  7 25  3 56 30.0000000  0  7G10G25G12G26G05G29G02
 121831279.82547  94933567.81844  23183709.3674                   23183716.9344
 113531261.420 8                  21604281.617
 112711149.717 8                  21448214.938
 126310177.48646  98423470.13143  24036007.1254                   24036016.6994
 106805885.666 8                  20324471.703
 118579669.089 7                  22564957.078
 113026918.52148  88073020.24446  21508291.7664                   21508297.7424
 11  7 25  3 57  0.0000000  0  7G10G25G12G26G05G29G02
 121931797.20747  95011893.07243  23202837.2504                   23202845.1254
 113528337.773 8                  21603725.070
 112772755.509 8                  21459937.961
 126212566.47947  98347409.66843  24017432.8364                   24017441.7664
 106822945.189 8                  20327717.508
 118498576.170 7                  22549525.328
 113066754.50248  88104061.26346  21515872.6804                   21515877.6564
 11  7 25  3 57 30.0000000  0  7G10G25G12G26G05G29G02
 122032529.59647  95090385.82243  23222005.7584                   23222014.0554
 113525997.303 8                  21603280.000
 112834802.741 8                  21471745.398
 126114968.34947  98271359.22043  23998860.9144                   23998868.9844
 106840545.475 8                  20331067.102
 118417567.323 7                  22534110.094
 113106696.18248  88135184.65546  21523473.1254                   21523478.9774
 11  7 25  3 58  0.0000000  0  7G10G25G12G26G05G29G02
 122133474.37446  95169044.08743  23241214.9304                   23241222.9734
 113524239.943 8                  21602945.500
 112897289.038 8                  21483635.867
 126017386.88446  98195321.75543  23980290.8754                   23980299.8554
 106858685.857 8                  20334518.891
 118336644.552 7                  22518710.703
 113146743.82148  88166390.62646  21531093.7584                   21531099.6604
 11  7 25  3 58 30.0000000  0  7G10G25G12G26G05G29G02
 122234628.42046  95247865.39843  23260464.1414                   23260471.9574
 113523065.177 8                  21602721.836
 112960211.682 8                  21495609.453
 125919825.07746  98119299.63443  23961725.8204                   23961734.3524
 106877364.373 8                  20338073.328
 118255809.543 7                  22503328.680
 113186897.02448  88197678.83946  21538734.4844                   21538741.0474
 11  7 25  3 59  0.0000000  0  7G10G25G12G26G05G29G02
 122335988.96446  95326847.61943  23279752.9534                   23279760.7624
 113522472.879 8                  21602609.031
 113023568.870 8                  21507666.172
 125822286.61746  98043295.69943  23943163.7504                   23943173.3594
 106896580.030 8                  20341729.859
 118175064.026 7                  22487963.047
 113227155.88948  88229049.39346  21546395.9614                   21546401.1174
 11  7 25  3 59 30.0000000  0  7G10G25G12G26G05G29G02
 122437553.16247  95405988.52543  23299079.6254                   23299087.9144
 113522462.489 8                  21602607.023
 113087357.210 8                  21519804.680
 125724774.61446  97967312.35643  23924608.3444                   23924617.8984
 106916331.117 8                  20345488.367
 118094409.873 7                  22472615.250
 113267519.54148  88260501.57746  21554077.0084                   21554082.1884
 11  7 25  4  0  0.0000000  0  7G10G25G12G26G05G29G02
 122539318.43947  95485286.13244  23318445.2664                   23318453.9844
 113523033.790 8                  21602715.977
 113151574.655 8                  21532024.727
 125627292.55246  97891352.37443  23906058.3364                   23906067.7704
 106936616.478 8                  20349348.648
 118013848.787 7                  22457285.016
 113307987.94948  88292035.41046  21561777.4384                   21561783.4734
 11  7 25  4  0 30.0000000  0  7G10G25G12G26G05G29G02
 122641281.84547  95564738.13744  23337848.7424                   23337856.3444
 113524186.138 8                  21602935.102
 113216218.463 8                  21544326.141
 125529843.74546  97815418.32143  23887514.7974                   23887523.9774
 106957434.511 8                  20353310.242
 117933382.566 7                  22441972.297
 113348560.93448  88323650.73346  21569498.6024                   21569504.0554
 11  7 25  4  1  0.0000000  0  7G10G25G12G26G05G29G02
 122743441.01147  95644342.67944  23357288.7974                   23357296.7704
 113525919.733 8                  21603264.875
 113281286.439 8                  21556708.344
 125432432.03446  97739513.16643  23868978.1644                   23868986.6914
 106978784.706 8                  20357373.188
 117853013.463 7                  22426678.945
 113389238.29248  88355347.38346  21577239.0704                   21577244.7734
 11  7 25  4  1 30.0000000  0  7G10G25G12G26G05G29G02
 122845792.94347  95724097.41644  23376765.2424                   23376773.9344
 113528233.806 8                  21603705.242
 113346776.031 7                  21569170.180
 125335060.37047  97663639.18444  23850448.5394                   23850458.1094
 107000665.096 8                  20361536.531
 117772743.257 7                  22411403.891
 113430019.88848  88387125.25546  21584999.4694                   21585005.0084
 11  7 25  4  2  0.0000000  0  7G10G25G12G26G05G29G02
 122948334.28347  95803999.74544  23396278.2114                   23396286.4924
 113531127.197 8                  21604256.109
 113412683.822 7                  21581712.266
 125237731.96947  97587798.91544  23831927.4694                   23831936.6134
 107023073.310 8                  20365800.828
 117692573.449 7                  22396147.742
 113470904.79648  88418983.63646  21592779.4304                   21592785.3134
 11  7 25  4  2 30.0000000  0  7G10G25G12G26G05G29G02
 123051063.08247  95884048.14644  23415827.2734                   23415835.1914
 113534600.266 8                  21604917.109
 113479008.359 8                  21594333.328
 125140450.66447  97511995.38044  23813415.1644                   23813424.8404
 107046008.931 8                  20370165.461
 117612505.887 7                  22380912.047
 113511893.54148  88450922.92046  21600579.5784                   21600585.2894
 11  7 25  4  3  0.0000000  0  7G10G25G12G26G05G29G02
 123153976.09046  95964240.08644  23435409.9924                   23435418.4414
 113538652.192 8                  21605687.766
 113545747.046 7                  21607033.297
 125043219.86946  97436231.17843  23794913.2194                   23794921.8244
 107069470.262 8                  20374629.766
 117532542.745 7                  22365695.078
 113552985.59948  88482942.70846  21608399.1254                   21608405.4494
 11  7 25  4  3 30.0000000  0  7G10G25G12G26G05G29G02
 123257070.66546  96044573.52444  23455029.2664                   23455037.1414
 113543282.346 8                  21606569.023
 113612896.599 8                  21619811.711
 124946042.67546  97360508.69744  23776420.7194                   23776429.5664
 107093455.477 8                  20379193.828
 117452685.874 7                  22350499.281
 113594180.50948  88515042.65046  21616238.1254                   21616243.8674
 11  7 25  4  4  0.0000000  0  7G10G25G12G26G05G29G02
 123360344.44946  96125046.57843  23474681.4454                   23474689.1294
 113548490.217 8                  21607560.070
 113680454.477 7                  21632667.250
 124848922.93246  97284831.03843  23757939.1094                   23757947.9024
 107117963.439 8                  20383857.922
 117372936.897 7                  22335322.703
 113635478.41648  88547222.83346  21624096.9304                   21624102.8054
 11  7 25  4  4 30.0000000  0  7G10G25G12G26G05G29G02
 123463794.08247  96205656.70343  23494366.7424                   23494374.7774
 113554275.198 8                  21608660.922
 113748418.280 7                  21645600.453
 124751864.05747  97209200.77543  23739470.0944                   23739478.4184
 107142992.466 8                  20388620.633
 117293298.007 7                  22320168.477
 113676878.92048  88579482.97046  21631975.0394                   21631981.2664
 11  7 25  4  5  0.0000000  0  7G10G25G12G26G05G29G02
 123567416.91846  96286401.73943  23514085.5234                   23514094.1684
 113560636.437 8                  21609871.641
 113816785.176 7                  21658610.016
 124654869.16547  97133620.40043  23721012.6254                   23721021.0634
 107168540.538 8                  20393482.258
 117213770.950 7                  22305034.516
 113718381.67748  88611822.79146  21639872.9614                   21639878.7624
 11  7 25  4  5 30.0000000  0  7G10G25G12G26G05G29G02
 123671210.60246  96367279.94043  23533836.9454                   23533845.3674
 113567573.799 8                  21611191.609
 113885553.108 7                  21671696.422
 124557942.16946  97058092.88243  23702567.4384                   23702576.2074
 107194607.037 8                  20398442.602
 117134357.969 7                  22289922.766
 113759986.90248  88644242.44546  21647789.9694                   21647795.8554
 11  7 25  4  6  0.0000000  0  7G10G25G12G26G05G29G02
 123775172.40646  96448289.12643  23553620.0944                   23553628.7584
 113575086.439 8                  21612621.016
 113954719.066 7                  21684858.031
 124461086.48546  96982620.92443  23684136.2274                   23684145.1214
 107221190.228 8                  20403501.453
 117055061.078 7                  22274833.508
 113801694.48948  88676741.85846  21655727.0634                   21655732.3594
 11  7 25  4  6 30.0000000  0  7G10G25G12G26G05G29G02
 123879299.49046  96529427.13943  23573434.6644                   23573443.3714
 113583173.373 8                  21614159.734
 114024280.215 7                  21698095.008
 124364305.51946  96907207.25743  23665719.1804                   23665729.0354
 107248287.930 8                  20408657.688
 116975881.613 7                  22259765.547
 113843503.88547  88709320.60546  21663683.0864                   21663688.7814
 11  7 25  4  7  0.0000000  0  7G10G25G12G26G05G29G02
 123983588.82846  96610691.51444  23593280.8444                   23593289.7504
 113591833.599 8                  21615807.859
 114094233.678 7                  21711407.039
 124267602.25746  96831854.10943  23647317.3834                   23647326.2114
 107275898.013 8                  20413911.719
 116896821.494 7                  22244721.359
 113885414.47248  88741978.21246  21671658.0864                   21671663.9654
 11  7 25  4  7 30.0000000  0  8G10G25G12G26G05G29G15G02
 124088038.38546  96692080.80344  23613157.1094                   23613165.3714
 113601067.130 8                  21617565.195
 114164577.342 8                  21724792.805
 124170981.08147  96756564.94444  23628930.8364                   23628940.0474
 107304020.225 8                  20419262.891
 116817883.364 7                  22229699.984
 129353126.72115                  24615079.641
 113927427.21847  88774715.43146  21679653.0004                   21679658.9454
 11  7 25  4  8  0.0000000  0  8G10G25G12G26G05G29G15G02
 124192645.29547  96773592.66544  23633063.0474                   23633071.6684
 113610872.885 8                  21619431.133
 114235308.414 7                  21738252.445
 124074445.22447  96681342.23543  23610560.6954                   23610569.1914
 107332652.384 8                  20424711.883
 116739068.842 7                  22214702.047
 129257688.184 6                  24596918.797
 113969541.71847  88807531.92646  21687667.2424                   21687672.6844
 11  7 25  4  8 30.0000000  0  8G10G25G12G26G05G29G15G02
 124297406.53446  96855224.76544  23652998.7274                   23653006.9774
 113621249.747 8                  21621406.117
 114306423.922 8                  21751785.711
 123977998.04547  96606188.63144  23592208.3284                   23592217.3914
 107361792.294 8                  20430256.750
 116660379.740 7                  22199727.719
 129162134.408 5                  24578734.180
 114011756.68348  88840426.69746  21695700.1804                   21695705.8404
 11  7 25  4  9  0.0000000  0  8G10G25G12G26G05G29G15G02
 124402319.52346  96936975.14443  23672962.3674                   23672971.1724
 113632197.091 8                  21623488.750
 114377921.252 8                  21765391.102
 123881642.88847  96531106.73444  23573872.4304                   23573880.8524
 107391438.629 8                  20435898.219
 116581818.145 7                  22184778.273
 129066468.020 6                  24560530.617
 114054072.90847  88873400.36745  21703753.0554                   21703758.9224
 11  7 25  4  9 30.0000000  0  8G10G25G12G26G05G29G15G02
 124507381.68346  97018841.72143  23692955.0864                   23692964.2154
 113643713.931 8                  21625680.164
 114449797.592 8                  21779068.680
 123785383.65447  96456099.61044  23555553.7504                   23555563.3244
 107421589.674 8                  20441635.844
 116503385.949 7                  22169853.063
 128970691.682 6                  24542304.836
 114096490.16848  88906452.78845  21711824.4064                   21711830.1764
 11  7 25  4 10  0.0000000  0  8G10G25G12G26G05G29G15G02
 124612590.03446  97100822.21543  23712974.7194                   23712984.3754
 113655799.416 8                  21627980.180
 114522050.075 8                  21792817.602
 123689223.89847  96381169.93944  23537255.8284                   23537264.8634
 107452243.607 8                  20447469.078
 116425085.364 7                  22154952.734
 128874807.786 6                  24524058.727
 114139008.52048  88939583.97146  21719915.1024                   21719920.8594
 11  7 25  4 10 30.0000000  0  8G10G25G12G26G05G29G15G02
 124717942.28846  97182914.86643  23733023.1564                   23733032.1134
 113668452.610 8                  21630387.922
 114594676.121 8                  21806638.172
 123593166.70547  96306320.22944  23518976.4534                   23518985.8244
 107483398.744 8                  20453397.734
 116346918.266 7                  22140078.031
 128778818.920 6                  24505793.063
 114181627.26548  88972793.37646  21728025.4384                   21728031.2424
 11  7 25  4 11  0.0000000  0  8G10G25G12G26G05G29G15G02
 124823435.60246  97265117.44243  23753097.9534                   23753106.4734
 113681672.470 8                  21632903.492
 114667672.940 8                  21820529.180
 123497215.73747  96231553.31244  23500717.0784                   23500726.7274
 107515052.957 8                  20459421.555
 116268886.503 7                  22125229.117
 128682727.608 6                  24487506.328
 114224346.32948  89006080.95346  21736154.7114                   21736160.6294
